Darstellungsparameter: Aktuell verwendete Einstellungen:
Skalierung der Graphiken ... ?
xyx+y,   Skalierungsfaktor:      Skalierung: Modus: x, Faktor: 1
Darstellungszeitraum ... ?
Vom - - bis: - -   Zeitraum: 29.08.2020 - 28.09.2020
Min/Max/Avg-Anzeige ... ?
Zeige MMA aktuell
Zeige MMA Monat
Zeige MMA alles
Zeige --A aktuell
Zeige --A Monat
Zeige --A alles
Keine MMA-Anzeige
MMA:
Average (ber die Originaldaten)
MMA-Basis: 29.08.2020 - 28.09.2020
Quicknavigation für Darstellung... ?
Tage:      1T, 2T, 3T, 5T -1T -2T -3T -5T +1T +2T +3T +5T
Wochen: 1W, 2W, 3W -1W -2W -3W +1W +2W +3W
Monate: 1M, 3M, 6M -1M -3M -6M +1M +3M +6M
Jahre:    1J, 3J, 5J, 10J -1J -3J -5J -10J +1J +3J +5J +10J
Nutze für die Darstellung ... ?
Originaldaten oder Mittelwerte auf ...
Stundenbasis Tagesbasis Wochenbasis
Monatsbasis Jahresbasis      Datenbasis: Original-Daten
Darstellen als:
Statistik (Auto) Statistik J:M      Darstellung:
Zur Graphik,    zurück zur Übersicht aller Sensoren.
 
Tabellarische Datenbersicht: ?
 
Sensor: Nr:Datum:Temp:Abs-Feuchte:Windchill:Wind:
Aussen-T/F 1 29-08-2020 00:00:00 12.6 C 9.96 g/m*3 12.6 C 1.6 km/h
2 29-08-2020 00:05:00 12.5 C 9.89 g/m*3 12.5 C 1.6 km/h
3 29-08-2020 00:10:00 12.4 C 9.83 g/m*3 12.4 C 1.6 km/h
4 29-08-2020 00:15:00 12.4 C 9.94 g/m*3 12.4 C 1.6 km/h
5 29-08-2020 00:20:00 12.4 C 9.94 g/m*3 12.4 C 1.6 km/h
6 29-08-2020 00:25:00 12.4 C 9.94 g/m*3 12.4 C 1.6 km/h
7 29-08-2020 00:30:00 12.4 C 9.94 g/m*3 12.4 C 1.6 km/h
8 29-08-2020 00:35:00 12.4 C 9.94 g/m*3 12.4 C 1.6 km/h
9 29-08-2020 00:40:00 12.4 C 10.05 g/m*3 12.4 C 1.6 km/h
10 29-08-2020 00:45:00 12.6 C 10.18 g/m*3 12.6 C 3.2 km/h
11 29-08-2020 00:50:00 12.6 C 10.18 g/m*3 12.6 C 0 km/h
12 29-08-2020 00:55:00 12.6 C 10.07 g/m*3 12.6 C 0 km/h
13 29-08-2020 01:00:00 12.5 C 10 g/m*3 12.5 C 4.8 km/h
14 29-08-2020 01:05:00 12.5 C 10.11 g/m*3 12.5 C 4.8 km/h
15 29-08-2020 01:10:00 12.5 C 10.11 g/m*3 12.5 C 1.6 km/h
16 29-08-2020 01:15:00 12.6 C 10.18 g/m*3 12.6 C 3.2 km/h
17 29-08-2020 01:20:00 12.6 C 10.07 g/m*3 12.6 C 1.6 km/h
18 29-08-2020 01:25:00 12.5 C 10 g/m*3 12.5 C 1.6 km/h
19 29-08-2020 01:30:00 12.4 C 9.94 g/m*3 12.4 C 6.4 km/h
20 29-08-2020 01:35:00 12.4 C 10.05 g/m*3 12.4 C 6.4 km/h
21 29-08-2020 01:40:00 12.4 C 10.05 g/m*3 12.4 C 1.6 km/h
22 29-08-2020 01:45:00 12.3 C 9.88 g/m*3 12.3 C 1.6 km/h
23 29-08-2020 01:50:00 12.2 C 9.82 g/m*3 12.2 C 1.6 km/h
24 29-08-2020 01:55:00 12.2 C 9.82 g/m*3 12.2 C 0 km/h
25 29-08-2020 02:00:00 12.1 C 9.76 g/m*3 12.1 C 1.6 km/h
Sensor: Nr:Datum:Temp:Abs-Feuchte:Windchill:Wind:
Aussen-T/F 26 29-08-2020 02:05:00 12.1 C 9.87 g/m*3 12.1 C 3.2 km/h
27 29-08-2020 02:10:00 12.1 C 9.87 g/m*3 12.1 C 4.8 km/h
28 29-08-2020 02:15:00 12.1 C 9.87 g/m*3 12.1 C 3.2 km/h
29 29-08-2020 02:20:00 12.1 C 9.87 g/m*3 12.1 C 1.6 km/h
30 29-08-2020 02:25:00 12.1 C 9.87 g/m*3 12.1 C 1.6 km/h
31 29-08-2020 02:30:00 12.1 C 9.87 g/m*3 12.1 C 1.6 km/h
32 29-08-2020 02:35:00 12.1 C 9.87 g/m*3 12.1 C 0 km/h
33 29-08-2020 02:40:00 12 C 9.8 g/m*3 12 C 0 km/h
34 29-08-2020 02:45:00 12 C 9.8 g/m*3 12 C 0 km/h
35 29-08-2020 02:50:00 11.9 C 9.74 g/m*3 11.9 C 0 km/h
36 29-08-2020 02:55:00 11.9 C 9.85 g/m*3 11.9 C 4.8 km/h
37 29-08-2020 03:00:00 11.9 C 9.85 g/m*3 11.9 C 3.2 km/h
38 29-08-2020 03:05:00 11.9 C 9.85 g/m*3 11.9 C 0 km/h
39 29-08-2020 03:10:00 11.9 C 9.85 g/m*3 11.9 C 0 km/h
40 29-08-2020 03:15:00 11.8 C 9.68 g/m*3 11.8 C 0 km/h
41 29-08-2020 03:20:00 11.7 C 9.62 g/m*3 11.7 C 6.4 km/h
42 29-08-2020 03:25:00 11.7 C 9.62 g/m*3 11.7 C 0 km/h
43 29-08-2020 03:30:00 11.6 C 9.56 g/m*3 11.6 C 0 km/h
44 29-08-2020 03:35:00 11.6 C 9.56 g/m*3 11.6 C 0 km/h
45 29-08-2020 03:40:00 11.5 C 9.5 g/m*3 11.5 C 1.6 km/h
46 29-08-2020 03:45:00 11.6 C 9.67 g/m*3 11.6 C 3.2 km/h
47 29-08-2020 03:50:00 11.7 C 9.73 g/m*3 11.7 C 3.2 km/h
48 29-08-2020 03:55:00 11.7 C 9.83 g/m*3 11.7 C 1.6 km/h
49 29-08-2020 04:00:00 11.8 C 9.89 g/m*3 11.8 C 0 km/h
50 29-08-2020 04:05:00 11.9 C 9.96 g/m*3 11.9 C 1.6 km/h
Sensor: Nr:Datum:Temp:Abs-Feuchte:Windchill:Wind:
Aussen-T/F 51 29-08-2020 04:10:00 11.9 C 9.85 g/m*3 11.9 C 0 km/h
52 29-08-2020 04:15:00 11.8 C 9.79 g/m*3 11.8 C 1.6 km/h
53 29-08-2020 04:20:00 11.8 C 9.79 g/m*3 11.8 C 3.2 km/h
54 29-08-2020 04:25:00 11.8 C 9.79 g/m*3 11.8 C 3.2 km/h
55 29-08-2020 04:30:00 11.8 C 9.79 g/m*3 11.8 C 3.2 km/h
56 29-08-2020 04:35:00 11.7 C 9.73 g/m*3 11.7 C 3.2 km/h
57 29-08-2020 04:40:00 11.7 C 9.73 g/m*3 11.7 C 3.2 km/h
58 29-08-2020 04:45:00 11.6 C 9.67 g/m*3 11.6 C 0 km/h
59 29-08-2020 04:50:00 11.5 C 9.61 g/m*3 11.5 C 3.2 km/h
60 29-08-2020 04:55:00 11.4 C 9.55 g/m*3 11.4 C 3.2 km/h
61 29-08-2020 05:00:00 11.3 C 9.49 g/m*3 11.3 C 3.2 km/h
62 29-08-2020 05:05:00 11.2 C 9.43 g/m*3 11.2 C 3.2 km/h
63 29-08-2020 05:10:00 11.2 C 9.43 g/m*3 11.2 C 3.2 km/h
64 29-08-2020 05:15:00 11.2 C 9.43 g/m*3 11.2 C 3.2 km/h
65 29-08-2020 05:20:00 11.2 C 9.43 g/m*3 11.2 C 3.2 km/h
66 29-08-2020 05:25:00 11.2 C 9.53 g/m*3 11.2 C 0 km/h
67 29-08-2020 05:30:00 11.2 C 9.53 g/m*3 11.2 C 0 km/h
68 29-08-2020 05:35:00 11.2 C 9.43 g/m*3 11.2 C 0 km/h
69 29-08-2020 05:40:00 11.1 C 9.37 g/m*3 11.1 C 0 km/h
70 29-08-2020 05:45:00 11.1 C 9.37 g/m*3 11.1 C 0 km/h
71 29-08-2020 05:50:00 11 C 9.31 g/m*3 11 C 0 km/h
72 29-08-2020 05:55:00 11 C 9.31 g/m*3 11 C 0 km/h
73 29-08-2020 06:00:00 10.9 C 9.35 g/m*3 10.9 C 0 km/h
74 29-08-2020 06:05:00 10.9 C 9.35 g/m*3 10.9 C 0 km/h
75 29-08-2020 06:10:00 10.9 C 9.35 g/m*3 10.9 C 0 km/h
Sensor: Nr:Datum:Temp:Abs-Feuchte:Windchill:Wind:
Aussen-T/F 76 29-08-2020 06:15:00 10.9 C 9.35 g/m*3 10.9 C 0 km/h
77 29-08-2020 06:20:00 10.9 C 9.35 g/m*3 10.9 C 0 km/h
78 29-08-2020 06:25:00 10.9 C 9.35 g/m*3 10.9 C 0 km/h
79 29-08-2020 06:30:00 10.9 C 9.35 g/m*3 10.9 C 0 km/h
80 29-08-2020 06:35:00 11 C 9.41 g/m*3 11 C 0 km/h
81 29-08-2020 06:40:00 11 C 9.41 g/m*3 11 C 0 km/h
82 29-08-2020 06:45:00 11.1 C 9.57 g/m*3 11.1 C 0 km/h
83 29-08-2020 06:50:00 11.1 C 9.57 g/m*3 11.1 C 0 km/h
84 29-08-2020 06:55:00 11.1 C 9.57 g/m*3 11.1 C 0 km/h
85 29-08-2020 07:00:00 11.1 C 9.57 g/m*3 11.1 C 3.2 km/h
86 29-08-2020 07:05:00 11.2 C 9.63 g/m*3 11.2 C 1.6 km/h
87 29-08-2020 07:10:00 11.2 C 9.63 g/m*3 11.2 C 0 km/h
88 29-08-2020 07:15:00 11.2 C 9.63 g/m*3 11.2 C 1.6 km/h
89 29-08-2020 07:20:00 11.2 C 9.63 g/m*3 11.2 C 3.2 km/h
90 29-08-2020 07:25:00 11.2 C 9.63 g/m*3 11.2 C 1.6 km/h
91 29-08-2020 07:30:00 11.3 C 9.69 g/m*3 11.3 C 4.8 km/h
92 29-08-2020 07:35:00 11.3 C 9.69 g/m*3 11.3 C 0 km/h
93 29-08-2020 07:40:00 11.3 C 9.69 g/m*3 11.3 C 0 km/h
94 29-08-2020 07:45:00 11.3 C 9.69 g/m*3 11.3 C 0 km/h
95 29-08-2020 07:50:00 11.4 C 9.75 g/m*3 11.4 C 1.6 km/h
96 29-08-2020 07:55:00 11.6 C 9.87 g/m*3 11.6 C 0 km/h
97 29-08-2020 08:00:00 11.7 C 9.94 g/m*3 11.7 C 3.2 km/h
98 29-08-2020 08:05:00 11.8 C 10 g/m*3 11.8 C 3.2 km/h
99 29-08-2020 08:10:00 11.8 C 10.1 g/m*3 11.8 C 0 km/h
100 29-08-2020 08:15:00 11.9 C 10.17 g/m*3 11.9 C 0 km/h
Sensor: Nr:Datum:Temp:Abs-Feuchte:Windchill:Wind:
Aussen-T/F 101 29-08-2020 08:20:00 12.1 C 10.29 g/m*3 12.1 C 0 km/h
102 29-08-2020 08:25:00 12.2 C 10.36 g/m*3 12.2 C 4.8 km/h
103 29-08-2020 08:30:00 12.3 C 10.42 g/m*3 12.3 C 1.6 km/h
104 29-08-2020 08:35:00 12.4 C 10.38 g/m*3 12.4 C 4.8 km/h
105 29-08-2020 08:40:00 12.6 C 10.51 g/m*3 12.6 C 4.8 km/h
106 29-08-2020 08:45:00 12.8 C 10.64 g/m*3 12.8 C 9.7 km/h
107 29-08-2020 08:50:00 12.9 C 10.59 g/m*3 12.9 C 6.4 km/h
108 29-08-2020 08:55:00 13.1 C 10.73 g/m*3 13.1 C 8.1 km/h
109 29-08-2020 09:00:00 13.3 C 10.74 g/m*3 13.3 C 14.5 km/h
110 29-08-2020 09:05:00 13.6 C 10.71 g/m*3 13.6 C 12.9 km/h
111 29-08-2020 09:10:00 13.9 C 10.67 g/m*3 13.9 C 8.1 km/h
112 29-08-2020 09:15:00 14.3 C 10.81 g/m*3 14.3 C 14.5 km/h
113 29-08-2020 09:20:00 14.6 C 10.89 g/m*3 14.6 C 9.7 km/h
114 29-08-2020 09:25:00 14.8 C 10.77 g/m*3 14.8 C 11.3 km/h
115 29-08-2020 09:30:00 15 C 10.77 g/m*3 15 C 4.8 km/h
116 29-08-2020 09:35:00 15.1 C 10.84 g/m*3 15.1 C 6.4 km/h
117 29-08-2020 09:40:00 15.2 C 10.77 g/m*3 15.2 C 9.7 km/h
118 29-08-2020 09:45:00 15.4 C 10.9 g/m*3 15.4 C 9.7 km/h
119 29-08-2020 09:50:00 15.7 C 10.84 g/m*3 15.7 C 12.9 km/h
120 29-08-2020 09:55:00 15.9 C 10.83 g/m*3 15.9 C 14.5 km/h
121 29-08-2020 10:00:00 16.1 C 10.83 g/m*3 16.1 C 16.1 km/h
122 29-08-2020 10:05:00 16.3 C 10.82 g/m*3 16.3 C 19.3 km/h
123 29-08-2020 10:10:00 16.3 C 10.82 g/m*3 16.3 C 14.5 km/h
124 29-08-2020 10:15:00 16.5 C 10.95 g/m*3 16.5 C 19.3 km/h
125 29-08-2020 10:20:00 16.6 C 10.88 g/m*3 16.6 C 16.1 km/h
Sensor: Nr:Datum:Temp:Abs-Feuchte:Windchill:Wind:
Aussen-T/F 126 29-08-2020 10:25:00 16.6 C 11.02 g/m*3 16.6 C 11.3 km/h
127 29-08-2020 10:30:00 16.6 C 11.02 g/m*3 16.6 C 9.7 km/h
128 29-08-2020 10:35:00 16.6 C 10.88 g/m*3 16.6 C 9.7 km/h
129 29-08-2020 10:40:00 16.7 C 11.08 g/m*3 16.7 C 11.3 km/h
130 29-08-2020 10:45:00 16.8 C 11.01 g/m*3 16.8 C 14.5 km/h
131 29-08-2020 10:50:00 17 C 11.14 g/m*3 17 C 12.9 km/h
132 29-08-2020 10:55:00 17.2 C 11.13 g/m*3 17.2 C 8.1 km/h
133 29-08-2020 11:00:00 17.3 C 11.2 g/m*3 17.3 C 12.9 km/h
134 29-08-2020 11:05:00 17.4 C 11.12 g/m*3 17.4 C 16.1 km/h
135 29-08-2020 11:10:00 17.6 C 11.1 g/m*3 17.6 C 17.7 km/h
136 29-08-2020 11:15:00 17.5 C 11.03 g/m*3 17.5 C 12.9 km/h
137 29-08-2020 11:20:00 17.5 C 11.03 g/m*3 17.5 C 14.5 km/h
138 29-08-2020 11:25:00 17.6 C 11.1 g/m*3 17.6 C 14.5 km/h
139 29-08-2020 11:30:00 17.7 C 11.01 g/m*3 17.7 C 11.3 km/h
140 29-08-2020 11:35:00 17.7 C 10.86 g/m*3 17.7 C 20.9 km/h
141 29-08-2020 11:40:00 17.8 C 11.08 g/m*3 17.8 C 19.3 km/h
142 29-08-2020 11:45:00 18 C 11.06 g/m*3 18 C 16.1 km/h
143 29-08-2020 11:50:00 18.3 C 11.1 g/m*3 18.3 C 14.5 km/h
144 29-08-2020 11:55:00 18.4 C 11.32 g/m*3 18.4 C 11.3 km/h
145 29-08-2020 12:00:00 18.7 C 11.21 g/m*3 18.7 C 19.3 km/h
146 29-08-2020 12:05:00 18.9 C 11.34 g/m*3 18.9 C 20.9 km/h
147 29-08-2020 12:10:00 18.9 C 11.18 g/m*3 18.9 C 16.1 km/h
148 29-08-2020 12:15:00 18.8 C 11.27 g/m*3 18.8 C 14.5 km/h
149 29-08-2020 12:20:00 18.6 C 10.82 g/m*3 18.6 C 12.9 km/h
150 29-08-2020 12:25:00 18.5 C 11.08 g/m*3 18.5 C 11.3 km/h
Sensor: Nr:Datum:Temp:Abs-Feuchte:Windchill:Wind:
Aussen-T/F 151 29-08-2020 12:30:00 18.6 C 10.98 g/m*3 18.6 C 14.5 km/h
152 29-08-2020 12:35:00 18.8 C 10.95 g/m*3 18.8 C 17.7 km/h
153 29-08-2020 12:40:00 18.9 C 10.69 g/m*3 18.9 C 19.3 km/h
154 29-08-2020 12:45:00 19 C 10.92 g/m*3 19 C 19.3 km/h
155 29-08-2020 12:50:00 19.1 C 11.15 g/m*3 19.1 C 14.5 km/h
156 29-08-2020 12:55:00 19.3 C 11.28 g/m*3 19.3 C 14.5 km/h
157 29-08-2020 13:00:00 19.3 C 11.11 g/m*3 19.3 C 17.7 km/h
158 29-08-2020 13:05:00 19.2 C 11.21 g/m*3 19.2 C 17.7 km/h
159 29-08-2020 13:10:00 19.1 C 11.15 g/m*3 19.1 C 16.1 km/h
160 29-08-2020 13:15:00 19.1 C 10.82 g/m*3 19.1 C 16.1 km/h
161 29-08-2020 13:20:00 19.2 C 10.88 g/m*3 19.2 C 12.9 km/h
162 29-08-2020 13:25:00 19.3 C 10.95 g/m*3 19.3 C 12.9 km/h
163 29-08-2020 13:30:00 19.4 C 11.01 g/m*3 19.4 C 14.5 km/h
164 29-08-2020 13:35:00 19.5 C 10.91 g/m*3 19.5 C 14.5 km/h
165 29-08-2020 13:40:00 19.4 C 10.84 g/m*3 19.4 C 16.1 km/h
166 29-08-2020 13:45:00 19.6 C 10.8 g/m*3 19.6 C 14.5 km/h
167 29-08-2020 13:50:00 19.6 C 10.8 g/m*3 19.6 C 6.4 km/h
168 29-08-2020 13:55:00 19.5 C 10.41 g/m*3 19.5 C 9.7 km/h
169 29-08-2020 14:00:00 19.6 C 10.8 g/m*3 19.6 C 11.3 km/h
170 29-08-2020 14:05:00 19.7 C 10.7 g/m*3 19.7 C 19.3 km/h
171 29-08-2020 14:10:00 19.9 C 10.48 g/m*3 19.9 C 16.1 km/h
172 29-08-2020 14:15:00 19.9 C 10.48 g/m*3 19.9 C 17.7 km/h
173 29-08-2020 14:20:00 20.1 C 10.78 g/m*3 20.1 C 14.5 km/h
174 29-08-2020 14:25:00 20.3 C 10.73 g/m*3 20.3 C 11.3 km/h
175 29-08-2020 14:30:00 20.4 C 10.79 g/m*3 20.4 C 14.5 km/h
Sensor: Nr:Datum:Temp:Abs-Feuchte:Windchill:Wind:
Aussen-T/F 176 29-08-2020 14:35:00 20.6 C 10.74 g/m*3 20.6 C 14.5 km/h
177 29-08-2020 14:40:00 20.7 C 10.8 g/m*3 20.7 C 11.3 km/h
178 29-08-2020 14:45:00 20.7 C 10.62 g/m*3 20.7 C 19.3 km/h
179 29-08-2020 14:50:00 20.7 C 10.62 g/m*3 20.7 C 16.1 km/h
180 29-08-2020 14:55:00 20.8 C 10.68 g/m*3 20.8 C 16.1 km/h
181 29-08-2020 15:00:00 20.9 C 10.75 g/m*3 20.9 C 12.9 km/h
182 29-08-2020 15:05:00 20.9 C 10.56 g/m*3 20.9 C 11.3 km/h
183 29-08-2020 15:10:00 21.1 C 10.69 g/m*3 21.1 C 12.9 km/h
184 29-08-2020 15:15:00 21.2 C 10.19 g/m*3 21.2 C 16.1 km/h
185 29-08-2020 15:20:00 21.3 C 10.25 g/m*3 21.3 C 11.3 km/h
186 29-08-2020 15:25:00 21.5 C 10.18 g/m*3 21.5 C 17.7 km/h
187 29-08-2020 15:30:00 21.6 C 10.24 g/m*3 21.6 C 11.3 km/h
188 29-08-2020 15:35:00 21.6 C 10.24 g/m*3 21.6 C 14.5 km/h
189 29-08-2020 15:40:00 21.4 C 10.31 g/m*3 21.4 C 11.3 km/h
190 29-08-2020 15:45:00 21.3 C 10.07 g/m*3 21.3 C 12.9 km/h
191 29-08-2020 15:50:00 21.4 C 10.12 g/m*3 21.4 C 14.5 km/h
192 29-08-2020 15:55:00 21.6 C 10.24 g/m*3 21.6 C 11.3 km/h
193 29-08-2020 16:00:00 21.9 C 10.61 g/m*3 21.9 C 11.3 km/h
194 29-08-2020 16:05:00 22.2 C 10.6 g/m*3 22.2 C 20.9 km/h
195 29-08-2020 16:10:00 22.2 C 10.6 g/m*3 22.2 C 11.3 km/h
196 29-08-2020 16:15:00 22.4 C 10.72 g/m*3 22.4 C 12.9 km/h
197 29-08-2020 16:20:00 22.6 C 10.45 g/m*3 22.6 C 14.5 km/h
198 29-08-2020 16:25:00 22.8 C 10.36 g/m*3 22.8 C 12.9 km/h
199 29-08-2020 16:30:00 23.1 C 10.13 g/m*3 23.1 C 9.7 km/h
200 29-08-2020 16:35:00 23 C 10.28 g/m*3 23 C 8.1 km/h
Sensor: Nr:Datum:Temp:Abs-Feuchte:Windchill:Wind:
Aussen-T/F 201 29-08-2020 16:40:00 22.8 C 10.16 g/m*3 22.8 C 6.4 km/h
202 29-08-2020 16:45:00 22.5 C 10.19 g/m*3 22.5 C 8.1 km/h
203 29-08-2020 16:50:00 22.3 C 10.07 g/m*3 22.3 C 1.6 km/h
204 29-08-2020 16:55:00 22.2 C 10.21 g/m*3 22.2 C 0 km/h
205 29-08-2020 17:00:00 22.3 C 10.27 g/m*3 22.3 C 12.9 km/h
206 29-08-2020 17:05:00 22.8 C 10.36 g/m*3 22.8 C 9.7 km/h
207 29-08-2020 17:10:00 23.3 C 10.66 g/m*3 23.3 C 9.7 km/h
208 29-08-2020 17:15:00 23.8 C 10.33 g/m*3 23.8 C 17.7 km/h
209 29-08-2020 17:20:00 23.7 C 10.27 g/m*3 23.7 C 12.9 km/h
210 29-08-2020 17:25:00 23.3 C 9.83 g/m*3 23.3 C 11.3 km/h
211 29-08-2020 17:30:00 22.7 C 10.1 g/m*3 22.7 C 14.5 km/h
212 29-08-2020 17:35:00 22.3 C 9.87 g/m*3 22.3 C 6.4 km/h
213 29-08-2020 17:40:00 22.3 C 10.07 g/m*3 22.3 C 9.7 km/h
214 29-08-2020 17:45:00 22.1 C 9.96 g/m*3 22.1 C 12.9 km/h
215 29-08-2020 17:50:00 22 C 10.29 g/m*3 22 C 12.9 km/h
216 29-08-2020 17:55:00 22.4 C 10.13 g/m*3 22.4 C 8.1 km/h
217 29-08-2020 18:00:00 22.8 C 10.16 g/m*3 22.8 C 11.3 km/h
218 29-08-2020 18:05:00 22.6 C 10.25 g/m*3 22.6 C 4.8 km/h
219 29-08-2020 18:10:00 22.3 C 10.27 g/m*3 22.3 C 0 km/h
220 29-08-2020 18:15:00 22.1 C 10.54 g/m*3 22.1 C 0 km/h
221 29-08-2020 18:20:00 21.7 C 10.3 g/m*3 21.7 C 1.6 km/h
222 29-08-2020 18:25:00 21.4 C 10.31 g/m*3 21.4 C 0 km/h
223 29-08-2020 18:30:00 21.4 C 10.69 g/m*3 21.4 C 0 km/h
224 29-08-2020 18:35:00 21.6 C 10.81 g/m*3 21.6 C 0 km/h
225 29-08-2020 18:40:00 21.6 C 11.19 g/m*3 21.6 C 0 km/h
Sensor: Nr:Datum:Temp:Abs-Feuchte:Windchill:Wind:
Aussen-T/F 226 29-08-2020 18:45:00 21.4 C 11.25 g/m*3 21.4 C 0 km/h
227 29-08-2020 18:50:00 21.6 C 11.57 g/m*3 21.6 C 0 km/h
228 29-08-2020 18:55:00 22.1 C 11.13 g/m*3 22.1 C 8.1 km/h
229 29-08-2020 19:00:00 22.6 C 10.45 g/m*3 22.6 C 3.2 km/h
230 29-08-2020 19:05:00 22.5 C 10.19 g/m*3 22.5 C 6.4 km/h
231 29-08-2020 19:10:00 22.4 C 10.33 g/m*3 22.4 C 6.4 km/h
232 29-08-2020 19:15:00 22.3 C 10.27 g/m*3 22.3 C 8.1 km/h
233 29-08-2020 19:20:00 22.1 C 10.74 g/m*3 22.1 C 3.2 km/h
234 29-08-2020 19:25:00 22.1 C 10.93 g/m*3 22.1 C 0 km/h
235 29-08-2020 19:30:00 22.1 C 11.13 g/m*3 22.1 C 0 km/h
236 29-08-2020 19:35:00 22.1 C 11.13 g/m*3 22.1 C 0 km/h
237 29-08-2020 19:40:00 21.8 C 10.94 g/m*3 21.8 C 1.6 km/h
238 29-08-2020 19:45:00 21.6 C 11.19 g/m*3 21.6 C 4.8 km/h
239 29-08-2020 19:50:00 21.4 C 11.25 g/m*3 21.4 C 3.2 km/h
240 29-08-2020 19:55:00 21.3 C 11.18 g/m*3 21.3 C 0 km/h
241 29-08-2020 20:00:00 21.2 C 11.3 g/m*3 21.2 C 0 km/h
242 29-08-2020 20:05:00 21 C 11.17 g/m*3 21 C 0 km/h
243 29-08-2020 20:10:00 20.7 C 10.98 g/m*3 20.7 C 0 km/h
244 29-08-2020 20:15:00 20.4 C 11.14 g/m*3 20.4 C 1.6 km/h
245 29-08-2020 20:20:00 20.1 C 11.13 g/m*3 20.1 C 6.4 km/h
246 29-08-2020 20:25:00 19.8 C 11.1 g/m*3 19.8 C 8.1 km/h
247 29-08-2020 20:30:00 19.7 C 11.04 g/m*3 19.7 C 6.4 km/h
248 29-08-2020 20:35:00 19.4 C 11.01 g/m*3 19.4 C 6.4 km/h
249 29-08-2020 20:40:00 19.3 C 11.11 g/m*3 19.3 C 3.2 km/h
250 29-08-2020 20:45:00 19.1 C 10.98 g/m*3 19.1 C 1.6 km/h
Sensor: Nr:Datum:Temp:Abs-Feuchte:Windchill:Wind:
Aussen-T/F 251 29-08-2020 20:50:00 19 C 11.08 g/m*3 19 C 3.2 km/h
252 29-08-2020 20:55:00 18.9 C 11.02 g/m*3 18.9 C 1.6 km/h
253 29-08-2020 21:00:00 18.8 C 11.11 g/m*3 18.8 C 1.6 km/h
254 29-08-2020 21:05:00 18.7 C 11.05 g/m*3 18.7 C 1.6 km/h
255 29-08-2020 21:10:00 18.7 C 11.05 g/m*3 18.7 C 6.4 km/h
256 29-08-2020 21:15:00 18.6 C 11.46 g/m*3 18.6 C 9.7 km/h
257 29-08-2020 21:20:00 18.2 C 11.35 g/m*3 18.2 C 11.3 km/h
258 29-08-2020 21:25:00 18.1 C 11.43 g/m*3 18.1 C 4.8 km/h
259 29-08-2020 21:30:00 17.8 C 11.84 g/m*3 17.8 C 9.7 km/h
260 29-08-2020 21:35:00 17.4 C 11.71 g/m*3 17.4 C 9.7 km/h
261 29-08-2020 21:40:00 17.1 C 11.65 g/m*3 17.1 C 8.1 km/h
262 29-08-2020 21:45:00 16.6 C 11.3 g/m*3 16.6 C 11.3 km/h
263 29-08-2020 21:50:00 16.2 C 11.31 g/m*3 16.2 C 11.3 km/h
264 29-08-2020 21:55:00 15.9 C 11.24 g/m*3 15.9 C 11.3 km/h
265 29-08-2020 22:00:00 15.7 C 11.24 g/m*3 15.7 C 8.1 km/h
266 29-08-2020 22:05:00 15.5 C 11.1 g/m*3 15.5 C 9.7 km/h
267 29-08-2020 22:10:00 15.3 C 11.1 g/m*3 15.3 C 8.1 km/h
268 29-08-2020 22:15:00 15.2 C 11.16 g/m*3 15.2 C 9.7 km/h
269 29-08-2020 22:20:00 15.1 C 11.22 g/m*3 15.1 C 1.6 km/h
270 29-08-2020 22:25:00 15 C 11.16 g/m*3 15 C 3.2 km/h
271 29-08-2020 22:30:00 14.8 C 11.15 g/m*3 14.8 C 4.8 km/h
272 29-08-2020 22:35:00 14.7 C 11.08 g/m*3 14.7 C 11.3 km/h
273 29-08-2020 22:40:00 14.4 C 10.88 g/m*3 14.4 C 9.7 km/h
274 29-08-2020 22:45:00 14.3 C 10.81 g/m*3 14.3 C 8.1 km/h
275 29-08-2020 22:50:00 14.1 C 10.68 g/m*3 14.1 C 6.4 km/h
Sensor: Nr:Datum:Temp:Abs-Feuchte:Windchill:Wind:
Aussen-T/F 276 29-08-2020 22:55:00 13.9 C 10.55 g/m*3 13.9 C 6.4 km/h
277 29-08-2020 23:00:00 13.7 C 10.54 g/m*3 13.7 C 6.4 km/h
278 29-08-2020 23:05:00 13.6 C 10.47 g/m*3 13.6 C 6.4 km/h
279 29-08-2020 23:10:00 13.4 C 10.46 g/m*3 13.4 C 4.8 km/h
280 29-08-2020 23:15:00 13.3 C 10.4 g/m*3 13.3 C 3.2 km/h
281 29-08-2020 23:20:00 13.3 C 10.51 g/m*3 13.3 C 1.6 km/h
282 29-08-2020 23:25:00 13.3 C 10.51 g/m*3 13.3 C 0 km/h
283 29-08-2020 23:30:00 13.3 C 10.51 g/m*3 13.3 C 3.2 km/h
284 29-08-2020 23:35:00 13.3 C 10.63 g/m*3 13.3 C 0 km/h
285 29-08-2020 23:40:00 13.3 C 10.63 g/m*3 13.3 C 4.8 km/h
286 29-08-2020 23:45:00 13.3 C 10.63 g/m*3 13.3 C 6.4 km/h
287 29-08-2020 23:50:00 13.3 C 10.63 g/m*3 13.3 C 4.8 km/h
288 29-08-2020 23:55:00 13.3 C 10.63 g/m*3 13.3 C 6.4 km/h
289 30-08-2020 00:00:00 13.3 C 10.63 g/m*3 13.3 C 6.4 km/h
290 30-08-2020 00:05:00 13.3 C 10.63 g/m*3 13.3 C 1.6 km/h
291 30-08-2020 00:10:00 13.2 C 10.56 g/m*3 13.2 C 0 km/h
292 30-08-2020 00:15:00 13.2 C 10.56 g/m*3 13.2 C 0 km/h
293 30-08-2020 00:20:00 13.1 C 10.5 g/m*3 13.1 C 0 km/h
294 30-08-2020 00:25:00 13.1 C 10.5 g/m*3 13.1 C 0 km/h
295 30-08-2020 00:30:00 13 C 10.43 g/m*3 13 C 0 km/h
296 30-08-2020 00:35:00 12.9 C 10.48 g/m*3 12.9 C 0 km/h
297 30-08-2020 00:40:00 12.8 C 10.42 g/m*3 12.8 C 0 km/h
298 30-08-2020 00:45:00 12.8 C 10.42 g/m*3 12.8 C 0 km/h
299 30-08-2020 00:50:00 12.8 C 10.42 g/m*3 12.8 C 0 km/h
300 30-08-2020 00:55:00 12.8 C 10.42 g/m*3 12.8 C 0 km/h
Sensor: Nr:Datum:Temp:Abs-Feuchte:Windchill:Wind:
Aussen-T/F 301 30-08-2020 01:00:00 12.8 C 10.42 g/m*3 12.8 C 0 km/h
302 30-08-2020 01:05:00 12.7 C 10.35 g/m*3 12.7 C 0 km/h
303 30-08-2020 01:10:00 12.6 C 10.29 g/m*3 12.6 C 0 km/h
304 30-08-2020 01:15:00 12.6 C 10.29 g/m*3 12.6 C 0 km/h
305 30-08-2020 01:20:00 12.4 C 10.16 g/m*3 12.4 C 0 km/h
306 30-08-2020 01:25:00 12.4 C 10.16 g/m*3 12.4 C 0 km/h
307 30-08-2020 01:30:00 12.3 C 10.1 g/m*3 12.3 C 0 km/h
308 30-08-2020 01:35:00 12.2 C 10.04 g/m*3 12.2 C 1.6 km/h
309 30-08-2020 01:40:00 12.1 C 9.97 g/m*3 12.1 C 1.6 km/h
310 30-08-2020 01:45:00 12 C 9.91 g/m*3 12 C 0 km/h
311 30-08-2020 01:50:00 11.9 C 9.96 g/m*3 11.9 C 0 km/h
312 30-08-2020 01:55:00 11.9 C 9.96 g/m*3 11.9 C 3.2 km/h
313 30-08-2020 02:00:00 11.8 C 9.89 g/m*3 11.8 C 0 km/h
314 30-08-2020 02:05:00 11.8 C 9.89 g/m*3 11.8 C 0 km/h
315 30-08-2020 02:10:00 11.7 C 9.83 g/m*3 11.7 C 0 km/h
316 30-08-2020 02:15:00 11.7 C 9.83 g/m*3 11.7 C 0 km/h
317 30-08-2020 02:20:00 11.7 C 9.83 g/m*3 11.7 C 0 km/h
318 30-08-2020 02:25:00 11.6 C 9.77 g/m*3 11.6 C 0 km/h
319 30-08-2020 02:30:00 11.6 C 9.77 g/m*3 11.6 C 0 km/h
320 30-08-2020 02:35:00 11.6 C 9.77 g/m*3 11.6 C 0 km/h
321 30-08-2020 02:40:00 11.5 C 9.71 g/m*3 11.5 C 0 km/h
322 30-08-2020 02:45:00 11.4 C 9.65 g/m*3 11.4 C 0 km/h
323 30-08-2020 02:50:00 11.3 C 9.59 g/m*3 11.3 C 0 km/h
324 30-08-2020 02:55:00 11.3 C 9.59 g/m*3 11.3 C 0 km/h
325 30-08-2020 03:00:00 11.2 C 9.53 g/m*3 11.2 C 0 km/h
Sensor: Nr:Datum:Temp:Abs-Feuchte:Windchill:Wind:
Aussen-T/F 326 30-08-2020 03:05:00 11.2 C 9.53 g/m*3 11.2 C 0 km/h
327 30-08-2020 03:10:00 11.2 C 9.53 g/m*3 11.2 C 0 km/h
328 30-08-2020 03:15:00 11.2 C 9.53 g/m*3 11.2 C 0 km/h
329 30-08-2020 03:20:00 11.1 C 9.47 g/m*3 11.1 C 0 km/h
330 30-08-2020 03:25:00 11.1 C 9.57 g/m*3 11.1 C 0 km/h
331 30-08-2020 03:30:00 11.1 C 9.57 g/m*3 11.1 C 0 km/h
332 30-08-2020 03:35:00 11.1 C 9.57 g/m*3 11.1 C 0 km/h
333 30-08-2020 03:40:00 11 C 9.51 g/m*3 11 C 0 km/h
334 30-08-2020 03:45:00 10.9 C 9.35 g/m*3 10.9 C 0 km/h
335 30-08-2020 03:50:00 10.9 C 9.35 g/m*3 10.9 C 0 km/h
336 30-08-2020 03:55:00 10.8 C 9.29 g/m*3 10.8 C 0 km/h
337 30-08-2020 04:00:00 10.8 C 9.39 g/m*3 10.8 C 0 km/h
338 30-08-2020 04:05:00 10.7 C 9.33 g/m*3 10.7 C 0 km/h
339 30-08-2020 04:10:00 10.7 C 9.33 g/m*3 10.7 C 0 km/h
340 30-08-2020 04:15:00 10.7 C 9.33 g/m*3 10.7 C 0 km/h
341 30-08-2020 04:20:00 10.6 C 9.27 g/m*3 10.6 C 0 km/h
342 30-08-2020 04:25:00 10.6 C 9.27 g/m*3 10.6 C 0 km/h
343 30-08-2020 04:30:00 10.6 C 9.27 g/m*3 10.6 C 0 km/h
344 30-08-2020 04:35:00 10.6 C 9.27 g/m*3 10.6 C 0 km/h
345 30-08-2020 04:40:00 10.7 C 9.33 g/m*3 10.7 C 0 km/h
346 30-08-2020 04:45:00 10.7 C 9.33 g/m*3 10.7 C 0 km/h
347 30-08-2020 04:50:00 10.7 C 9.33 g/m*3 10.7 C 0 km/h
348 30-08-2020 04:55:00 10.7 C 9.33 g/m*3 10.7 C 0 km/h
349 30-08-2020 05:00:00 10.8 C 9.49 g/m*3 10.8 C 0 km/h
350 30-08-2020 05:05:00 10.8 C 9.49 g/m*3 10.8 C 0 km/h
Sensor: Nr:Datum:Temp:Abs-Feuchte:Windchill:Wind:
Aussen-T/F 351 30-08-2020 05:10:00 10.9 C 9.55 g/m*3 10.9 C 0 km/h
352 30-08-2020 05:15:00 10.9 C 9.55 g/m*3 10.9 C 0 km/h
353 30-08-2020 05:20:00 11 C 9.61 g/m*3 11 C 0 km/h
354 30-08-2020 05:25:00 11 C 9.61 g/m*3 11 C 0 km/h
355 30-08-2020 05:30:00 11 C 9.61 g/m*3 11 C 0 km/h
356 30-08-2020 05:35:00 11 C 9.51 g/m*3 11 C 0 km/h
357 30-08-2020 05:40:00 10.9 C 9.55 g/m*3 10.9 C 0 km/h
358 30-08-2020 05:45:00 10.8 C 9.39 g/m*3 10.8 C 0 km/h
359 30-08-2020 05:50:00 10.7 C 9.33 g/m*3 10.7 C 0 km/h
360 30-08-2020 05:55:00 10.6 C 9.27 g/m*3 10.6 C 0 km/h
361 30-08-2020 06:00:00 10.6 C 9.27 g/m*3 10.6 C 0 km/h
362 30-08-2020 06:05:00 10.6 C 9.27 g/m*3 10.6 C 0 km/h
363 30-08-2020 06:10:00 10.6 C 9.37 g/m*3 10.6 C 0 km/h
364 30-08-2020 06:15:00 10.6 C 9.37 g/m*3 10.6 C 0 km/h
365 30-08-2020 06:20:00 10.6 C 9.37 g/m*3 10.6 C 0 km/h
366 30-08-2020 06:25:00 10.7 C 9.43 g/m*3 10.7 C 0 km/h
367 30-08-2020 06:30:00 10.7 C 9.43 g/m*3 10.7 C 0 km/h
368 30-08-2020 06:35:00 10.7 C 9.43 g/m*3 10.7 C 0 km/h
369 30-08-2020 06:40:00 10.7 C 9.43 g/m*3 10.7 C 0 km/h
370 30-08-2020 06:45:00 10.7 C 9.43 g/m*3 10.7 C 0 km/h
371 30-08-2020 06:50:00 10.7 C 9.43 g/m*3 10.7 C 0 km/h
372 30-08-2020 06:55:00 10.8 C 9.49 g/m*3 10.8 C 0 km/h
373 30-08-2020 07:00:00 10.8 C 9.49 g/m*3 10.29 C 6.4 km/h
374 30-08-2020 07:05:00 10.8 C 9.49 g/m*3 10.29 C 6.4 km/h
375 30-08-2020 07:10:00 10.9 C 9.55 g/m*3 10.9 C 0 km/h
Sensor: Nr:Datum:Temp:Abs-Feuchte:Windchill:Wind:
Aussen-T/F 376 30-08-2020 07:15:00 10.9 C 9.55 g/m*3 10.9 C 1.6 km/h
377 30-08-2020 07:20:00 11 C 9.61 g/m*3 11 C 0 km/h
378 30-08-2020 07:25:00 11.1 C 9.67 g/m*3 11.1 C 0 km/h
379 30-08-2020 07:30:00 11.1 C 9.67 g/m*3 11.1 C 0 km/h
380 30-08-2020 07:35:00 11.2 C 9.73 g/m*3 11.2 C 0 km/h
381 30-08-2020 07:40:00 11.2 C 9.73 g/m*3 11.2 C 0 km/h
382 30-08-2020 07:45:00 11.3 C 9.79 g/m*3 11.3 C 0 km/h
383 30-08-2020 07:50:00 11.4 C 9.85 g/m*3 11.4 C 0 km/h
384 30-08-2020 07:55:00 11.5 C 9.92 g/m*3 11.5 C 0 km/h
385 30-08-2020 08:00:00 11.6 C 9.98 g/m*3 11.6 C 1.6 km/h
386 30-08-2020 08:05:00 11.7 C 10.04 g/m*3 11.7 C 1.6 km/h
387 30-08-2020 08:10:00 11.7 C 10.04 g/m*3 11.7 C 0 km/h
388 30-08-2020 08:15:00 11.8 C 10.1 g/m*3 11.8 C 0 km/h
389 30-08-2020 08:20:00 11.8 C 10.1 g/m*3 11.8 C 0 km/h
390 30-08-2020 08:25:00 11.9 C 10.17 g/m*3 11.9 C 0 km/h
391 30-08-2020 08:30:00 11.9 C 10.17 g/m*3 11.9 C 0 km/h
392 30-08-2020 08:35:00 12 C 10.23 g/m*3 12 C 0 km/h
393 30-08-2020 08:40:00 12.1 C 10.29 g/m*3 12.1 C 0 km/h
394 30-08-2020 08:45:00 12.2 C 10.36 g/m*3 12.2 C 0 km/h
395 30-08-2020 08:50:00 12.3 C 10.42 g/m*3 12.3 C 0 km/h
396 30-08-2020 08:55:00 12.3 C 10.53 g/m*3 12.3 C 0 km/h
397 30-08-2020 09:00:00 12.4 C 10.6 g/m*3 12.4 C 0 km/h
398 30-08-2020 09:05:00 12.6 C 10.62 g/m*3 12.6 C 0 km/h
399 30-08-2020 09:10:00 12.8 C 10.87 g/m*3 12.8 C 0 km/h
400 30-08-2020 09:15:00 13 C 11 g/m*3 13 C 0 km/h
Sensor: Nr:Datum:Temp:Abs-Feuchte:Windchill:Wind:
Aussen-T/F 401 30-08-2020 09:20:00 13.1 C 11.07 g/m*3 13.1 C 0 km/h
402 30-08-2020 09:25:00 13.2 C 11.14 g/m*3 13.2 C 0 km/h
403 30-08-2020 09:30:00 13.2 C 11.02 g/m*3 13.2 C 0 km/h
404 30-08-2020 09:35:00 13.4 C 11.16 g/m*3 13.4 C 0 km/h
405 30-08-2020 09:40:00 13.4 C 11.16 g/m*3 13.4 C 0 km/h
406 30-08-2020 09:45:00 13.5 C 11.23 g/m*3 13.5 C 0 km/h
407 30-08-2020 09:50:00 13.6 C 11.18 g/m*3 13.6 C 1.6 km/h
408 30-08-2020 09:55:00 13.7 C 11.13 g/m*3 13.7 C 6.4 km/h
409 30-08-2020 10:00:00 13.8 C 11.2 g/m*3 13.8 C 6.4 km/h
410 30-08-2020 10:05:00 14 C 11.1 g/m*3 14 C 8.1 km/h
411 30-08-2020 10:10:00 14.3 C 11.3 g/m*3 14.3 C 6.4 km/h
412 30-08-2020 10:15:00 14.4 C 11.25 g/m*3 14.4 C 6.4 km/h
413 30-08-2020 10:20:00 14.6 C 11.14 g/m*3 14.6 C 4.8 km/h
414 30-08-2020 10:25:00 14.8 C 11.27 g/m*3 14.8 C 4.8 km/h
415 30-08-2020 10:30:00 14.9 C 11.22 g/m*3 14.9 C 6.4 km/h
416 30-08-2020 10:35:00 15.1 C 11.35 g/m*3 15.1 C 3.2 km/h
417 30-08-2020 10:40:00 15.2 C 11.42 g/m*3 15.2 C 4.8 km/h
418 30-08-2020 10:45:00 15.3 C 11.23 g/m*3 15.3 C 6.4 km/h
419 30-08-2020 10:50:00 15.4 C 11.17 g/m*3 15.4 C 11.3 km/h
420 30-08-2020 10:55:00 15.6 C 11.3 g/m*3 15.6 C 6.4 km/h
421 30-08-2020 11:00:00 15.7 C 11.24 g/m*3 15.7 C 4.8 km/h
422 30-08-2020 11:05:00 15.8 C 11.31 g/m*3 15.8 C 6.4 km/h
423 30-08-2020 11:10:00 15.9 C 11.38 g/m*3 15.9 C 8.1 km/h
424 30-08-2020 11:15:00 16 C 11.44 g/m*3 16 C 1.6 km/h
425 30-08-2020 11:20:00 16.1 C 11.38 g/m*3 16.1 C 6.4 km/h
Sensor: Nr:Datum:Temp:Abs-Feuchte:Windchill:Wind:
Aussen-T/F 426 30-08-2020 11:25:00 16.2 C 11.45 g/m*3 16.2 C 9.7 km/h
427 30-08-2020 11:30:00 16.3 C 11.52 g/m*3 16.3 C 6.4 km/h
428 30-08-2020 11:35:00 16.4 C 11.45 g/m*3 16.4 C 6.4 km/h
429 30-08-2020 11:40:00 16.4 C 11.45 g/m*3 16.4 C 9.7 km/h
430 30-08-2020 11:45:00 16.5 C 11.51 g/m*3 16.5 C 6.4 km/h
431 30-08-2020 11:50:00 16.6 C 11.44 g/m*3 16.6 C 6.4 km/h
432 30-08-2020 11:55:00 16.6 C 11.44 g/m*3 16.6 C 6.4 km/h
433 30-08-2020 12:00:00 16.7 C 11.51 g/m*3 16.7 C 4.8 km/h
434 30-08-2020 12:05:00 16.7 C 11.51 g/m*3 16.7 C 8.1 km/h
435 30-08-2020 12:10:00 16.8 C 11.58 g/m*3 16.8 C 6.4 km/h
436 30-08-2020 12:15:00 16.8 C 11.44 g/m*3 16.8 C 9.7 km/h
437 30-08-2020 12:20:00 16.8 C 11.58 g/m*3 16.8 C 8.1 km/h
438 30-08-2020 12:25:00 16.9 C 11.51 g/m*3 16.9 C 9.7 km/h
439 30-08-2020 12:30:00 17.1 C 11.65 g/m*3 17.1 C 11.3 km/h
440 30-08-2020 12:35:00 17.2 C 11.57 g/m*3 17.2 C 9.7 km/h
441 30-08-2020 12:40:00 17.2 C 11.42 g/m*3 17.2 C 6.4 km/h
442 30-08-2020 12:45:00 17.3 C 11.49 g/m*3 17.3 C 11.3 km/h
443 30-08-2020 12:50:00 17.4 C 11.56 g/m*3 17.4 C 3.2 km/h
444 30-08-2020 12:55:00 17.5 C 11.63 g/m*3 17.5 C 8.1 km/h
445 30-08-2020 13:00:00 17.6 C 11.7 g/m*3 17.6 C 8.1 km/h
446 30-08-2020 13:05:00 17.6 C 11.7 g/m*3 17.6 C 3.2 km/h
447 30-08-2020 13:10:00 17.7 C 11.62 g/m*3 17.7 C 4.8 km/h
448 30-08-2020 13:15:00 17.9 C 11.76 g/m*3 17.9 C 3.2 km/h
449 30-08-2020 13:20:00 18 C 11.83 g/m*3 18 C 8.1 km/h
450 30-08-2020 13:25:00 18 C 11.67 g/m*3 18 C 6.4 km/h
Sensor: Nr:Datum:Temp:Abs-Feuchte:Windchill:Wind:
Aussen-T/F 451 30-08-2020 13:30:00 18.1 C 11.59 g/m*3 18.1 C 4.8 km/h
452 30-08-2020 13:35:00 18.1 C 11.59 g/m*3 18.1 C 6.4 km/h
453 30-08-2020 13:40:00 18.2 C 11.5 g/m*3 18.2 C 6.4 km/h
454 30-08-2020 13:45:00 18.2 C 11.5 g/m*3 18.2 C 4.8 km/h
455 30-08-2020 13:50:00 18.4 C 11.64 g/m*3 18.4 C 8.1 km/h
456 30-08-2020 13:55:00 18.4 C 11.48 g/m*3 18.4 C 8.1 km/h
457 30-08-2020 14:00:00 18.5 C 11.55 g/m*3 18.5 C 4.8 km/h
458 30-08-2020 14:05:00 18.6 C 11.46 g/m*3 18.6 C 8.1 km/h
459 30-08-2020 14:10:00 18.6 C 11.46 g/m*3 18.6 C 4.8 km/h
460 30-08-2020 14:15:00 18.7 C 11.53 g/m*3 18.7 C 0 km/h
461 30-08-2020 14:20:00 18.8 C 11.6 g/m*3 18.8 C 8.1 km/h
462 30-08-2020 14:25:00 18.9 C 11.34 g/m*3 18.9 C 8.1 km/h
463 30-08-2020 14:30:00 18.8 C 11.27 g/m*3 18.8 C 6.4 km/h
464 30-08-2020 14:35:00 18.8 C 11.27 g/m*3 18.8 C 6.4 km/h
465 30-08-2020 14:40:00 18.9 C 11.34 g/m*3 18.9 C 6.4 km/h
466 30-08-2020 14:45:00 19.1 C 11.47 g/m*3 19.1 C 6.4 km/h
467 30-08-2020 14:50:00 19.2 C 11.87 g/m*3 19.2 C 6.4 km/h
468 30-08-2020 14:55:00 19.3 C 11.78 g/m*3 19.3 C 3.2 km/h
469 30-08-2020 15:00:00 19.4 C 11.51 g/m*3 19.4 C 9.7 km/h
470 30-08-2020 15:05:00 19.4 C 11.51 g/m*3 19.4 C 6.4 km/h
471 30-08-2020 15:10:00 19.5 C 11.41 g/m*3 19.5 C 8.1 km/h
472 30-08-2020 15:15:00 19.5 C 11.24 g/m*3 19.5 C 8.1 km/h
473 30-08-2020 15:20:00 19.6 C 11.14 g/m*3 19.6 C 8.1 km/h
474 30-08-2020 15:25:00 19.6 C 11.48 g/m*3 19.6 C 3.2 km/h
475 30-08-2020 15:30:00 19.7 C 11.38 g/m*3 19.7 C 4.8 km/h
Sensor: Nr:Datum:Temp:Abs-Feuchte:Windchill:Wind:
Aussen-T/F 476 30-08-2020 15:35:00 19.8 C 10.76 g/m*3 19.8 C 11.3 km/h
477 30-08-2020 15:40:00 20.1 C 10.6 g/m*3 20.1 C 9.7 km/h
478 30-08-2020 15:45:00 20.3 C 10.9 g/m*3 20.3 C 6.4 km/h
479 30-08-2020 15:50:00 20.7 C 11.16 g/m*3 20.7 C 6.4 km/h
480 30-08-2020 15:55:00 21.1 C 11.24 g/m*3 21.1 C 6.4 km/h
481 30-08-2020 16:00:00 21.2 C 10.93 g/m*3 21.2 C 11.3 km/h
482 30-08-2020 16:05:00 21.4 C 11.25 g/m*3 21.4 C 6.4 km/h
483 30-08-2020 16:10:00 21.4 C 10.69 g/m*3 21.4 C 9.7 km/h
484 30-08-2020 16:15:00 21.4 C 10.5 g/m*3 21.4 C 9.7 km/h
485 30-08-2020 16:20:00 21.4 C 10.5 g/m*3 21.4 C 9.7 km/h
486 30-08-2020 16:25:00 21.4 C 10.31 g/m*3 21.4 C 8.1 km/h
487 30-08-2020 16:30:00 21.3 C 10.44 g/m*3 21.3 C 8.1 km/h
488 30-08-2020 16:35:00 21.3 C 10.07 g/m*3 21.3 C 8.1 km/h
489 30-08-2020 16:40:00 21.2 C 10.38 g/m*3 21.2 C 9.7 km/h
490 30-08-2020 16:45:00 21.2 C 10.38 g/m*3 21.2 C 4.8 km/h
491 30-08-2020 16:50:00 21.3 C 10.62 g/m*3 21.3 C 4.8 km/h
492 30-08-2020 16:55:00 21.4 C 10.5 g/m*3 21.4 C 6.4 km/h
493 30-08-2020 17:00:00 21.5 C 10.37 g/m*3 21.5 C 8.1 km/h
494 30-08-2020 17:05:00 21.4 C 10.12 g/m*3 21.4 C 11.3 km/h
495 30-08-2020 17:10:00 21.3 C 10.25 g/m*3 21.3 C 6.4 km/h
496 30-08-2020 17:15:00 21.3 C 10.25 g/m*3 21.3 C 9.7 km/h
497 30-08-2020 17:20:00 21.3 C 10.44 g/m*3 21.3 C 4.8 km/h
498 30-08-2020 17:25:00 21.3 C 10.25 g/m*3 21.3 C 9.7 km/h
499 30-08-2020 17:30:00 21.5 C 10.37 g/m*3 21.5 C 4.8 km/h
500 30-08-2020 17:35:00 21.7 C 10.68 g/m*3 21.7 C 6.4 km/h
Sensor: Nr:Datum:Temp:Abs-Feuchte:Windchill:Wind:
Aussen-T/F 501 30-08-2020 17:40:00 21.8 C 10.36 g/m*3 21.8 C 8.1 km/h
502 30-08-2020 17:45:00 22 C 10.48 g/m*3 22 C 9.7 km/h
503 30-08-2020 17:50:00 22.2 C 10.41 g/m*3 22.2 C 6.4 km/h
504 30-08-2020 17:55:00 22.2 C 10.01 g/m*3 22.2 C 8.1 km/h
505 30-08-2020 18:00:00 22.1 C 10.35 g/m*3 22.1 C 6.4 km/h
506 30-08-2020 18:05:00 21.9 C 9.65 g/m*3 21.9 C 9.7 km/h
507 30-08-2020 18:10:00 21.8 C 9.78 g/m*3 21.8 C 4.8 km/h
508 30-08-2020 18:15:00 21.7 C 9.73 g/m*3 21.7 C 0 km/h
509 30-08-2020 18:20:00 21.7 C 10.11 g/m*3 21.7 C 8.1 km/h
510 30-08-2020 18:25:00 21.6 C 9.86 g/m*3 21.6 C 4.8 km/h
511 30-08-2020 18:30:00 21.6 C 9.86 g/m*3 21.6 C 4.8 km/h
512 30-08-2020 18:35:00 21.6 C 9.86 g/m*3 21.6 C 3.2 km/h
513 30-08-2020 18:40:00 21.5 C 10.18 g/m*3 21.5 C 3.2 km/h
514 30-08-2020 18:45:00 21.4 C 9.94 g/m*3 21.4 C 0 km/h
515 30-08-2020 18:50:00 21.3 C 9.88 g/m*3 21.3 C 8.1 km/h
516 30-08-2020 18:55:00 21.2 C 9.82 g/m*3 21.2 C 12.9 km/h
517 30-08-2020 19:00:00 21.2 C 9.82 g/m*3 21.2 C 6.4 km/h
518 30-08-2020 19:05:00 21.1 C 9.95 g/m*3 21.1 C 8.1 km/h
519 30-08-2020 19:10:00 20.9 C 10.02 g/m*3 20.9 C 8.1 km/h
520 30-08-2020 19:15:00 20.9 C 10.38 g/m*3 20.9 C 0 km/h
521 30-08-2020 19:20:00 20.8 C 10.14 g/m*3 20.8 C 3.2 km/h
522 30-08-2020 19:25:00 20.8 C 10.68 g/m*3 20.8 C 0 km/h
523 30-08-2020 19:30:00 20.7 C 10.08 g/m*3 20.7 C 0 km/h
524 30-08-2020 19:35:00 20.6 C 10.92 g/m*3 20.6 C 0 km/h
525 30-08-2020 19:40:00 20.4 C 10.61 g/m*3 20.4 C 0 km/h
Sensor: Nr:Datum:Temp:Abs-Feuchte:Windchill:Wind:
Aussen-T/F 526 30-08-2020 19:45:00 20.3 C 10.55 g/m*3 20.3 C 0 km/h
527 30-08-2020 19:50:00 20.1 C 10.95 g/m*3 20.1 C 0 km/h
528 30-08-2020 19:55:00 19.8 C 10.42 g/m*3 19.8 C 0 km/h
529 30-08-2020 20:00:00 19.6 C 10.8 g/m*3 19.6 C 0 km/h
530 30-08-2020 20:05:00 19.3 C 10.62 g/m*3 19.3 C 0 km/h
531 30-08-2020 20:10:00 19.1 C 10.33 g/m*3 19.1 C 0 km/h
532 30-08-2020 20:15:00 18.9 C 10.69 g/m*3 18.9 C 0 km/h
533 30-08-2020 20:20:00 18.8 C 10.79 g/m*3 18.8 C 0 km/h
534 30-08-2020 20:25:00 18.6 C 10.66 g/m*3 18.6 C 0 km/h
535 30-08-2020 20:30:00 18.4 C 10.7 g/m*3 18.4 C 0 km/h
536 30-08-2020 20:35:00 18.4 C 10.7 g/m*3 18.4 C 12.9 km/h
537 30-08-2020 20:40:00 18.7 C 10.89 g/m*3 18.7 C 9.7 km/h
538 30-08-2020 20:45:00 18.9 C 11.02 g/m*3 18.9 C 6.4 km/h
539 30-08-2020 20:50:00 19 C 11.24 g/m*3 19 C 9.7 km/h
540 30-08-2020 20:55:00 19.1 C 11.31 g/m*3 19.1 C 3.2 km/h
541 30-08-2020 21:00:00 19.1 C 11.31 g/m*3 19.1 C 4.8 km/h
542 30-08-2020 21:05:00 19.1 C 11.47 g/m*3 19.1 C 9.7 km/h
543 30-08-2020 21:10:00 19.1 C 11.47 g/m*3 19.1 C 8.1 km/h
544 30-08-2020 21:15:00 19 C 11.41 g/m*3 19 C 6.4 km/h
545 30-08-2020 21:20:00 19 C 11.57 g/m*3 19 C 4.8 km/h
546 30-08-2020 21:25:00 18.9 C 11.5 g/m*3 18.9 C 4.8 km/h
547 30-08-2020 21:30:00 18.9 C 11.5 g/m*3 18.9 C 4.8 km/h
548 30-08-2020 21:35:00 18.8 C 11.43 g/m*3 18.8 C 4.8 km/h
549 30-08-2020 21:40:00 18.8 C 11.6 g/m*3 18.8 C 0 km/h
550 30-08-2020 21:45:00 18.7 C 11.69 g/m*3 18.7 C 0 km/h
Sensor: Nr:Datum:Temp:Abs-Feuchte:Windchill:Wind:
Aussen-T/F 551 30-08-2020 21:50:00 18.6 C 11.62 g/m*3 18.6 C 0 km/h
552 30-08-2020 21:55:00 18.5 C 11.71 g/m*3 18.5 C 0 km/h
553 30-08-2020 22:00:00 18.3 C 11.57 g/m*3 18.3 C 0 km/h
554 30-08-2020 22:05:00 18.2 C 11.66 g/m*3 18.2 C 0 km/h
555 30-08-2020 22:10:00 18.1 C 11.59 g/m*3 18.1 C 0 km/h
556 30-08-2020 22:15:00 17.9 C 11.45 g/m*3 17.9 C 0 km/h
557 30-08-2020 22:20:00 17.8 C 11.54 g/m*3 17.8 C 0 km/h
558 30-08-2020 22:25:00 17.7 C 11.62 g/m*3 17.7 C 0 km/h
559 30-08-2020 22:30:00 17.6 C 11.55 g/m*3 17.6 C 0 km/h
560 30-08-2020 22:35:00 17.4 C 11.41 g/m*3 17.4 C 0 km/h
561 30-08-2020 22:40:00 17.3 C 11.49 g/m*3 17.3 C 0 km/h
562 30-08-2020 22:45:00 17.3 C 11.49 g/m*3 17.3 C 0 km/h
563 30-08-2020 22:50:00 17.2 C 11.42 g/m*3 17.2 C 0 km/h
564 30-08-2020 22:55:00 17.1 C 11.5 g/m*3 17.1 C 0 km/h
565 30-08-2020 23:00:00 17 C 11.43 g/m*3 17 C 0 km/h
566 30-08-2020 23:05:00 16.9 C 11.36 g/m*3 16.9 C 0 km/h
567 30-08-2020 23:10:00 16.8 C 11.29 g/m*3 16.8 C 0 km/h
568 30-08-2020 23:15:00 16.8 C 11.44 g/m*3 16.8 C 0 km/h
569 30-08-2020 23:20:00 16.7 C 11.37 g/m*3 16.7 C 0 km/h
570 30-08-2020 23:25:00 16.7 C 11.37 g/m*3 16.7 C 0 km/h
571 30-08-2020 23:30:00 16.7 C 11.37 g/m*3 16.7 C 0 km/h
572 30-08-2020 23:35:00 16.6 C 11.3 g/m*3 16.6 C 0 km/h
573 30-08-2020 23:40:00 16.6 C 11.3 g/m*3 16.6 C 0 km/h
574 30-08-2020 23:45:00 16.6 C 11.3 g/m*3 16.6 C 0 km/h
575 30-08-2020 23:50:00 16.5 C 11.23 g/m*3 16.5 C 0 km/h
Sensor: Nr:Datum:Temp:Abs-Feuchte:Windchill:Wind:
Aussen-T/F 576 30-08-2020 23:55:00 16.4 C 11.31 g/m*3 16.4 C 0 km/h
577 31-08-2020 00:00:00 16.4 C 11.31 g/m*3 16.4 C 0 km/h
578 31-08-2020 00:05:00 16.3 C 11.24 g/m*3 16.3 C 0 km/h
579 31-08-2020 00:10:00 16.2 C 11.17 g/m*3 16.2 C 0 km/h
580 31-08-2020 00:15:00 16.2 C 11.31 g/m*3 16.2 C 0 km/h
581 31-08-2020 00:20:00 16.1 C 11.24 g/m*3 16.1 C 0 km/h
582 31-08-2020 00:25:00 16.1 C 11.24 g/m*3 16.1 C 0 km/h
583 31-08-2020 00:30:00 16.1 C 11.24 g/m*3 16.1 C 0 km/h
584 31-08-2020 00:35:00 16 C 11.17 g/m*3 16 C 0 km/h
585 31-08-2020 00:40:00 15.9 C 11.24 g/m*3 15.9 C 0 km/h
586 31-08-2020 00:45:00 15.9 C 11.24 g/m*3 15.9 C 0 km/h
587 31-08-2020 00:50:00 15.8 C 11.17 g/m*3 15.8 C 0 km/h
588 31-08-2020 00:55:00 15.8 C 11.17 g/m*3 15.8 C 0 km/h
589 31-08-2020 01:00:00 15.7 C 11.24 g/m*3 15.7 C 0 km/h
590 31-08-2020 01:05:00 15.7 C 11.24 g/m*3 15.7 C 0 km/h
591 31-08-2020 01:10:00 15.7 C 11.37 g/m*3 15.7 C 0 km/h
592 31-08-2020 01:15:00 15.7 C 11.37 g/m*3 15.7 C 0 km/h
593 31-08-2020 01:20:00 15.7 C 11.37 g/m*3 15.7 C 0 km/h
594 31-08-2020 01:25:00 15.7 C 11.37 g/m*3 15.7 C 0 km/h
595 31-08-2020 01:30:00 15.7 C 11.51 g/m*3 15.7 C 0 km/h
596 31-08-2020 01:35:00 15.8 C 11.44 g/m*3 15.8 C 0 km/h
597 31-08-2020 01:40:00 15.8 C 11.44 g/m*3 15.8 C 0 km/h
598 31-08-2020 01:45:00 15.7 C 11.37 g/m*3 15.7 C 0 km/h
599 31-08-2020 01:50:00 15.7 C 11.37 g/m*3 15.7 C 0 km/h
600 31-08-2020 01:55:00 15.6 C 11.3 g/m*3 15.6 C 0 km/h
Sensor: Nr:Datum:Temp:Abs-Feuchte:Windchill:Wind:
Aussen-T/F 601 31-08-2020 02:00:00 15.6 C 11.3 g/m*3 15.6 C 0 km/h
602 31-08-2020 02:05:00 15.4 C 11.17 g/m*3 15.4 C 0 km/h
603 31-08-2020 02:10:00 15.4 C 11.3 g/m*3 15.4 C 0 km/h
604 31-08-2020 02:15:00 15.4 C 11.3 g/m*3 15.4 C 0 km/h
605 31-08-2020 02:20:00 15.4 C 11.3 g/m*3 15.4 C 0 km/h
606 31-08-2020 02:25:00 15.4 C 11.43 g/m*3 15.4 C 0 km/h
607 31-08-2020 02:30:00 15.4 C 11.43 g/m*3 15.4 C 0 km/h
608 31-08-2020 02:35:00 15.4 C 11.43 g/m*3 15.4 C 0 km/h
609 31-08-2020 02:40:00 15.5 C 11.5 g/m*3 15.5 C 0 km/h
610 31-08-2020 02:45:00 15.5 C 11.5 g/m*3 15.5 C 0 km/h
611 31-08-2020 02:50:00 15.6 C 11.57 g/m*3 15.6 C 0 km/h
612 31-08-2020 02:55:00 15.6 C 11.57 g/m*3 15.6 C 0 km/h
613 31-08-2020 03:00:00 15.5 C 11.37 g/m*3 15.5 C 0 km/h
614 31-08-2020 03:05:00 15.4 C 11.3 g/m*3 15.4 C 0 km/h
615 31-08-2020 03:10:00 15.3 C 11.23 g/m*3 15.3 C 0 km/h
616 31-08-2020 03:15:00 15.2 C 11.03 g/m*3 15.2 C 0 km/h
617 31-08-2020 03:20:00 15 C 10.9 g/m*3 15 C 0 km/h
618 31-08-2020 03:25:00 14.8 C 10.89 g/m*3 14.8 C 0 km/h
619 31-08-2020 03:30:00 14.5 C 10.7 g/m*3 14.5 C 0 km/h
620 31-08-2020 03:35:00 14.3 C 10.57 g/m*3 14.3 C 0 km/h
621 31-08-2020 03:40:00 14.2 C 10.62 g/m*3 14.2 C 0 km/h
622 31-08-2020 03:45:00 14 C 10.61 g/m*3 14 C 0 km/h
623 31-08-2020 03:50:00 13.9 C 10.55 g/m*3 13.9 C 0 km/h
624 31-08-2020 03:55:00 13.8 C 10.48 g/m*3 13.8 C 0 km/h
625 31-08-2020 04:00:00 13.8 C 10.6 g/m*3 13.8 C 0 km/h
Sensor: Nr:Datum:Temp:Abs-Feuchte:Windchill:Wind:
Aussen-T/F 626 31-08-2020 04:05:00 13.8 C 10.6 g/m*3 13.8 C 0 km/h
627 31-08-2020 04:10:00 13.8 C 10.72 g/m*3 13.8 C 0 km/h
628 31-08-2020 04:15:00 13.8 C 10.72 g/m*3 13.8 C 0 km/h
629 31-08-2020 04:20:00 13.8 C 10.72 g/m*3 13.8 C 0 km/h
630 31-08-2020 04:25:00 13.8 C 10.72 g/m*3 13.8 C 0 km/h
631 31-08-2020 04:30:00 13.8 C 10.72 g/m*3 13.8 C 0 km/h
632 31-08-2020 04:35:00 13.7 C 10.54 g/m*3 13.7 C 0 km/h
633 31-08-2020 04:40:00 13.7 C 10.54 g/m*3 13.7 C 0 km/h
634 31-08-2020 04:45:00 13.6 C 10.47 g/m*3 13.6 C 0 km/h
635 31-08-2020 04:50:00 13.6 C 10.59 g/m*3 13.6 C 0 km/h
636 31-08-2020 04:55:00 13.5 C 10.53 g/m*3 13.5 C 0 km/h
637 31-08-2020 05:00:00 13.4 C 10.46 g/m*3 13.4 C 0 km/h
638 31-08-2020 05:05:00 13.4 C 10.46 g/m*3 13.4 C 0 km/h
639 31-08-2020 05:10:00 13.3 C 10.4 g/m*3 13.3 C 0 km/h
640 31-08-2020 05:15:00 13.2 C 10.33 g/m*3 13.2 C 0 km/h
641 31-08-2020 05:20:00 13.2 C 10.33 g/m*3 13.2 C 0 km/h
642 31-08-2020 05:25:00 13.1 C 10.38 g/m*3 13.1 C 0 km/h
643 31-08-2020 05:30:00 13.2 C 10.45 g/m*3 13.2 C 0 km/h
644 31-08-2020 05:35:00 13.1 C 10.38 g/m*3 13.1 C 0 km/h
645 31-08-2020 05:40:00 13.1 C 10.38 g/m*3 13.1 C 0 km/h
646 31-08-2020 05:45:00 13.1 C 10.38 g/m*3 13.1 C 0 km/h
647 31-08-2020 05:50:00 12.9 C 10.26 g/m*3 12.9 C 0 km/h
648 31-08-2020 05:55:00 12.9 C 10.26 g/m*3 12.9 C 3.2 km/h
649 31-08-2020 06:00:00 12.9 C 10.37 g/m*3 12.9 C 3.2 km/h
650 31-08-2020 06:05:00 12.8 C 10.3 g/m*3 12.8 C 1.6 km/h
Sensor: Nr:Datum:Temp:Abs-Feuchte:Windchill:Wind:
Aussen-T/F 651 31-08-2020 06:10:00 12.8 C 10.3 g/m*3 12.8 C 0 km/h
652 31-08-2020 06:15:00 12.8 C 10.3 g/m*3 12.8 C 0 km/h
653 31-08-2020 06:20:00 12.7 C 10.24 g/m*3 12.7 C 0 km/h
654 31-08-2020 06:25:00 12.6 C 10.18 g/m*3 12.6 C 0 km/h
655 31-08-2020 06:30:00 12.6 C 10.18 g/m*3 12.6 C 0 km/h
656 31-08-2020 06:35:00 12.6 C 10.18 g/m*3 12.6 C 0 km/h
657 31-08-2020 06:40:00 12.6 C 10.29 g/m*3 12.6 C 0 km/h
658 31-08-2020 06:45:00 12.7 C 10.35 g/m*3 12.7 C 0 km/h
659 31-08-2020 06:50:00 12.7 C 10.35 g/m*3 12.7 C 0 km/h
660 31-08-2020 06:55:00 12.7 C 10.35 g/m*3 12.7 C 0 km/h
661 31-08-2020 07:00:00 12.8 C 10.42 g/m*3 12.8 C 0 km/h
662 31-08-2020 07:05:00 12.8 C 10.42 g/m*3 12.8 C 0 km/h
663 31-08-2020 07:10:00 12.9 C 10.48 g/m*3 12.9 C 0 km/h
664 31-08-2020 07:15:00 13 C 10.66 g/m*3 13 C 0 km/h
665 31-08-2020 07:20:00 13.1 C 10.73 g/m*3 13.1 C 0 km/h
666 31-08-2020 07:25:00 13.2 C 10.79 g/m*3 13.2 C 0 km/h
667 31-08-2020 07:30:00 13.3 C 10.74 g/m*3 13.3 C 0 km/h
668 31-08-2020 07:35:00 13.3 C 10.86 g/m*3 13.3 C 0 km/h
669 31-08-2020 07:40:00 13.4 C 10.81 g/m*3 13.4 C 0 km/h
670 31-08-2020 07:45:00 13.4 C 10.81 g/m*3 13.4 C 0 km/h
671 31-08-2020 07:50:00 13.5 C 10.88 g/m*3 13.5 C 0 km/h
672 31-08-2020 07:55:00 13.6 C 10.95 g/m*3 13.6 C 0 km/h
673 31-08-2020 08:00:00 13.7 C 11.01 g/m*3 13.7 C 0 km/h
674 31-08-2020 08:05:00 13.8 C 11.08 g/m*3 13.8 C 0 km/h
675 31-08-2020 08:10:00 13.8 C 11.08 g/m*3 13.8 C 0 km/h
Sensor: Nr:Datum:Temp:Abs-Feuchte:Windchill:Wind:
Aussen-T/F 676 31-08-2020 08:15:00 13.9 C 11.15 g/m*3 13.9 C 0 km/h
677 31-08-2020 08:20:00 14 C 11.22 g/m*3 14 C 0 km/h
678 31-08-2020 08:25:00 14.1 C 11.17 g/m*3 14.1 C 0 km/h
679 31-08-2020 08:30:00 14.3 C 11.3 g/m*3 14.3 C 0 km/h
680 31-08-2020 08:35:00 14.4 C 11.37 g/m*3 14.4 C 0 km/h
681 31-08-2020 08:40:00 14.5 C 11.44 g/m*3 14.5 C 0 km/h
682 31-08-2020 08:45:00 14.7 C 11.46 g/m*3 14.7 C 0 km/h
683 31-08-2020 08:50:00 14.8 C 11.4 g/m*3 14.8 C 0 km/h
684 31-08-2020 08:55:00 14.9 C 11.47 g/m*3 14.9 C 0 km/h
685 31-08-2020 09:00:00 15 C 11.54 g/m*3 15 C 0 km/h
686 31-08-2020 09:05:00 15.1 C 11.48 g/m*3 15.1 C 0 km/h
687 31-08-2020 09:10:00 15.2 C 11.55 g/m*3 15.2 C 0 km/h
688 31-08-2020 09:15:00 15.3 C 11.62 g/m*3 15.3 C 0 km/h
689 31-08-2020 09:20:00 15.4 C 11.69 g/m*3 15.4 C 0 km/h
690 31-08-2020 09:25:00 15.4 C 11.69 g/m*3 15.4 C 0 km/h
691 31-08-2020 09:30:00 15.6 C 11.84 g/m*3 15.6 C 0 km/h
692 31-08-2020 09:35:00 15.7 C 11.77 g/m*3 15.7 C 0 km/h
693 31-08-2020 09:40:00 15.8 C 11.85 g/m*3 15.8 C 1.6 km/h
694 31-08-2020 09:45:00 15.9 C 11.92 g/m*3 15.9 C 1.6 km/h
695 31-08-2020 09:50:00 16 C 11.99 g/m*3 16 C 0 km/h
696 31-08-2020 09:55:00 16.2 C 12 g/m*3 16.2 C 1.6 km/h
697 31-08-2020 10:00:00 16.2 C 12 g/m*3 16.2 C 3.2 km/h
698 31-08-2020 10:05:00 16.3 C 12.07 g/m*3 16.3 C 0 km/h
699 31-08-2020 10:10:00 16.4 C 12 g/m*3 16.4 C 0 km/h
700 31-08-2020 10:15:00 16.4 C 12 g/m*3 16.4 C 3.2 km/h
Sensor: Nr:Datum:Temp:Abs-Feuchte:Windchill:Wind:
Aussen-T/F 701 31-08-2020 10:20:00 16.5 C 12.08 g/m*3 16.5 C 0 km/h
702 31-08-2020 10:25:00 16.6 C 12.15 g/m*3 16.6 C 1.6 km/h
703 31-08-2020 10:30:00 16.6 C 12.01 g/m*3 16.6 C 9.7 km/h
704 31-08-2020 10:35:00 16.7 C 12.08 g/m*3 16.7 C 9.7 km/h
705 31-08-2020 10:40:00 16.8 C 12.01 g/m*3 16.8 C 6.4 km/h
706 31-08-2020 10:45:00 16.8 C 12.01 g/m*3 16.8 C 9.7 km/h
707 31-08-2020 10:50:00 16.9 C 12.08 g/m*3 16.9 C 6.4 km/h
708 31-08-2020 10:55:00 17 C 12.01 g/m*3 17 C 6.4 km/h
709 31-08-2020 11:00:00 17.1 C 12.08 g/m*3 17.1 C 6.4 km/h
710 31-08-2020 11:05:00 17.2 C 12.01 g/m*3 17.2 C 6.4 km/h
711 31-08-2020 11:10:00 17.3 C 12.08 g/m*3 17.3 C 4.8 km/h
712 31-08-2020 11:15:00 17.4 C 12 g/m*3 17.4 C 9.7 km/h
713 31-08-2020 11:20:00 17.4 C 12.15 g/m*3 17.4 C 6.4 km/h
714 31-08-2020 11:25:00 17.6 C 12 g/m*3 17.6 C 4.8 km/h
715 31-08-2020 11:30:00 17.7 C 12.07 g/m*3 17.7 C 9.7 km/h
716 31-08-2020 11:35:00 17.7 C 12.07 g/m*3 17.7 C 4.8 km/h
717 31-08-2020 11:40:00 17.9 C 12.06 g/m*3 17.9 C 6.4 km/h
718 31-08-2020 11:45:00 18.1 C 12.36 g/m*3 18.1 C 4.8 km/h
719 31-08-2020 11:50:00 18.4 C 12.58 g/m*3 18.4 C 3.2 km/h
720 31-08-2020 11:55:00 18.7 C 12.49 g/m*3 18.7 C 9.7 km/h
721 31-08-2020 12:00:00 18.8 C 12.56 g/m*3 18.8 C 4.8 km/h
722 31-08-2020 12:05:00 18.9 C 12.8 g/m*3 18.9 C 6.4 km/h
723 31-08-2020 12:10:00 18.9 C 12.64 g/m*3 18.9 C 6.4 km/h
724 31-08-2020 12:15:00 18.9 C 12.8 g/m*3 18.9 C 9.7 km/h
725 31-08-2020 12:20:00 18.8 C 12.56 g/m*3 18.8 C 8.1 km/h
Sensor: Nr:Datum:Temp:Abs-Feuchte:Windchill:Wind:
Aussen-T/F 726 31-08-2020 12:25:00 18.8 C 12.56 g/m*3 18.8 C 8.1 km/h
727 31-08-2020 12:30:00 18.8 C 12.56 g/m*3 18.8 C 4.8 km/h
728 31-08-2020 12:35:00 19 C 12.71 g/m*3 19 C 6.4 km/h
729 31-08-2020 12:40:00 19.2 C 12.7 g/m*3 19.2 C 8.1 km/h
730 31-08-2020 12:45:00 19.2 C 12.53 g/m*3 19.2 C 9.7 km/h
731 31-08-2020 12:50:00 19.1 C 12.46 g/m*3 19.1 C 4.8 km/h
732 31-08-2020 12:55:00 19.1 C 12.46 g/m*3 19.1 C 6.4 km/h
733 31-08-2020 13:00:00 19.1 C 12.62 g/m*3 19.1 C 6.4 km/h
734 31-08-2020 13:05:00 19.3 C 12.77 g/m*3 19.3 C 6.4 km/h
735 31-08-2020 13:10:00 19.4 C 12.68 g/m*3 19.4 C 4.8 km/h
736 31-08-2020 13:15:00 19.6 C 12.83 g/m*3 19.6 C 4.8 km/h
737 31-08-2020 13:20:00 19.7 C 12.91 g/m*3 19.7 C 6.4 km/h
738 31-08-2020 13:25:00 19.7 C 12.74 g/m*3 19.7 C 8.1 km/h
739 31-08-2020 13:30:00 19.7 C 12.57 g/m*3 19.7 C 11.3 km/h
740 31-08-2020 13:35:00 19.7 C 12.57 g/m*3 19.7 C 6.4 km/h
741 31-08-2020 13:40:00 19.6 C 12.66 g/m*3 19.6 C 6.4 km/h
742 31-08-2020 13:45:00 19.6 C 12.66 g/m*3 19.6 C 6.4 km/h
743 31-08-2020 13:50:00 19.6 C 12.66 g/m*3 19.6 C 8.1 km/h
744 31-08-2020 13:55:00 19.6 C 12.49 g/m*3 19.6 C 4.8 km/h
745 31-08-2020 14:00:00 19.6 C 12.66 g/m*3 19.6 C 4.8 km/h
746 31-08-2020 14:05:00 19.7 C 12.74 g/m*3 19.7 C 11.3 km/h
747 31-08-2020 14:10:00 19.7 C 12.74 g/m*3 19.7 C 11.3 km/h
748 31-08-2020 14:15:00 19.4 C 12.35 g/m*3 19.4 C 14.5 km/h
749 31-08-2020 14:20:00 19.1 C 12.62 g/m*3 19.1 C 14.5 km/h
750 31-08-2020 14:25:00 18.6 C 13.05 g/m*3 18.6 C 8.1 km/h
Sensor: Nr:Datum:Temp:Abs-Feuchte:Windchill:Wind:
Aussen-T/F 751 31-08-2020 14:30:00 18.2 C 13.06 g/m*3 18.2 C 4.8 km/h
752 31-08-2020 14:35:00 17.9 C 12.98 g/m*3 17.9 C 1.6 km/h
753 31-08-2020 14:40:00 17.6 C 13.05 g/m*3 17.6 C 6.4 km/h
754 31-08-2020 14:45:00 17.2 C 12.89 g/m*3 17.2 C 4.8 km/h
755 31-08-2020 14:50:00 16.9 C 12.8 g/m*3 16.9 C 4.8 km/h
756 31-08-2020 14:55:00 16.7 C 12.65 g/m*3 16.7 C 4.8 km/h
757 31-08-2020 15:00:00 16.6 C 12.71 g/m*3 16.6 C 3.2 km/h
758 31-08-2020 15:05:00 16.4 C 12.56 g/m*3 16.4 C 1.6 km/h
759 31-08-2020 15:10:00 16.3 C 12.62 g/m*3 16.3 C 3.2 km/h
760 31-08-2020 15:15:00 16.2 C 12.55 g/m*3 16.2 C 1.6 km/h
761 31-08-2020 15:20:00 16.2 C 12.55 g/m*3 16.2 C 1.6 km/h
762 31-08-2020 15:25:00 16.3 C 12.76 g/m*3 16.3 C 0 km/h
763 31-08-2020 15:30:00 16.3 C 12.76 g/m*3 16.3 C 0 km/h
764 31-08-2020 15:35:00 16.3 C 12.9 g/m*3 16.3 C 1.6 km/h
765 31-08-2020 15:40:00 16.4 C 12.98 g/m*3 16.4 C 0 km/h
766 31-08-2020 15:45:00 16.4 C 12.84 g/m*3 16.4 C 1.6 km/h
767 31-08-2020 15:50:00 16.3 C 12.76 g/m*3 16.3 C 0 km/h
768 31-08-2020 15:55:00 16.5 C 13.06 g/m*3 16.5 C 0 km/h
769 31-08-2020 16:00:00 16.6 C 13.14 g/m*3 16.6 C 0 km/h
770 31-08-2020 16:05:00 16.6 C 13.14 g/m*3 16.6 C 0 km/h
771 31-08-2020 16:10:00 16.5 C 12.92 g/m*3 16.5 C 0 km/h
772 31-08-2020 16:15:00 16.6 C 13.14 g/m*3 16.6 C 0 km/h
773 31-08-2020 16:20:00 16.8 C 13.3 g/m*3 16.8 C 0 km/h
774 31-08-2020 16:25:00 16.9 C 13.38 g/m*3 16.9 C 0 km/h
775 31-08-2020 16:30:00 16.9 C 13.23 g/m*3 16.9 C 0 km/h
Sensor: Nr:Datum:Temp:Abs-Feuchte:Windchill:Wind:
Aussen-T/F 776 31-08-2020 16:35:00 16.8 C 13.15 g/m*3 16.8 C 0 km/h
777 31-08-2020 16:40:00 16.8 C 13.15 g/m*3 16.8 C 0 km/h
778 31-08-2020 16:45:00 16.8 C 13.15 g/m*3 16.8 C 0 km/h
779 31-08-2020 16:50:00 16.8 C 13.15 g/m*3 16.8 C 0 km/h
780 31-08-2020 16:55:00 16.8 C 13.15 g/m*3 16.8 C 0 km/h
781 31-08-2020 17:00:00 16.8 C 13.15 g/m*3 16.8 C 0 km/h
782 31-08-2020 17:05:00 16.7 C 13.07 g/m*3 16.7 C 0 km/h
783 31-08-2020 17:10:00 16.6 C 13 g/m*3 16.6 C 0 km/h
784 31-08-2020 17:15:00 16.5 C 12.92 g/m*3 16.5 C 0 km/h
785 31-08-2020 17:20:00 16.4 C 12.84 g/m*3 16.4 C 0 km/h
786 31-08-2020 17:25:00 16.3 C 12.76 g/m*3 16.3 C 0 km/h
787 31-08-2020 17:30:00 16.3 C 12.9 g/m*3 16.3 C 0 km/h
788 31-08-2020 17:35:00 16.2 C 12.82 g/m*3 16.2 C 0 km/h
789 31-08-2020 17:40:00 16.3 C 12.9 g/m*3 16.3 C 0 km/h
790 31-08-2020 17:45:00 16.3 C 12.9 g/m*3 16.3 C 1.6 km/h
791 31-08-2020 17:50:00 16.2 C 12.82 g/m*3 16.2 C 3.2 km/h
792 31-08-2020 17:55:00 16.2 C 12.82 g/m*3 16.2 C 0 km/h
793 31-08-2020 18:00:00 16.2 C 12.82 g/m*3 16.2 C 0 km/h
794 31-08-2020 18:05:00 16.1 C 12.88 g/m*3 16.1 C 0 km/h
795 31-08-2020 18:10:00 16.1 C 12.75 g/m*3 16.1 C 1.6 km/h
796 31-08-2020 18:15:00 16 C 12.81 g/m*3 16 C 0 km/h
797 31-08-2020 18:20:00 16 C 12.81 g/m*3 16 C 0 km/h
798 31-08-2020 18:25:00 16 C 12.81 g/m*3 16 C 1.6 km/h
799 31-08-2020 18:30:00 16 C 12.81 g/m*3 16 C 1.6 km/h
800 31-08-2020 18:35:00 16 C 12.81 g/m*3 16 C 1.6 km/h
Sensor: Nr:Datum:Temp:Abs-Feuchte:Windchill:Wind:
Aussen-T/F 801 31-08-2020 18:40:00 16 C 12.81 g/m*3 16 C 0 km/h
802 31-08-2020 18:45:00 16 C 12.67 g/m*3 16 C 1.6 km/h
803 31-08-2020 18:50:00 15.9 C 12.59 g/m*3 15.9 C 0 km/h
804 31-08-2020 18:55:00 16 C 12.81 g/m*3 16 C 0 km/h
805 31-08-2020 19:00:00 16 C 12.81 g/m*3 16 C 1.6 km/h
806 31-08-2020 19:05:00 16 C 12.81 g/m*3 16 C 0 km/h
807 31-08-2020 19:10:00 16 C 12.81 g/m*3 16 C 1.6 km/h
808 31-08-2020 19:15:00 15.9 C 12.73 g/m*3 15.9 C 4.8 km/h
809 31-08-2020 19:20:00 15.8 C 12.52 g/m*3 15.8 C 4.8 km/h
810 31-08-2020 19:25:00 15.7 C 12.44 g/m*3 15.7 C 3.2 km/h
811 31-08-2020 19:30:00 15.5 C 12.29 g/m*3 15.5 C 3.2 km/h
812 31-08-2020 19:35:00 15.4 C 12.22 g/m*3 15.4 C 0 km/h
813 31-08-2020 19:40:00 15.3 C 12.14 g/m*3 15.3 C 3.2 km/h
814 31-08-2020 19:45:00 15.2 C 12.2 g/m*3 15.2 C 3.2 km/h
815 31-08-2020 19:50:00 15.2 C 12.2 g/m*3 15.2 C 1.6 km/h
816 31-08-2020 19:55:00 15.2 C 12.2 g/m*3 15.2 C 0 km/h
817 31-08-2020 20:00:00 15.2 C 12.2 g/m*3 15.2 C 1.6 km/h
818 31-08-2020 20:05:00 15.2 C 12.2 g/m*3 15.2 C 3.2 km/h
819 31-08-2020 20:10:00 15.1 C 12.13 g/m*3 15.1 C 3.2 km/h
820 31-08-2020 20:15:00 15.1 C 12.13 g/m*3 15.1 C 1.6 km/h
821 31-08-2020 20:20:00 14.9 C 11.98 g/m*3 14.9 C 3.2 km/h
822 31-08-2020 20:25:00 14.9 C 11.98 g/m*3 14.9 C 3.2 km/h
823 31-08-2020 20:30:00 14.8 C 11.91 g/m*3 14.8 C 4.8 km/h
824 31-08-2020 20:35:00 14.8 C 11.91 g/m*3 14.8 C 1.6 km/h
825 31-08-2020 20:40:00 14.8 C 11.91 g/m*3 14.8 C 1.6 km/h
Sensor: Nr:Datum:Temp:Abs-Feuchte:Windchill:Wind:
Aussen-T/F 826 31-08-2020 20:45:00 14.8 C 11.91 g/m*3 14.8 C 0 km/h
827 31-08-2020 20:50:00 14.7 C 11.83 g/m*3 14.7 C 1.6 km/h
828 31-08-2020 20:55:00 14.7 C 11.96 g/m*3 14.7 C 0 km/h
829 31-08-2020 21:00:00 14.7 C 11.96 g/m*3 14.7 C 0 km/h
830 31-08-2020 21:05:00 14.7 C 11.96 g/m*3 14.7 C 0 km/h
831 31-08-2020 21:10:00 14.7 C 11.96 g/m*3 14.7 C 1.6 km/h
832 31-08-2020 21:15:00 14.7 C 11.96 g/m*3 14.7 C 0 km/h
833 31-08-2020 21:20:00 14.6 C 11.89 g/m*3 14.6 C 0 km/h
834 31-08-2020 21:25:00 14.6 C 11.89 g/m*3 14.6 C 0 km/h
835 31-08-2020 21:30:00 14.6 C 11.89 g/m*3 14.6 C 1.6 km/h
836 31-08-2020 21:35:00 14.5 C 11.82 g/m*3 14.5 C 0 km/h
837 31-08-2020 21:40:00 14.5 C 11.82 g/m*3 14.5 C 0 km/h
838 31-08-2020 21:45:00 14.4 C 11.74 g/m*3 14.4 C 0 km/h
839 31-08-2020 21:50:00 14.4 C 11.74 g/m*3 14.4 C 1.6 km/h
840 31-08-2020 21:55:00 14.4 C 11.74 g/m*3 14.4 C 3.2 km/h
841 31-08-2020 22:00:00 14.4 C 11.74 g/m*3 14.4 C 3.2 km/h
842 31-08-2020 22:05:00 14.5 C 11.82 g/m*3 14.5 C 0 km/h
843 31-08-2020 22:10:00 14.5 C 11.82 g/m*3 14.5 C 0 km/h
844 31-08-2020 22:15:00 14.6 C 11.89 g/m*3 14.6 C 0 km/h
845 31-08-2020 22:20:00 14.6 C 11.89 g/m*3 14.6 C 0 km/h
846 31-08-2020 22:25:00 14.6 C 11.89 g/m*3 14.6 C 0 km/h
847 31-08-2020 22:30:00 14.6 C 11.89 g/m*3 14.6 C 0 km/h
848 31-08-2020 22:35:00 14.5 C 11.82 g/m*3 14.5 C 0 km/h
849 31-08-2020 22:40:00 14.4 C 11.74 g/m*3 14.4 C 0 km/h
850 31-08-2020 22:45:00 14.4 C 11.87 g/m*3 14.4 C 1.6 km/h
Sensor: Nr:Datum:Temp:Abs-Feuchte:Windchill:Wind:
Aussen-T/F 851 31-08-2020 22:50:00 14.4 C 11.87 g/m*3 14.4 C 0 km/h
852 31-08-2020 22:55:00 14.4 C 11.87 g/m*3 14.4 C 0 km/h
853 31-08-2020 23:00:00 14.4 C 11.87 g/m*3 14.4 C 0 km/h
854 31-08-2020 23:05:00 14.5 C 11.94 g/m*3 14.5 C 0 km/h
855 31-08-2020 23:10:00 14.6 C 12.01 g/m*3 14.6 C 1.6 km/h
856 31-08-2020 23:15:00 14.6 C 12.01 g/m*3 14.6 C 0 km/h
857 31-08-2020 23:20:00 14.6 C 12.01 g/m*3 14.6 C 0 km/h
858 31-08-2020 23:25:00 14.5 C 11.94 g/m*3 14.5 C 0 km/h
859 31-08-2020 23:30:00 14.5 C 11.94 g/m*3 14.5 C 0 km/h
860 31-08-2020 23:35:00 14.4 C 11.87 g/m*3 14.4 C 0 km/h
861 31-08-2020 23:40:00 14.4 C 11.87 g/m*3 14.4 C 1.6 km/h
862 31-08-2020 23:45:00 14.4 C 11.87 g/m*3 14.4 C 1.6 km/h
863 31-08-2020 23:50:00 14.3 C 11.79 g/m*3 14.3 C 1.6 km/h
864 31-08-2020 23:55:00 14.3 C 11.79 g/m*3 14.3 C 0 km/h
865 01-09-2020 00:00:00 14.3 C 11.79 g/m*3 14.3 C 0 km/h
866 01-09-2020 00:05:00 14.2 C 11.72 g/m*3 14.2 C 0 km/h
867 01-09-2020 00:10:00 14.2 C 11.72 g/m*3 14.2 C 0 km/h
868 01-09-2020 00:15:00 14.2 C 11.72 g/m*3 14.2 C 0 km/h
869 01-09-2020 00:20:00 14.2 C 11.72 g/m*3 14.2 C 1.6 km/h
870 01-09-2020 00:25:00 14.1 C 11.65 g/m*3 14.1 C 1.6 km/h
871 01-09-2020 00:30:00 14.1 C 11.65 g/m*3 14.1 C 0 km/h
872 01-09-2020 00:35:00 14.1 C 11.65 g/m*3 14.1 C 0 km/h
873 01-09-2020 00:40:00 14.1 C 11.65 g/m*3 14.1 C 0 km/h
874 01-09-2020 00:45:00 14.1 C 11.65 g/m*3 14.1 C 0 km/h
875 01-09-2020 00:50:00 14.1 C 11.65 g/m*3 14.1 C 0 km/h
Sensor: Nr:Datum:Temp:Abs-Feuchte:Windchill:Wind:
Aussen-T/F 876 01-09-2020 00:55:00 14.1 C 11.65 g/m*3 14.1 C 0 km/h
877 01-09-2020 01:00:00 14.1 C 11.65 g/m*3 14.1 C 0 km/h
878 01-09-2020 01:05:00 14.1 C 11.65 g/m*3 14.1 C 0 km/h
879 01-09-2020 01:10:00 14.1 C 11.65 g/m*3 14.1 C 0 km/h
880 01-09-2020 01:15:00 14.1 C 11.65 g/m*3 14.1 C 0 km/h
881 01-09-2020 01:20:00 14.1 C 11.65 g/m*3 14.1 C 0 km/h
882 01-09-2020 01:25:00 14.1 C 11.65 g/m*3 14.1 C 0 km/h
883 01-09-2020 01:30:00 14.1 C 11.65 g/m*3 14.1 C 0 km/h
884 01-09-2020 01:35:00 14.1 C 11.65 g/m*3 14.1 C 0 km/h
885 01-09-2020 01:40:00 14.1 C 11.65 g/m*3 14.1 C 0 km/h
886 01-09-2020 01:45:00 14 C 11.58 g/m*3 14 C 0 km/h
887 01-09-2020 01:50:00 14 C 11.58 g/m*3 14 C 0 km/h
888 01-09-2020 01:55:00 13.9 C 11.51 g/m*3 13.9 C 0 km/h
889 01-09-2020 02:00:00 13.9 C 11.51 g/m*3 13.9 C 0 km/h
890 01-09-2020 02:05:00 13.9 C 11.51 g/m*3 13.9 C 0 km/h
891 01-09-2020 02:10:00 13.9 C 11.51 g/m*3 13.9 C 0 km/h
892 01-09-2020 02:15:00 13.9 C 11.51 g/m*3 13.9 C 0 km/h
893 01-09-2020 02:20:00 13.8 C 11.44 g/m*3 13.8 C 0 km/h
894 01-09-2020 02:25:00 13.8 C 11.44 g/m*3 13.8 C 1.6 km/h
895 01-09-2020 02:30:00 13.7 C 11.37 g/m*3 13.7 C 3.2 km/h
896 01-09-2020 02:35:00 13.6 C 11.3 g/m*3 13.6 C 0 km/h
897 01-09-2020 02:40:00 13.6 C 11.3 g/m*3 13.6 C 0 km/h
898 01-09-2020 02:45:00 13.4 C 11.16 g/m*3 13.4 C 0 km/h
899 01-09-2020 02:50:00 13.3 C 11.09 g/m*3 13.3 C 1.6 km/h
900 01-09-2020 02:55:00 13.2 C 11.02 g/m*3 13.2 C 1.6 km/h
Sensor: Nr:Datum:Temp:Abs-Feuchte:Windchill:Wind:
Aussen-T/F 901 01-09-2020 03:00:00 13.1 C 10.95 g/m*3 13.1 C 1.6 km/h
902 01-09-2020 03:05:00 13 C 10.89 g/m*3 13 C 3.2 km/h
903 01-09-2020 03:10:00 13 C 10.89 g/m*3 13 C 0 km/h
904 01-09-2020 03:15:00 13.1 C 10.95 g/m*3 13.1 C 1.6 km/h
905 01-09-2020 03:20:00 13.1 C 10.95 g/m*3 13.1 C 1.6 km/h
906 01-09-2020 03:25:00 13.1 C 10.95 g/m*3 13.1 C 3.2 km/h
907 01-09-2020 03:30:00 13.2 C 11.02 g/m*3 13.2 C 4.8 km/h
908 01-09-2020 03:35:00 13.2 C 11.02 g/m*3 13.2 C 3.2 km/h
909 01-09-2020 03:40:00 13.2 C 11.02 g/m*3 13.2 C 1.6 km/h
910 01-09-2020 03:45:00 13.2 C 11.02 g/m*3 13.2 C 3.2 km/h
911 01-09-2020 03:50:00 13.2 C 11.02 g/m*3 13.2 C 3.2 km/h
912 01-09-2020 03:55:00 13.1 C 10.95 g/m*3 13.1 C 1.6 km/h
913 01-09-2020 04:00:00 13.1 C 10.95 g/m*3 13.1 C 1.6 km/h
914 01-09-2020 04:05:00 13.1 C 10.95 g/m*3 13.1 C 0 km/h
915 01-09-2020 04:10:00 13.1 C 10.95 g/m*3 13.1 C 0 km/h
916 01-09-2020 04:15:00 13.1 C 10.95 g/m*3 13.1 C 0 km/h
917 01-09-2020 04:20:00 13 C 10.89 g/m*3 13 C 0 km/h
918 01-09-2020 04:25:00 12.9 C 10.82 g/m*3 12.9 C 0 km/h
919 01-09-2020 04:30:00 12.9 C 10.82 g/m*3 12.9 C 0 km/h
920 01-09-2020 04:35:00 12.9 C 10.82 g/m*3 12.9 C 4.8 km/h
921 01-09-2020 04:40:00 12.8 C 10.75 g/m*3 12.8 C 4.8 km/h
922 01-09-2020 04:45:00 12.8 C 10.75 g/m*3 12.8 C 3.2 km/h
923 01-09-2020 04:50:00 12.8 C 10.75 g/m*3 12.8 C 0 km/h
924 01-09-2020 04:55:00 12.8 C 10.87 g/m*3 12.8 C 1.6 km/h
925 01-09-2020 05:00:00 12.8 C 10.87 g/m*3 12.8 C 1.6 km/h
Sensor: Nr:Datum:Temp:Abs-Feuchte:Windchill:Wind:
Aussen-T/F 926 01-09-2020 05:05:00 12.8 C 10.87 g/m*3 12.8 C 1.6 km/h
927 01-09-2020 05:10:00 12.7 C 10.8 g/m*3 12.7 C 3.2 km/h
928 01-09-2020 05:15:00 12.7 C 10.8 g/m*3 12.7 C 1.6 km/h
929 01-09-2020 05:20:00 12.7 C 10.69 g/m*3 12.7 C 4.8 km/h
930 01-09-2020 05:25:00 12.6 C 10.62 g/m*3 12.6 C 3.2 km/h
931 01-09-2020 05:30:00 12.6 C 10.62 g/m*3 12.6 C 3.2 km/h
932 01-09-2020 05:35:00 12.5 C 10.55 g/m*3 12.5 C 0 km/h
933 01-09-2020 05:40:00 12.4 C 10.49 g/m*3 12.4 C 1.6 km/h
934 01-09-2020 05:45:00 12.3 C 10.42 g/m*3 12.3 C 3.2 km/h
935 01-09-2020 05:50:00 12.3 C 10.42 g/m*3 12.3 C 3.2 km/h
936 01-09-2020 05:55:00 12.3 C 10.42 g/m*3 12.3 C 4.8 km/h
937 01-09-2020 06:00:00 12.3 C 10.42 g/m*3 12.3 C 1.6 km/h
938 01-09-2020 06:05:00 12.2 C 10.36 g/m*3 12.2 C 4.8 km/h
939 01-09-2020 06:10:00 12.2 C 10.36 g/m*3 12.2 C 4.8 km/h
940 01-09-2020 06:15:00 12.2 C 10.47 g/m*3 12.2 C 4.8 km/h
941 01-09-2020 06:20:00 12.1 C 10.4 g/m*3 12.1 C 4.8 km/h
942 01-09-2020 06:25:00 12.1 C 10.4 g/m*3 12.1 C 4.8 km/h
943 01-09-2020 06:30:00 12.1 C 10.4 g/m*3 12.1 C 0 km/h
944 01-09-2020 06:35:00 12.1 C 10.4 g/m*3 12.1 C 0 km/h
945 01-09-2020 06:40:00 12.1 C 10.4 g/m*3 12.1 C 0 km/h
946 01-09-2020 06:45:00 12.1 C 10.4 g/m*3 12.1 C 0 km/h
947 01-09-2020 06:50:00 12.1 C 10.4 g/m*3 12.1 C 0 km/h
948 01-09-2020 06:55:00 12.1 C 10.4 g/m*3 12.1 C 0 km/h
949 01-09-2020 07:00:00 12.2 C 10.47 g/m*3 12.2 C 0 km/h
950 01-09-2020 07:05:00 12.3 C 10.53 g/m*3 12.3 C 0 km/h
Sensor: Nr:Datum:Temp:Abs-Feuchte:Windchill:Wind:
Aussen-T/F 951 01-09-2020 07:10:00 12.4 C 10.6 g/m*3 12.4 C 0 km/h
952 01-09-2020 07:15:00 12.4 C 10.6 g/m*3 12.4 C 0 km/h
953 01-09-2020 07:20:00 12.4 C 10.6 g/m*3 12.4 C 0 km/h
954 01-09-2020 07:25:00 12.5 C 10.66 g/m*3 12.5 C 0 km/h
955 01-09-2020 07:30:00 12.5 C 10.66 g/m*3 12.5 C 0 km/h
956 01-09-2020 07:35:00 12.6 C 10.73 g/m*3 12.6 C 0 km/h
957 01-09-2020 07:40:00 12.6 C 10.73 g/m*3 12.6 C 0 km/h
958 01-09-2020 07:45:00 12.7 C 10.8 g/m*3 12.7 C 0 km/h
959 01-09-2020 07:50:00 12.7 C 10.8 g/m*3 12.7 C 0 km/h
960 01-09-2020 07:55:00 12.8 C 10.87 g/m*3 12.8 C 0 km/h
961 01-09-2020 08:00:00 12.9 C 10.93 g/m*3 12.9 C 0 km/h
962 01-09-2020 08:05:00 13 C 11 g/m*3 13 C 0 km/h
963 01-09-2020 08:10:00 13.1 C 11.07 g/m*3 13.1 C 0 km/h
964 01-09-2020 08:15:00 13.2 C 11.14 g/m*3 13.2 C 0 km/h
965 01-09-2020 08:20:00 13.3 C 11.21 g/m*3 13.3 C 0 km/h
966 01-09-2020 08:25:00 13.3 C 11.21 g/m*3 13.3 C 0 km/h
967 01-09-2020 08:30:00 13.5 C 11.35 g/m*3 13.5 C 0 km/h
968 01-09-2020 08:35:00 13.6 C 11.42 g/m*3 13.6 C 0 km/h
969 01-09-2020 08:40:00 13.7 C 11.49 g/m*3 13.7 C 0 km/h
970 01-09-2020 08:45:00 13.7 C 11.49 g/m*3 13.7 C 0 km/h
971 01-09-2020 08:50:00 13.8 C 11.56 g/m*3 13.8 C 0 km/h
972 01-09-2020 08:55:00 13.8 C 11.56 g/m*3 13.8 C 0 km/h
973 01-09-2020 09:00:00 13.7 C 11.49 g/m*3 13.7 C 0 km/h
974 01-09-2020 09:05:00 13.7 C 11.49 g/m*3 13.7 C 0 km/h
975 01-09-2020 09:10:00 13.7 C 11.49 g/m*3 13.7 C 0 km/h
Sensor: Nr:Datum:Temp:Abs-Feuchte:Windchill:Wind:
Aussen-T/F 976 01-09-2020 09:15:00 13.8 C 11.56 g/m*3 13.8 C 0 km/h
977 01-09-2020 09:20:00 13.8 C 11.56 g/m*3 13.8 C 0 km/h
978 01-09-2020 09:25:00 13.9 C 11.63 g/m*3 13.9 C 0 km/h
979 01-09-2020 09:30:00 13.9 C 11.63 g/m*3 13.9 C 0 km/h
980 01-09-2020 09:35:00 13.8 C 11.56 g/m*3 13.8 C 0 km/h
981 01-09-2020 09:40:00 13.9 C 11.63 g/m*3 13.9 C 0 km/h
982 01-09-2020 09:45:00 14 C 11.7 g/m*3 14 C 0 km/h
983 01-09-2020 09:50:00 14.1 C 11.77 g/m*3 14.1 C 0 km/h
984 01-09-2020 09:55:00 14.2 C 11.84 g/m*3 14.2 C 0 km/h
985 01-09-2020 10:00:00 14.3 C 11.92 g/m*3 14.3 C 0 km/h
986 01-09-2020 10:05:00 14.3 C 11.92 g/m*3 14.3 C 0 km/h
987 01-09-2020 10:10:00 14.3 C 11.92 g/m*3 14.3 C 0 km/h
988 01-09-2020 10:15:00 14.1 C 11.77 g/m*3 14.1 C 6.4 km/h
989 01-09-2020 10:20:00 14.1 C 11.77 g/m*3 14.1 C 1.6 km/h
990 01-09-2020 10:25:00 14.1 C 11.77 g/m*3 14.1 C 0 km/h
991 01-09-2020 10:30:00 14.2 C 11.84 g/m*3 14.2 C 0 km/h
992 01-09-2020 10:35:00 14.2 C 11.84 g/m*3 14.2 C 1.6 km/h
993 01-09-2020 10:40:00 14.3 C 11.92 g/m*3 14.3 C 3.2 km/h
994 01-09-2020 10:45:00 14.3 C 11.79 g/m*3 14.3 C 1.6 km/h
995 01-09-2020 10:50:00 14.4 C 11.87 g/m*3 14.4 C 1.6 km/h
996 01-09-2020 10:55:00 14.6 C 12.01 g/m*3 14.6 C 0 km/h
997 01-09-2020 11:00:00 14.8 C 12.16 g/m*3 14.8 C 0 km/h
998 01-09-2020 11:05:00 14.8 C 12.16 g/m*3 14.8 C 0 km/h
999 01-09-2020 11:10:00 14.9 C 12.24 g/m*3 14.9 C 3.2 km/h
1000 01-09-2020 11:15:00 14.9 C 12.11 g/m*3 14.9 C 1.6 km/h
Sensor: Nr:Datum:Temp:Abs-Feuchte:Windchill:Wind:
Aussen-T/F 1001 01-09-2020 11:20:00 15.1 C 12.13 g/m*3 15.1 C 0 km/h
1002 01-09-2020 11:25:00 15.2 C 12.07 g/m*3 15.2 C 4.8 km/h
1003 01-09-2020 11:30:00 15.3 C 12.14 g/m*3 15.3 C 3.2 km/h
1004 01-09-2020 11:35:00 15.5 C 12.16 g/m*3 15.5 C 1.6 km/h
1005 01-09-2020 11:40:00 15.7 C 12.18 g/m*3 15.7 C 4.8 km/h
1006 01-09-2020 11:45:00 15.9 C 12.19 g/m*3 15.9 C 4.8 km/h
1007 01-09-2020 11:50:00 16.1 C 12.2 g/m*3 16.1 C 1.6 km/h
1008 01-09-2020 11:55:00 16.1 C 11.93 g/m*3 16.1 C 0 km/h
1009 01-09-2020 12:00:00 16.2 C 12 g/m*3 16.2 C 0 km/h
1010 01-09-2020 12:05:00 16.4 C 12.28 g/m*3 16.4 C 1.6 km/h
1011 01-09-2020 12:10:00 16.6 C 12.57 g/m*3 16.6 C 3.2 km/h
1012 01-09-2020 12:15:00 16.8 C 12.58 g/m*3 16.8 C 1.6 km/h
1013 01-09-2020 12:20:00 16.9 C 12.8 g/m*3 16.9 C 0 km/h
1014 01-09-2020 12:25:00 16.9 C 12.51 g/m*3 16.9 C 3.2 km/h
1015 01-09-2020 12:30:00 17 C 12.3 g/m*3 17 C 3.2 km/h
1016 01-09-2020 12:35:00 17.2 C 12.3 g/m*3 17.2 C 4.8 km/h
1017 01-09-2020 12:40:00 17.3 C 12.23 g/m*3 17.3 C 1.6 km/h
1018 01-09-2020 12:45:00 17.4 C 12.15 g/m*3 17.4 C 0 km/h
1019 01-09-2020 12:50:00 17.6 C 12.3 g/m*3 17.6 C 0 km/h
1020 01-09-2020 12:55:00 17.7 C 12.22 g/m*3 17.7 C 0 km/h
1021 01-09-2020 13:00:00 17.8 C 11.99 g/m*3 17.8 C 4.8 km/h
1022 01-09-2020 13:05:00 17.9 C 12.21 g/m*3 17.9 C 3.2 km/h
1023 01-09-2020 13:10:00 18 C 12.13 g/m*3 18 C 3.2 km/h
1024 01-09-2020 13:15:00 18.1 C 11.9 g/m*3 18.1 C 4.8 km/h
1025 01-09-2020 13:20:00 18.2 C 11.81 g/m*3 18.2 C 9.7 km/h
Sensor: Nr:Datum:Temp:Abs-Feuchte:Windchill:Wind:
Aussen-T/F 1026 01-09-2020 13:25:00 18.4 C 11.8 g/m*3 18.4 C 1.6 km/h
1027 01-09-2020 13:30:00 18.6 C 11.62 g/m*3 18.6 C 11.3 km/h
1028 01-09-2020 13:35:00 18.8 C 11.6 g/m*3 18.8 C 8.1 km/h
1029 01-09-2020 13:40:00 18.9 C 11.18 g/m*3 18.9 C 9.7 km/h
1030 01-09-2020 13:45:00 19.1 C 11.15 g/m*3 19.1 C 9.7 km/h
1031 01-09-2020 13:50:00 19.2 C 10.55 g/m*3 19.2 C 8.1 km/h
1032 01-09-2020 13:55:00 19.3 C 10.62 g/m*3 19.3 C 8.1 km/h
1033 01-09-2020 14:00:00 19.3 C 10.78 g/m*3 19.3 C 11.3 km/h
1034 01-09-2020 14:05:00 19.3 C 10.78 g/m*3 19.3 C 9.7 km/h
1035 01-09-2020 14:10:00 19.4 C 10.68 g/m*3 19.4 C 8.1 km/h
1036 01-09-2020 14:15:00 19.4 C 10.84 g/m*3 19.4 C 8.1 km/h
1037 01-09-2020 14:20:00 19.3 C 10.78 g/m*3 19.3 C 8.1 km/h
1038 01-09-2020 14:25:00 19.2 C 10.88 g/m*3 19.2 C 1.6 km/h
1039 01-09-2020 14:30:00 19.3 C 11.11 g/m*3 19.3 C 6.4 km/h
1040 01-09-2020 14:35:00 19.4 C 11.01 g/m*3 19.4 C 14.5 km/h
1041 01-09-2020 14:40:00 19.6 C 10.64 g/m*3 19.6 C 11.3 km/h
1042 01-09-2020 14:45:00 19.7 C 11.04 g/m*3 19.7 C 4.8 km/h
1043 01-09-2020 14:50:00 19.8 C 10.59 g/m*3 19.8 C 8.1 km/h
1044 01-09-2020 14:55:00 19.8 C 10.08 g/m*3 19.8 C 9.7 km/h
1045 01-09-2020 15:00:00 19.7 C 10.02 g/m*3 19.7 C 1.6 km/h
1046 01-09-2020 15:05:00 19.7 C 10.02 g/m*3 19.7 C 3.2 km/h
1047 01-09-2020 15:10:00 19.8 C 9.91 g/m*3 19.8 C 8.1 km/h
1048 01-09-2020 15:15:00 19.8 C 10.25 g/m*3 19.8 C 6.4 km/h
1049 01-09-2020 15:20:00 19.8 C 10.08 g/m*3 19.8 C 8.1 km/h
1050 01-09-2020 15:25:00 19.9 C 10.65 g/m*3 19.9 C 3.2 km/h
Sensor: Nr:Datum:Temp:Abs-Feuchte:Windchill:Wind:
Aussen-T/F 1051 01-09-2020 15:30:00 19.9 C 10.48 g/m*3 19.9 C 4.8 km/h
1052 01-09-2020 15:35:00 20.1 C 10.78 g/m*3 20.1 C 8.1 km/h
1053 01-09-2020 15:40:00 20.3 C 10.9 g/m*3 20.3 C 0 km/h
1054 01-09-2020 15:45:00 20.4 C 10.79 g/m*3 20.4 C 4.8 km/h
1055 01-09-2020 15:50:00 20.3 C 10.73 g/m*3 20.3 C 1.6 km/h
1056 01-09-2020 15:55:00 20.2 C 10.67 g/m*3 20.2 C 8.1 km/h
1057 01-09-2020 16:00:00 19.9 C 11.34 g/m*3 19.9 C 3.2 km/h
1058 01-09-2020 16:05:00 19.7 C 11.72 g/m*3 19.7 C 0 km/h
1059 01-09-2020 16:10:00 19.5 C 11.41 g/m*3 19.5 C 9.7 km/h
1060 01-09-2020 16:15:00 19.1 C 11.8 g/m*3 19.1 C 4.8 km/h
1061 01-09-2020 16:20:00 18.8 C 11.92 g/m*3 18.8 C 3.2 km/h
1062 01-09-2020 16:25:00 18.7 C 12.65 g/m*3 18.7 C 0 km/h
1063 01-09-2020 16:30:00 18.6 C 13.05 g/m*3 18.6 C 0 km/h
1064 01-09-2020 16:35:00 18.2 C 11.66 g/m*3 18.2 C 6.4 km/h
1065 01-09-2020 16:40:00 17.9 C 11.3 g/m*3 17.9 C 8.1 km/h
1066 01-09-2020 16:45:00 17.8 C 11.69 g/m*3 17.8 C 8.1 km/h
1067 01-09-2020 16:50:00 17.6 C 11.4 g/m*3 17.6 C 12.9 km/h
1068 01-09-2020 16:55:00 17.5 C 11.48 g/m*3 17.5 C 11.3 km/h
1069 01-09-2020 17:00:00 17.4 C 11.41 g/m*3 17.4 C 9.7 km/h
1070 01-09-2020 17:05:00 17.3 C 11.34 g/m*3 17.3 C 8.1 km/h
1071 01-09-2020 17:10:00 17.3 C 11.34 g/m*3 17.3 C 11.3 km/h
1072 01-09-2020 17:15:00 17.3 C 11.49 g/m*3 17.3 C 4.8 km/h
1073 01-09-2020 17:20:00 17.2 C 11.42 g/m*3 17.2 C 8.1 km/h
1074 01-09-2020 17:25:00 17.2 C 11.42 g/m*3 17.2 C 3.2 km/h
1075 01-09-2020 17:30:00 17.2 C 11.72 g/m*3 17.2 C 1.6 km/h
Sensor: Nr:Datum:Temp:Abs-Feuchte:Windchill:Wind:
Aussen-T/F 1076 01-09-2020 17:35:00 17.2 C 11.72 g/m*3 17.2 C 4.8 km/h
1077 01-09-2020 17:40:00 17.1 C 11.79 g/m*3 17.1 C 0 km/h
1078 01-09-2020 17:45:00 17.1 C 11.94 g/m*3 17.1 C 0 km/h
1079 01-09-2020 17:50:00 17 C 11.87 g/m*3 17 C 0 km/h
1080 01-09-2020 17:55:00 16.9 C 11.94 g/m*3 16.9 C 1.6 km/h
1081 01-09-2020 18:00:00 16.9 C 12.08 g/m*3 16.9 C 0 km/h
1082 01-09-2020 18:05:00 16.8 C 12.01 g/m*3 16.8 C 0 km/h
1083 01-09-2020 18:10:00 16.7 C 11.8 g/m*3 16.7 C 0 km/h
1084 01-09-2020 18:15:00 16.6 C 11.72 g/m*3 16.6 C 0 km/h
1085 01-09-2020 18:20:00 16.4 C 11.86 g/m*3 16.4 C 0 km/h
1086 01-09-2020 18:25:00 16.4 C 11.86 g/m*3 16.4 C 0 km/h
1087 01-09-2020 18:30:00 16.3 C 11.79 g/m*3 16.3 C 0 km/h
1088 01-09-2020 18:35:00 16.2 C 11.58 g/m*3 16.2 C 0 km/h
1089 01-09-2020 18:40:00 16.2 C 11.72 g/m*3 16.2 C 1.6 km/h
1090 01-09-2020 18:45:00 16.1 C 11.65 g/m*3 16.1 C 3.2 km/h
1091 01-09-2020 18:50:00 16 C 11.58 g/m*3 16 C 3.2 km/h
1092 01-09-2020 18:55:00 15.9 C 11.51 g/m*3 15.9 C 1.6 km/h
1093 01-09-2020 19:00:00 15.9 C 11.51 g/m*3 15.9 C 1.6 km/h
1094 01-09-2020 19:05:00 15.9 C 11.78 g/m*3 15.9 C 0 km/h
1095 01-09-2020 19:10:00 16.1 C 11.93 g/m*3 16.1 C 1.6 km/h
1096 01-09-2020 19:15:00 16.3 C 11.93 g/m*3 16.3 C 4.8 km/h
1097 01-09-2020 19:20:00 16.5 C 12.08 g/m*3 16.5 C 3.2 km/h
1098 01-09-2020 19:25:00 16.7 C 12.08 g/m*3 16.7 C 1.6 km/h
1099 01-09-2020 19:30:00 16.8 C 12.15 g/m*3 16.8 C 1.6 km/h
1100 01-09-2020 19:35:00 16.8 C 12.15 g/m*3 16.8 C 3.2 km/h
Sensor: Nr:Datum:Temp:Abs-Feuchte:Windchill:Wind:
Aussen-T/F 1101 01-09-2020 19:40:00 16.8 C 12.15 g/m*3 16.8 C 0 km/h
1102 01-09-2020 19:45:00 16.8 C 12.15 g/m*3 16.8 C 0 km/h
1103 01-09-2020 19:50:00 16.8 C 12.15 g/m*3 16.8 C 0 km/h
1104 01-09-2020 19:55:00 16.6 C 11.87 g/m*3 16.6 C 0 km/h
1105 01-09-2020 20:00:00 16.4 C 11.72 g/m*3 16.4 C 1.6 km/h
1106 01-09-2020 20:05:00 16.2 C 11.58 g/m*3 16.2 C 0 km/h
1107 01-09-2020 20:10:00 15.9 C 11.38 g/m*3 15.9 C 3.2 km/h
1108 01-09-2020 20:15:00 15.6 C 11.17 g/m*3 15.6 C 4.8 km/h
1109 01-09-2020 20:20:00 15.4 C 11.17 g/m*3 15.4 C 3.2 km/h
1110 01-09-2020 20:25:00 15.2 C 11.16 g/m*3 15.2 C 3.2 km/h
1111 01-09-2020 20:30:00 15.1 C 11.09 g/m*3 15.1 C 3.2 km/h
1112 01-09-2020 20:35:00 14.9 C 11.09 g/m*3 14.9 C 1.6 km/h
1113 01-09-2020 20:40:00 14.8 C 11.02 g/m*3 14.8 C 3.2 km/h
1114 01-09-2020 20:45:00 14.7 C 10.83 g/m*3 14.7 C 4.8 km/h
1115 01-09-2020 20:50:00 14.6 C 10.89 g/m*3 14.6 C 0 km/h
1116 01-09-2020 20:55:00 14.4 C 10.75 g/m*3 14.4 C 1.6 km/h
1117 01-09-2020 21:00:00 14.3 C 10.81 g/m*3 14.3 C 4.8 km/h
1118 01-09-2020 21:05:00 14.3 C 10.81 g/m*3 14.3 C 4.8 km/h
1119 01-09-2020 21:10:00 14.2 C 10.75 g/m*3 14.2 C 1.6 km/h
1120 01-09-2020 21:15:00 14.2 C 10.75 g/m*3 14.2 C 1.6 km/h
1121 01-09-2020 21:20:00 14.2 C 10.87 g/m*3 14.2 C 3.2 km/h
1122 01-09-2020 21:25:00 14.2 C 10.87 g/m*3 14.2 C 3.2 km/h
1123 01-09-2020 21:30:00 14.1 C 10.8 g/m*3 14.1 C 0 km/h
1124 01-09-2020 21:35:00 14.1 C 10.8 g/m*3 14.1 C 1.6 km/h
1125 01-09-2020 21:40:00 14.1 C 10.8 g/m*3 14.1 C 3.2 km/h
Sensor: Nr:Datum:Temp:Abs-Feuchte:Windchill:Wind:
Aussen-T/F 1126 01-09-2020 21:45:00 14 C 10.74 g/m*3 14 C 0 km/h
1127 01-09-2020 21:50:00 14 C 10.74 g/m*3 14 C 0 km/h
1128 01-09-2020 21:55:00 14.1 C 10.92 g/m*3 14.1 C 0 km/h
1129 01-09-2020 22:00:00 14.1 C 10.92 g/m*3 14.1 C 0 km/h
1130 01-09-2020 22:05:00 14.1 C 10.92 g/m*3 14.1 C 0 km/h
1131 01-09-2020 22:10:00 13.9 C 10.79 g/m*3 13.9 C 0 km/h
1132 01-09-2020 22:15:00 13.9 C 10.79 g/m*3 13.9 C 0 km/h
1133 01-09-2020 22:20:00 13.8 C 10.72 g/m*3 13.8 C 0 km/h
1134 01-09-2020 22:25:00 13.8 C 10.72 g/m*3 13.8 C 0 km/h
1135 01-09-2020 22:30:00 13.7 C 10.66 g/m*3 13.7 C 0 km/h
1136 01-09-2020 22:35:00 13.6 C 10.59 g/m*3 13.6 C 0 km/h
1137 01-09-2020 22:40:00 13.5 C 10.53 g/m*3 13.5 C 0 km/h
1138 01-09-2020 22:45:00 13.4 C 10.46 g/m*3 13.4 C 0 km/h
1139 01-09-2020 22:50:00 13.3 C 10.51 g/m*3 13.3 C 1.6 km/h
1140 01-09-2020 22:55:00 13.3 C 10.51 g/m*3 13.3 C 1.6 km/h
1141 01-09-2020 23:00:00 13.3 C 10.51 g/m*3 13.3 C 0 km/h
1142 01-09-2020 23:05:00 13.3 C 10.51 g/m*3 13.3 C 0 km/h
1143 01-09-2020 23:10:00 13.3 C 10.51 g/m*3 13.3 C 0 km/h
1144 01-09-2020 23:15:00 13.3 C 10.63 g/m*3 13.3 C 0 km/h
1145 01-09-2020 23:20:00 13.3 C 10.63 g/m*3 13.3 C 0 km/h
1146 01-09-2020 23:25:00 13.3 C 10.63 g/m*3 13.3 C 0 km/h
1147 01-09-2020 23:30:00 13.3 C 10.63 g/m*3 13.3 C 0 km/h
1148 01-09-2020 23:35:00 13.3 C 10.63 g/m*3 13.3 C 0 km/h
1149 01-09-2020 23:40:00 13.3 C 10.63 g/m*3 13.3 C 0 km/h
1150 01-09-2020 23:45:00 13.3 C 10.63 g/m*3 13.3 C 0 km/h
Sensor: Nr:Datum:Temp:Abs-Feuchte:Windchill:Wind:
Aussen-T/F 1151 01-09-2020 23:50:00 13.3 C 10.63 g/m*3 13.3 C 0 km/h
1152 01-09-2020 23:55:00 13.4 C 10.69 g/m*3 13.4 C 0 km/h
1153 02-09-2020 00:00:00 13.4 C 10.69 g/m*3 13.4 C 0 km/h
1154 02-09-2020 00:05:00 13.3 C 10.63 g/m*3 13.3 C 0 km/h
1155 02-09-2020 00:10:00 13.3 C 10.63 g/m*3 13.3 C 0 km/h
1156 02-09-2020 00:15:00 13.3 C 10.74 g/m*3 13.3 C 0 km/h
1157 02-09-2020 00:20:00 13.3 C 10.74 g/m*3 13.3 C 0 km/h
1158 02-09-2020 00:25:00 13.3 C 10.74 g/m*3 13.3 C 0 km/h
1159 02-09-2020 00:30:00 13.3 C 10.74 g/m*3 13.3 C 0 km/h
1160 02-09-2020 00:35:00 13.3 C 10.74 g/m*3 13.3 C 0 km/h
1161 02-09-2020 00:40:00 13.3 C 10.74 g/m*3 13.3 C 0 km/h
1162 02-09-2020 00:45:00 13.3 C 10.74 g/m*3 13.3 C 0 km/h
1163 02-09-2020 00:50:00 13.3 C 10.74 g/m*3 13.3 C 0 km/h
1164 02-09-2020 00:55:00 13.3 C 10.74 g/m*3 13.3 C 0 km/h
1165 02-09-2020 01:00:00 13.2 C 10.68 g/m*3 13.2 C 0 km/h
1166 02-09-2020 01:05:00 13.3 C 10.74 g/m*3 13.3 C 1.6 km/h
1167 02-09-2020 01:10:00 13.3 C 10.74 g/m*3 13.3 C 0 km/h
1168 02-09-2020 01:15:00 13.2 C 10.68 g/m*3 13.2 C 0 km/h
1169 02-09-2020 01:20:00 13.2 C 10.68 g/m*3 13.2 C 0 km/h
1170 02-09-2020 01:25:00 13.2 C 10.68 g/m*3 13.2 C 0 km/h
1171 02-09-2020 01:30:00 13.2 C 10.68 g/m*3 13.2 C 0 km/h
1172 02-09-2020 01:35:00 13.2 C 10.68 g/m*3 13.2 C 0 km/h
1173 02-09-2020 01:40:00 13.2 C 10.68 g/m*3 13.2 C 0 km/h
1174 02-09-2020 01:45:00 13.2 C 10.68 g/m*3 13.2 C 0 km/h
1175 02-09-2020 01:50:00 13.1 C 10.61 g/m*3 13.1 C 0 km/h
Sensor: Nr:Datum:Temp:Abs-Feuchte:Windchill:Wind:
Aussen-T/F 1176 02-09-2020 01:55:00 13.1 C 10.61 g/m*3 13.1 C 3.2 km/h
1177 02-09-2020 02:00:00 13.1 C 10.61 g/m*3 13.1 C 0 km/h
1178 02-09-2020 02:05:00 13.1 C 10.61 g/m*3 13.1 C 0 km/h
1179 02-09-2020 02:10:00 13 C 10.55 g/m*3 13 C 0 km/h
1180 02-09-2020 02:15:00 13 C 10.55 g/m*3 13 C 0 km/h
1181 02-09-2020 02:20:00 12.9 C 10.48 g/m*3 12.9 C 0 km/h
1182 02-09-2020 02:25:00 12.9 C 10.48 g/m*3 12.9 C 0 km/h
1183 02-09-2020 02:30:00 12.9 C 10.48 g/m*3 12.9 C 0 km/h
1184 02-09-2020 02:35:00 12.8 C 10.42 g/m*3 12.8 C 0 km/h
1185 02-09-2020 02:40:00 12.8 C 10.42 g/m*3 12.8 C 0 km/h
1186 02-09-2020 02:45:00 12.8 C 10.42 g/m*3 12.8 C 1.6 km/h
1187 02-09-2020 02:50:00 12.8 C 10.53 g/m*3 12.8 C 0 km/h
1188 02-09-2020 02:55:00 12.8 C 10.53 g/m*3 12.8 C 1.6 km/h
1189 02-09-2020 03:00:00 12.8 C 10.53 g/m*3 12.8 C 0 km/h
1190 02-09-2020 03:05:00 12.8 C 10.53 g/m*3 12.8 C 0 km/h
1191 02-09-2020 03:10:00 12.8 C 10.53 g/m*3 12.8 C 1.6 km/h
1192 02-09-2020 03:15:00 12.8 C 10.53 g/m*3 12.8 C 0 km/h
1193 02-09-2020 03:20:00 12.8 C 10.53 g/m*3 12.8 C 0 km/h
1194 02-09-2020 03:25:00 12.8 C 10.53 g/m*3 12.8 C 0 km/h
1195 02-09-2020 03:30:00 12.8 C 10.53 g/m*3 12.8 C 0 km/h
1196 02-09-2020 03:35:00 12.8 C 10.53 g/m*3 12.8 C 0 km/h
1197 02-09-2020 03:40:00 12.8 C 10.53 g/m*3 12.8 C 1.6 km/h
1198 02-09-2020 03:45:00 12.8 C 10.53 g/m*3 12.8 C 1.6 km/h
1199 02-09-2020 03:50:00 12.8 C 10.53 g/m*3 12.8 C 0 km/h
1200 02-09-2020 03:55:00 12.9 C 10.59 g/m*3 12.9 C 0 km/h
Sensor: Nr:Datum:Temp:Abs-Feuchte:Windchill:Wind:
Aussen-T/F 1201 02-09-2020 04:00:00 12.9 C 10.59 g/m*3 12.9 C 0 km/h
1202 02-09-2020 04:05:00 12.8 C 10.53 g/m*3 12.8 C 0 km/h
1203 02-09-2020 04:10:00 12.8 C 10.53 g/m*3 12.8 C 0 km/h
1204 02-09-2020 04:15:00 12.8 C 10.53 g/m*3 12.8 C 0 km/h
1205 02-09-2020 04:20:00 12.7 C 10.46 g/m*3 12.7 C 0 km/h
1206 02-09-2020 04:25:00 12.7 C 10.46 g/m*3 12.7 C 0 km/h
1207 02-09-2020 04:30:00 12.7 C 10.46 g/m*3 12.7 C 0 km/h
1208 02-09-2020 04:35:00 12.7 C 10.46 g/m*3 12.7 C 0 km/h
1209 02-09-2020 04:40:00 12.6 C 10.4 g/m*3 12.6 C 0 km/h
1210 02-09-2020 04:45:00 12.6 C 10.4 g/m*3 12.6 C 0 km/h
1211 02-09-2020 04:50:00 12.6 C 10.4 g/m*3 12.6 C 0 km/h
1212 02-09-2020 04:55:00 12.6 C 10.4 g/m*3 12.6 C 0 km/h
1213 02-09-2020 05:00:00 12.6 C 10.4 g/m*3 12.6 C 0 km/h
1214 02-09-2020 05:05:00 12.6 C 10.4 g/m*3 12.6 C 0 km/h
1215 02-09-2020 05:10:00 12.5 C 10.33 g/m*3 12.5 C 0 km/h
1216 02-09-2020 05:15:00 12.5 C 10.33 g/m*3 12.5 C 0 km/h
1217 02-09-2020 05:20:00 12.5 C 10.33 g/m*3 12.5 C 0 km/h
1218 02-09-2020 05:25:00 12.5 C 10.44 g/m*3 12.5 C 0 km/h
1219 02-09-2020 05:30:00 12.5 C 10.44 g/m*3 12.5 C 0 km/h
1220 02-09-2020 05:35:00 12.5 C 10.44 g/m*3 12.5 C 0 km/h
1221 02-09-2020 05:40:00 12.5 C 10.44 g/m*3 12.5 C 0 km/h
1222 02-09-2020 05:45:00 12.5 C 10.44 g/m*3 12.5 C 0 km/h
1223 02-09-2020 05:50:00 12.5 C 10.44 g/m*3 12.5 C 0 km/h
1224 02-09-2020 05:55:00 12.5 C 10.44 g/m*3 12.5 C 0 km/h
1225 02-09-2020 06:00:00 12.5 C 10.44 g/m*3 12.5 C 1.6 km/h
Sensor: Nr:Datum:Temp:Abs-Feuchte:Windchill:Wind:
Aussen-T/F 1226 02-09-2020 06:05:00 12.5 C 10.44 g/m*3 12.5 C 1.6 km/h
1227 02-09-2020 06:10:00 12.4 C 10.38 g/m*3 12.4 C 0 km/h
1228 02-09-2020 06:15:00 12.4 C 10.38 g/m*3 12.4 C 0 km/h
1229 02-09-2020 06:20:00 12.4 C 10.38 g/m*3 12.4 C 0 km/h
1230 02-09-2020 06:25:00 12.4 C 10.38 g/m*3 12.4 C 0 km/h
1231 02-09-2020 06:30:00 12.3 C 10.32 g/m*3 12.3 C 0 km/h
1232 02-09-2020 06:35:00 12.3 C 10.32 g/m*3 12.3 C 0 km/h
1233 02-09-2020 06:40:00 12.2 C 10.25 g/m*3 12.2 C 0 km/h
1234 02-09-2020 06:45:00 12.1 C 10.19 g/m*3 12.1 C 0 km/h
1235 02-09-2020 06:50:00 12.1 C 10.19 g/m*3 12.1 C 0 km/h
1236 02-09-2020 06:55:00 12 C 10.12 g/m*3 12 C 0 km/h
1237 02-09-2020 07:00:00 11.9 C 10.06 g/m*3 11.9 C 0 km/h
1238 02-09-2020 07:05:00 11.8 C 10 g/m*3 11.8 C 3.2 km/h
1239 02-09-2020 07:10:00 11.7 C 9.94 g/m*3 11.7 C 3.2 km/h
1240 02-09-2020 07:15:00 11.7 C 9.94 g/m*3 11.7 C 1.6 km/h
1241 02-09-2020 07:20:00 11.7 C 9.94 g/m*3 11.7 C 0 km/h
1242 02-09-2020 07:25:00 11.6 C 9.87 g/m*3 11.6 C 0 km/h
1243 02-09-2020 07:30:00 11.6 C 9.87 g/m*3 11.6 C 0 km/h
1244 02-09-2020 07:35:00 11.5 C 9.81 g/m*3 11.5 C 0 km/h
1245 02-09-2020 07:40:00 11.4 C 9.75 g/m*3 11.4 C 0 km/h
1246 02-09-2020 07:45:00 11.4 C 9.75 g/m*3 11.4 C 0 km/h
1247 02-09-2020 07:50:00 11.4 C 9.75 g/m*3 11.4 C 3.2 km/h
1248 02-09-2020 07:55:00 11.4 C 9.75 g/m*3 11.4 C 0 km/h
1249 02-09-2020 08:00:00 11.4 C 9.75 g/m*3 11.4 C 3.2 km/h
1250 02-09-2020 08:05:00 11.3 C 9.69 g/m*3 11.3 C 0 km/h
Sensor: Nr:Datum:Temp:Abs-Feuchte:Windchill:Wind:
Aussen-T/F 1251 02-09-2020 08:10:00 11.4 C 9.75 g/m*3 11.4 C 0 km/h
1252 02-09-2020 08:15:00 11.4 C 9.75 g/m*3 11.4 C 0 km/h
1253 02-09-2020 08:20:00 11.4 C 9.75 g/m*3 11.4 C 0 km/h
1254 02-09-2020 08:25:00 11.4 C 9.75 g/m*3 11.4 C 0 km/h
1255 02-09-2020 08:30:00 11.4 C 9.75 g/m*3 11.4 C 0 km/h
1256 02-09-2020 08:35:00 11.5 C 9.92 g/m*3 11.5 C 0 km/h
1257 02-09-2020 08:40:00 11.6 C 9.98 g/m*3 11.6 C 0 km/h
1258 02-09-2020 08:45:00 11.6 C 9.98 g/m*3 11.6 C 0 km/h
1259 02-09-2020 08:50:00 11.7 C 10.04 g/m*3 11.7 C 0 km/h
1260 02-09-2020 08:55:00 11.8 C 10.1 g/m*3 11.8 C 0 km/h
1261 02-09-2020 09:00:00 12.1 C 10.29 g/m*3 12.1 C 0 km/h
1262 02-09-2020 09:05:00 12.2 C 10.36 g/m*3 12.2 C 0 km/h
1263 02-09-2020 09:10:00 12.3 C 10.42 g/m*3 12.3 C 0 km/h
1264 02-09-2020 09:15:00 12.4 C 10.49 g/m*3 12.4 C 0 km/h
1265 02-09-2020 09:20:00 12.6 C 10.62 g/m*3 12.6 C 0 km/h
1266 02-09-2020 09:25:00 12.7 C 10.69 g/m*3 12.7 C 0 km/h
1267 02-09-2020 09:30:00 12.9 C 10.82 g/m*3 12.9 C 0 km/h
1268 02-09-2020 09:35:00 13.1 C 10.95 g/m*3 13.1 C 0 km/h
1269 02-09-2020 09:40:00 13.2 C 10.91 g/m*3 13.2 C 0 km/h
1270 02-09-2020 09:45:00 13.3 C 10.98 g/m*3 13.3 C 3.2 km/h
1271 02-09-2020 09:50:00 13.5 C 10.88 g/m*3 13.5 C 0 km/h
1272 02-09-2020 09:55:00 13.7 C 11.01 g/m*3 13.7 C 0 km/h
1273 02-09-2020 10:00:00 13.9 C 11.03 g/m*3 13.9 C 0 km/h
1274 02-09-2020 10:05:00 14.1 C 11.04 g/m*3 14.1 C 1.6 km/h
1275 02-09-2020 10:10:00 14.2 C 10.87 g/m*3 14.2 C 1.6 km/h
Sensor: Nr:Datum:Temp:Abs-Feuchte:Windchill:Wind:
Aussen-T/F 1276 02-09-2020 10:15:00 14.3 C 10.93 g/m*3 14.3 C 0 km/h
1277 02-09-2020 10:20:00 14.4 C 11 g/m*3 14.4 C 0 km/h
1278 02-09-2020 10:25:00 14.6 C 11.01 g/m*3 14.6 C 0 km/h
1279 02-09-2020 10:30:00 14.7 C 11.08 g/m*3 14.7 C 1.6 km/h
1280 02-09-2020 10:35:00 14.8 C 11.15 g/m*3 14.8 C 1.6 km/h
1281 02-09-2020 10:40:00 14.9 C 10.96 g/m*3 14.9 C 0 km/h
1282 02-09-2020 10:45:00 15.1 C 11.09 g/m*3 15.1 C 4.8 km/h
1283 02-09-2020 10:50:00 15.2 C 11.03 g/m*3 15.2 C 1.6 km/h
1284 02-09-2020 10:55:00 15.4 C 11.04 g/m*3 15.4 C 3.2 km/h
1285 02-09-2020 11:00:00 15.6 C 11.04 g/m*3 15.6 C 3.2 km/h
1286 02-09-2020 11:05:00 15.8 C 11.17 g/m*3 15.8 C 1.6 km/h
1287 02-09-2020 11:10:00 15.9 C 11.1 g/m*3 15.9 C 3.2 km/h
1288 02-09-2020 11:15:00 16.1 C 11.24 g/m*3 16.1 C 0 km/h
1289 02-09-2020 11:20:00 16.3 C 11.24 g/m*3 16.3 C 3.2 km/h
1290 02-09-2020 11:25:00 16.4 C 11.31 g/m*3 16.4 C 1.6 km/h
1291 02-09-2020 11:30:00 16.5 C 10.95 g/m*3 16.5 C 3.2 km/h
1292 02-09-2020 11:35:00 16.6 C 11.16 g/m*3 16.6 C 0 km/h
1293 02-09-2020 11:40:00 16.7 C 11.23 g/m*3 16.7 C 0 km/h
1294 02-09-2020 11:45:00 16.8 C 11.01 g/m*3 16.8 C 0 km/h
1295 02-09-2020 11:50:00 16.8 C 10.72 g/m*3 16.8 C 3.2 km/h
1296 02-09-2020 11:55:00 16.9 C 10.79 g/m*3 16.9 C 0 km/h
1297 02-09-2020 12:00:00 17.1 C 10.92 g/m*3 17.1 C 6.4 km/h
1298 02-09-2020 12:05:00 17.2 C 10.54 g/m*3 17.2 C 3.2 km/h
1299 02-09-2020 12:10:00 17.3 C 11.34 g/m*3 17.3 C 0 km/h
1300 02-09-2020 12:15:00 17.3 C 11.64 g/m*3 17.3 C 0 km/h
Sensor: Nr:Datum:Temp:Abs-Feuchte:Windchill:Wind:
Aussen-T/F 1301 02-09-2020 12:20:00 17.3 C 11.79 g/m*3 17.3 C 0 km/h
1302 02-09-2020 12:25:00 17.2 C 11.86 g/m*3 17.2 C 0 km/h
1303 02-09-2020 12:30:00 17.1 C 11.65 g/m*3 17.1 C 0 km/h
1304 02-09-2020 12:35:00 17 C 11.87 g/m*3 17 C 0 km/h
1305 02-09-2020 12:40:00 16.9 C 11.08 g/m*3 16.9 C 0 km/h
1306 02-09-2020 12:45:00 17.1 C 11.35 g/m*3 17.1 C 0 km/h
1307 02-09-2020 12:50:00 17.3 C 11.64 g/m*3 17.3 C 0 km/h
1308 02-09-2020 12:55:00 17.5 C 10.88 g/m*3 17.5 C 6.4 km/h
1309 02-09-2020 13:00:00 17.9 C 10.23 g/m*3 17.9 C 4.8 km/h
1310 02-09-2020 13:05:00 18.2 C 10.41 g/m*3 18.2 C 3.2 km/h
1311 02-09-2020 13:10:00 18.4 C 10.22 g/m*3 18.4 C 4.8 km/h
1312 02-09-2020 13:15:00 18.7 C 10.57 g/m*3 18.7 C 3.2 km/h
1313 02-09-2020 13:20:00 18.8 C 10.15 g/m*3 18.8 C 8.1 km/h
1314 02-09-2020 13:25:00 18.8 C 9.99 g/m*3 18.8 C 8.1 km/h
1315 02-09-2020 13:30:00 18.9 C 10.04 g/m*3 18.9 C 4.8 km/h
1316 02-09-2020 13:35:00 18.9 C 10.21 g/m*3 18.9 C 6.4 km/h
1317 02-09-2020 13:40:00 18.9 C 11.18 g/m*3 18.9 C 1.6 km/h
1318 02-09-2020 13:45:00 19 C 11.9 g/m*3 19 C 1.6 km/h
1319 02-09-2020 13:50:00 18.9 C 11.5 g/m*3 18.9 C 0 km/h
1320 02-09-2020 13:55:00 18.8 C 10.15 g/m*3 18.8 C 0 km/h
1321 02-09-2020 14:00:00 18.9 C 10.04 g/m*3 18.9 C 4.8 km/h
1322 02-09-2020 14:05:00 19.2 C 9.89 g/m*3 19.2 C 6.4 km/h
1323 02-09-2020 14:10:00 19.3 C 9.45 g/m*3 19.3 C 3.2 km/h
1324 02-09-2020 14:15:00 19.4 C 9.68 g/m*3 19.4 C 0 km/h
1325 02-09-2020 14:20:00 19.6 C 9.96 g/m*3 19.6 C 4.8 km/h
Sensor: Nr:Datum:Temp:Abs-Feuchte:Windchill:Wind:
Aussen-T/F 1326 02-09-2020 14:25:00 19.7 C 9.51 g/m*3 19.7 C 6.4 km/h
1327 02-09-2020 14:30:00 19.9 C 9.62 g/m*3 19.9 C 8.1 km/h
1328 02-09-2020 14:35:00 20 C 9.33 g/m*3 20 C 4.8 km/h
1329 02-09-2020 14:40:00 20.1 C 9.56 g/m*3 20.1 C 1.6 km/h
1330 02-09-2020 14:45:00 20.3 C 9.32 g/m*3 20.3 C 8.1 km/h
1331 02-09-2020 14:50:00 20.6 C 9.49 g/m*3 20.6 C 11.3 km/h
1332 02-09-2020 14:55:00 20.9 C 9.83 g/m*3 20.9 C 9.7 km/h
1333 02-09-2020 15:00:00 21 C 9.34 g/m*3 21 C 8.1 km/h
1334 02-09-2020 15:05:00 20.9 C 9.47 g/m*3 20.9 C 4.8 km/h
1335 02-09-2020 15:10:00 20.9 C 9.47 g/m*3 20.9 C 6.4 km/h
1336 02-09-2020 15:15:00 20.9 C 9.47 g/m*3 20.9 C 9.7 km/h
1337 02-09-2020 15:20:00 21 C 9.89 g/m*3 21 C 6.4 km/h
1338 02-09-2020 15:25:00 21 C 9.71 g/m*3 21 C 1.6 km/h
1339 02-09-2020 15:30:00 21 C 9.53 g/m*3 21 C 6.4 km/h
1340 02-09-2020 15:35:00 21 C 9.16 g/m*3 21 C 4.8 km/h
1341 02-09-2020 15:40:00 21.2 C 9.27 g/m*3 21.2 C 9.7 km/h
1342 02-09-2020 15:45:00 21.3 C 9.13 g/m*3 21.3 C 8.1 km/h
1343 02-09-2020 15:50:00 21.4 C 9.19 g/m*3 21.4 C 4.8 km/h
1344 02-09-2020 15:55:00 21.6 C 9.67 g/m*3 21.6 C 6.4 km/h
1345 02-09-2020 16:00:00 21.6 C 8.91 g/m*3 21.6 C 11.3 km/h
1346 02-09-2020 16:05:00 21.7 C 9.16 g/m*3 21.7 C 8.1 km/h
1347 02-09-2020 16:10:00 21.7 C 8.77 g/m*3 21.7 C 14.5 km/h
1348 02-09-2020 16:15:00 21.7 C 8.77 g/m*3 21.7 C 8.1 km/h
1349 02-09-2020 16:20:00 21.8 C 9.21 g/m*3 21.8 C 0 km/h
1350 02-09-2020 16:25:00 21.9 C 9.07 g/m*3 21.9 C 3.2 km/h
Sensor: Nr:Datum:Temp:Abs-Feuchte:Windchill:Wind:
Aussen-T/F 1351 02-09-2020 16:30:00 21.9 C 10.42 g/m*3 21.9 C 0 km/h
1352 02-09-2020 16:35:00 21.9 C 9.65 g/m*3 21.9 C 0 km/h
1353 02-09-2020 16:40:00 21.9 C 9.65 g/m*3 21.9 C 0 km/h
1354 02-09-2020 16:45:00 22.3 C 9.87 g/m*3 22.3 C 3.2 km/h
1355 02-09-2020 16:50:00 22.7 C 10.3 g/m*3 22.7 C 0 km/h
1356 02-09-2020 16:55:00 23.2 C 9.36 g/m*3 23.2 C 1.6 km/h
1357 02-09-2020 17:00:00 23.4 C 10.51 g/m*3 23.4 C 0 km/h
1358 02-09-2020 17:05:00 23.3 C 11.71 g/m*3 23.3 C 0 km/h
1359 02-09-2020 17:10:00 23.2 C 11.85 g/m*3 23.2 C 0 km/h
1360 02-09-2020 17:15:00 23.4 C 10.3 g/m*3 23.4 C 0 km/h
1361 02-09-2020 17:20:00 23.7 C 8.98 g/m*3 23.7 C 4.8 km/h
1362 02-09-2020 17:25:00 23.8 C 8.6 g/m*3 23.8 C 1.6 km/h
1363 02-09-2020 17:30:00 23.8 C 9.03 g/m*3 23.8 C 9.7 km/h
1364 02-09-2020 17:35:00 23.4 C 9.04 g/m*3 23.4 C 11.3 km/h
1365 02-09-2020 17:40:00 22.8 C 8.94 g/m*3 22.8 C 9.7 km/h
1366 02-09-2020 17:45:00 22.3 C 9.28 g/m*3 22.3 C 3.2 km/h
1367 02-09-2020 17:50:00 21.9 C 9.65 g/m*3 21.9 C 4.8 km/h
1368 02-09-2020 17:55:00 21.6 C 10.81 g/m*3 21.6 C 1.6 km/h
1369 02-09-2020 18:00:00 21.2 C 10.75 g/m*3 21.2 C 3.2 km/h
1370 02-09-2020 18:05:00 20.7 C 10.98 g/m*3 20.7 C 1.6 km/h
1371 02-09-2020 18:10:00 20.2 C 11.02 g/m*3 20.2 C 0 km/h
1372 02-09-2020 18:15:00 19.9 C 11.17 g/m*3 19.9 C 0 km/h
1373 02-09-2020 18:20:00 19.7 C 11.21 g/m*3 19.7 C 4.8 km/h
1374 02-09-2020 18:25:00 19.6 C 11.48 g/m*3 19.6 C 0 km/h
1375 02-09-2020 18:30:00 19.6 C 11.65 g/m*3 19.6 C 0 km/h
Sensor: Nr:Datum:Temp:Abs-Feuchte:Windchill:Wind:
Aussen-T/F 1376 02-09-2020 18:35:00 19.7 C 11.38 g/m*3 19.7 C 0 km/h
1377 02-09-2020 18:40:00 19.8 C 11.61 g/m*3 19.8 C 0 km/h
1378 02-09-2020 18:45:00 19.9 C 11.51 g/m*3 19.9 C 0 km/h
1379 02-09-2020 18:50:00 19.8 C 11.44 g/m*3 19.8 C 0 km/h
1380 02-09-2020 18:55:00 19.7 C 11.38 g/m*3 19.7 C 0 km/h
1381 02-09-2020 19:00:00 19.4 C 11.35 g/m*3 19.4 C 0 km/h
1382 02-09-2020 19:05:00 19.2 C 9.73 g/m*3 19.2 C 0 km/h
1383 02-09-2020 19:10:00 19.3 C 11.28 g/m*3 19.3 C 1.6 km/h
1384 02-09-2020 19:15:00 19.2 C 11.21 g/m*3 19.2 C 3.2 km/h
1385 02-09-2020 19:20:00 19.1 C 10.98 g/m*3 19.1 C 4.8 km/h
1386 02-09-2020 19:25:00 18.8 C 10.79 g/m*3 18.8 C 4.8 km/h
1387 02-09-2020 19:30:00 18.6 C 10.66 g/m*3 18.6 C 0 km/h
1388 02-09-2020 19:35:00 18.3 C 10.48 g/m*3 18.3 C 0 km/h
1389 02-09-2020 19:40:00 18.1 C 10.66 g/m*3 18.1 C 6.4 km/h
1390 02-09-2020 19:45:00 17.8 C 10.32 g/m*3 17.8 C 8.1 km/h
1391 02-09-2020 19:50:00 17.6 C 10.2 g/m*3 17.6 C 8.1 km/h
1392 02-09-2020 19:55:00 17.3 C 10.02 g/m*3 17.3 C 8.1 km/h
1393 02-09-2020 20:00:00 17.1 C 9.9 g/m*3 17.1 C 8.1 km/h
1394 02-09-2020 20:05:00 16.9 C 9.64 g/m*3 16.9 C 8.1 km/h
1395 02-09-2020 20:10:00 16.7 C 9.66 g/m*3 16.7 C 8.1 km/h
1396 02-09-2020 20:15:00 16.5 C 9.69 g/m*3 16.5 C 8.1 km/h
1397 02-09-2020 20:20:00 16.3 C 9.43 g/m*3 16.3 C 8.1 km/h
1398 02-09-2020 20:25:00 16.2 C 9.38 g/m*3 16.2 C 8.1 km/h
1399 02-09-2020 20:30:00 16.1 C 9.46 g/m*3 16.1 C 6.4 km/h
1400 02-09-2020 20:35:00 16.1 C 9.46 g/m*3 16.1 C 8.1 km/h
Sensor: Nr:Datum:Temp:Abs-Feuchte:Windchill:Wind:
Aussen-T/F 1401 02-09-2020 20:40:00 15.9 C 9.34 g/m*3 15.9 C 6.4 km/h
1402 02-09-2020 20:45:00 15.8 C 9.56 g/m*3 15.8 C 6.4 km/h
1403 02-09-2020 20:50:00 15.7 C 9.5 g/m*3 15.7 C 6.4 km/h
1404 02-09-2020 20:55:00 15.7 C 9.77 g/m*3 15.7 C 6.4 km/h
1405 02-09-2020 21:00:00 15.5 C 9.52 g/m*3 15.5 C 0 km/h
1406 02-09-2020 21:05:00 15.4 C 9.46 g/m*3 15.4 C 0 km/h
1407 02-09-2020 21:10:00 15.3 C 9.66 g/m*3 15.3 C 0 km/h
1408 02-09-2020 21:15:00 15.2 C 9.73 g/m*3 15.2 C 0 km/h
1409 02-09-2020 21:20:00 15.1 C 9.8 g/m*3 15.1 C 0 km/h
1410 02-09-2020 21:25:00 14.8 C 9.63 g/m*3 14.8 C 0 km/h
1411 02-09-2020 21:30:00 14.7 C 9.69 g/m*3 14.7 C 0 km/h
1412 02-09-2020 21:35:00 14.5 C 9.58 g/m*3 14.5 C 0 km/h
1413 02-09-2020 21:40:00 14.4 C 9.77 g/m*3 14.4 C 0 km/h
1414 02-09-2020 21:45:00 14.3 C 9.71 g/m*3 14.3 C 0 km/h
1415 02-09-2020 21:50:00 14.2 C 9.89 g/m*3 14.2 C 0 km/h
1416 02-09-2020 21:55:00 14.2 C 9.89 g/m*3 14.2 C 0 km/h
1417 02-09-2020 22:00:00 14.2 C 9.89 g/m*3 14.2 C 0 km/h
1418 02-09-2020 22:05:00 14.1 C 9.95 g/m*3 14.1 C 0 km/h
1419 02-09-2020 22:10:00 14.1 C 9.95 g/m*3 14.1 C 0 km/h
1420 02-09-2020 22:15:00 14.2 C 10.14 g/m*3 14.2 C 0 km/h
1421 02-09-2020 22:20:00 14.2 C 10.01 g/m*3 14.2 C 0 km/h
1422 02-09-2020 22:25:00 14.2 C 10.01 g/m*3 14.2 C 0 km/h
1423 02-09-2020 22:30:00 14.2 C 10.14 g/m*3 14.2 C 0 km/h
1424 02-09-2020 22:35:00 14.2 C 10.14 g/m*3 14.2 C 0 km/h
1425 02-09-2020 22:40:00 14.2 C 10.14 g/m*3 14.2 C 0 km/h
Sensor: Nr:Datum:Temp:Abs-Feuchte:Windchill:Wind:
Aussen-T/F 1426 02-09-2020 22:45:00 14.2 C 10.14 g/m*3 14.2 C 0 km/h
1427 02-09-2020 22:50:00 14.1 C 9.95 g/m*3 14.1 C 0 km/h
1428 02-09-2020 22:55:00 14.1 C 10.07 g/m*3 14.1 C 0 km/h
1429 02-09-2020 23:00:00 14 C 10.01 g/m*3 14 C 0 km/h
1430 02-09-2020 23:05:00 13.9 C 9.95 g/m*3 13.9 C 0 km/h
1431 02-09-2020 23:10:00 13.9 C 9.95 g/m*3 13.9 C 0 km/h
1432 02-09-2020 23:15:00 13.8 C 9.89 g/m*3 13.8 C 0 km/h
1433 02-09-2020 23:20:00 13.7 C 9.71 g/m*3 13.7 C 0 km/h
1434 02-09-2020 23:25:00 13.6 C 9.77 g/m*3 13.6 C 0 km/h
1435 02-09-2020 23:30:00 13.5 C 9.59 g/m*3 13.5 C 0 km/h
1436 02-09-2020 23:35:00 13.3 C 9.47 g/m*3 13.3 C 0 km/h
1437 02-09-2020 23:40:00 13.2 C 9.53 g/m*3 13.2 C 0 km/h
1438 02-09-2020 23:45:00 13.2 C 9.53 g/m*3 13.2 C 0 km/h
1439 02-09-2020 23:50:00 13 C 9.3 g/m*3 13 C 0 km/h
1440 02-09-2020 23:55:00 12.9 C 9.35 g/m*3 12.9 C 0 km/h
1441 03-09-2020 00:00:00 12.8 C 9.41 g/m*3 12.8 C 0 km/h
1442 03-09-2020 00:05:00 12.8 C 9.41 g/m*3 12.8 C 0 km/h
1443 03-09-2020 00:10:00 12.7 C 9.35 g/m*3 12.7 C 0 km/h
1444 03-09-2020 00:15:00 12.6 C 9.29 g/m*3 12.6 C 0 km/h
1445 03-09-2020 00:20:00 12.4 C 9.29 g/m*3 12.4 C 0 km/h
1446 03-09-2020 00:25:00 12.4 C 9.29 g/m*3 12.4 C 0 km/h
1447 03-09-2020 00:30:00 12.3 C 9.23 g/m*3 12.3 C 0 km/h
1448 03-09-2020 00:35:00 12.2 C 9.17 g/m*3 12.2 C 0 km/h
1449 03-09-2020 00:40:00 12.1 C 9.22 g/m*3 12.1 C 0 km/h
1450 03-09-2020 00:45:00 11.9 C 9.11 g/m*3 11.9 C 0 km/h
Sensor: Nr:Datum:Temp:Abs-Feuchte:Windchill:Wind:
Aussen-T/F 1451 03-09-2020 00:50:00 11.9 C 9.11 g/m*3 11.9 C 0 km/h
1452 03-09-2020 00:55:00 11.8 C 9.05 g/m*3 11.8 C 0 km/h
1453 03-09-2020 01:00:00 11.8 C 9.16 g/m*3 11.8 C 0 km/h
1454 03-09-2020 01:05:00 11.7 C 9.1 g/m*3 11.7 C 0 km/h
1455 03-09-2020 01:10:00 11.6 C 9.04 g/m*3 11.6 C 0 km/h
1456 03-09-2020 01:15:00 11.6 C 9.04 g/m*3 11.6 C 0 km/h
1457 03-09-2020 01:20:00 11.5 C 8.99 g/m*3 11.5 C 0 km/h
1458 03-09-2020 01:25:00 11.4 C 9.03 g/m*3 11.4 C 0 km/h
1459 03-09-2020 01:30:00 11.3 C 8.98 g/m*3 11.3 C 0 km/h
1460 03-09-2020 01:35:00 11.3 C 8.98 g/m*3 11.3 C 0 km/h
1461 03-09-2020 01:40:00 11.2 C 8.92 g/m*3 11.2 C 0 km/h
1462 03-09-2020 01:45:00 11.2 C 8.92 g/m*3 11.2 C 0 km/h
1463 03-09-2020 01:50:00 11.1 C 8.96 g/m*3 11.1 C 0 km/h
1464 03-09-2020 01:55:00 10.9 C 8.85 g/m*3 10.9 C 0 km/h
1465 03-09-2020 02:00:00 10.8 C 8.8 g/m*3 10.8 C 0 km/h
1466 03-09-2020 02:05:00 10.8 C 8.8 g/m*3 10.8 C 0 km/h
1467 03-09-2020 02:10:00 10.7 C 8.74 g/m*3 10.7 C 0 km/h
1468 03-09-2020 02:15:00 10.7 C 8.74 g/m*3 10.7 C 0 km/h
1469 03-09-2020 02:20:00 10.6 C 8.78 g/m*3 10.6 C 0 km/h
1470 03-09-2020 02:25:00 10.6 C 8.78 g/m*3 10.6 C 0 km/h
1471 03-09-2020 02:30:00 10.5 C 8.73 g/m*3 10.5 C 0 km/h
1472 03-09-2020 02:35:00 10.4 C 8.67 g/m*3 10.4 C 0 km/h
1473 03-09-2020 02:40:00 10.4 C 8.67 g/m*3 10.4 C 0 km/h
1474 03-09-2020 02:45:00 10.4 C 8.77 g/m*3 10.4 C 0 km/h
1475 03-09-2020 02:50:00 10.4 C 8.77 g/m*3 10.4 C 0 km/h
Sensor: Nr:Datum:Temp:Abs-Feuchte:Windchill:Wind:
Aussen-T/F 1476 03-09-2020 02:55:00 10.4 C 8.77 g/m*3 10.4 C 0 km/h
1477 03-09-2020 03:00:00 10.4 C 8.77 g/m*3 10.4 C 0 km/h
1478 03-09-2020 03:05:00 10.4 C 8.77 g/m*3 10.4 C 0 km/h
1479 03-09-2020 03:10:00 10.4 C 8.77 g/m*3 10.4 C 0 km/h
1480 03-09-2020 03:15:00 10.3 C 8.71 g/m*3 10.3 C 0 km/h
1481 03-09-2020 03:20:00 10.3 C 8.71 g/m*3 10.3 C 0 km/h
1482 03-09-2020 03:25:00 10.3 C 8.81 g/m*3 10.3 C 0 km/h
1483 03-09-2020 03:30:00 10.2 C 8.76 g/m*3 10.2 C 0 km/h
1484 03-09-2020 03:35:00 10.2 C 8.76 g/m*3 10.2 C 0 km/h
1485 03-09-2020 03:40:00 10.2 C 8.76 g/m*3 10.2 C 0 km/h
1486 03-09-2020 03:45:00 10.2 C 8.76 g/m*3 10.2 C 0 km/h
1487 03-09-2020 03:50:00 10.2 C 8.76 g/m*3 10.2 C 0 km/h
1488 03-09-2020 03:55:00 10.2 C 8.76 g/m*3 10.2 C 0 km/h
1489 03-09-2020 04:00:00 10.1 C 8.7 g/m*3 10.1 C 0 km/h
1490 03-09-2020 04:05:00 10.1 C 8.7 g/m*3 10.1 C 0 km/h
1491 03-09-2020 04:10:00 10.1 C 8.7 g/m*3 10.1 C 0 km/h
1492 03-09-2020 04:15:00 10 C 8.64 g/m*3 10 C 0 km/h
1493 03-09-2020 04:20:00 10 C 8.64 g/m*3 10 C 0 km/h
1494 03-09-2020 04:25:00 10.1 C 8.79 g/m*3 10.1 C 0 km/h
1495 03-09-2020 04:30:00 10.1 C 8.79 g/m*3 10.1 C 0 km/h
1496 03-09-2020 04:35:00 10.1 C 8.79 g/m*3 10.1 C 0 km/h
1497 03-09-2020 04:40:00 10.1 C 8.79 g/m*3 10.1 C 0 km/h
1498 03-09-2020 04:45:00 10.1 C 8.79 g/m*3 10.1 C 0 km/h
1499 03-09-2020 04:50:00 10 C 8.74 g/m*3 10 C 0 km/h
1500 03-09-2020 04:55:00 9.9 C 8.68 g/m*3 9.9 C 0 km/h
Sensor: Nr:Datum:Temp:Abs-Feuchte:Windchill:Wind:
Aussen-T/F 1501 03-09-2020 05:00:00 9.9 C 8.68 g/m*3 9.9 C 0 km/h
1502 03-09-2020 05:05:00 9.9 C 8.68 g/m*3 9.9 C 0 km/h
1503 03-09-2020 05:10:00 9.8 C 8.63 g/m*3 9.8 C 0 km/h
1504 03-09-2020 05:15:00 9.8 C 8.63 g/m*3 9.8 C 0 km/h
1505 03-09-2020 05:20:00 9.7 C 8.57 g/m*3 9.7 C 0 km/h
1506 03-09-2020 05:25:00 9.7 C 8.57 g/m*3 9.7 C 0 km/h
1507 03-09-2020 05:30:00 9.7 C 8.57 g/m*3 9.7 C 0 km/h
1508 03-09-2020 05:35:00 9.8 C 8.72 g/m*3 9.8 C 0 km/h
1509 03-09-2020 05:40:00 9.8 C 8.72 g/m*3 9.8 C 0 km/h
1510 03-09-2020 05:45:00 9.9 C 8.78 g/m*3 9.9 C 1.6 km/h
1511 03-09-2020 05:50:00 10 C 8.83 g/m*3 10 C 1.6 km/h
1512 03-09-2020 05:55:00 10.1 C 8.89 g/m*3 10.1 C 0 km/h
1513 03-09-2020 06:00:00 10.1 C 8.89 g/m*3 10.1 C 0 km/h
1514 03-09-2020 06:05:00 10.1 C 8.89 g/m*3 10.1 C 0 km/h
1515 03-09-2020 06:10:00 10.1 C 8.89 g/m*3 10.1 C 0 km/h
1516 03-09-2020 06:15:00 10.1 C 8.89 g/m*3 10.1 C 0 km/h
1517 03-09-2020 06:20:00 10.1 C 8.89 g/m*3 10.1 C 0 km/h
1518 03-09-2020 06:25:00 10.1 C 8.89 g/m*3 10.1 C 1.6 km/h
1519 03-09-2020 06:30:00 10.2 C 8.95 g/m*3 10.2 C 0 km/h
1520 03-09-2020 06:35:00 10.2 C 8.95 g/m*3 10.2 C 0 km/h
1521 03-09-2020 06:40:00 10.2 C 8.95 g/m*3 10.2 C 0 km/h
1522 03-09-2020 06:45:00 10.2 C 8.95 g/m*3 10.2 C 0 km/h
1523 03-09-2020 06:50:00 10.2 C 8.95 g/m*3 10.2 C 0 km/h
1524 03-09-2020 06:55:00 10.1 C 8.89 g/m*3 10.1 C 0 km/h
1525 03-09-2020 07:00:00 10.2 C 8.95 g/m*3 10.2 C 1.6 km/h
Sensor: Nr:Datum:Temp:Abs-Feuchte:Windchill:Wind:
Aussen-T/F 1526 03-09-2020 07:05:00 10.2 C 8.95 g/m*3 10.2 C 0 km/h
1527 03-09-2020 07:10:00 10.2 C 8.95 g/m*3 10.2 C 0 km/h
1528 03-09-2020 07:15:00 10.3 C 9 g/m*3 10.3 C 0 km/h
1529 03-09-2020 07:20:00 10.3 C 9 g/m*3 10.3 C 0 km/h
1530 03-09-2020 07:25:00 10.3 C 9 g/m*3 10.3 C 0 km/h
1531 03-09-2020 07:30:00 10.4 C 9.06 g/m*3 10.4 C 0 km/h
1532 03-09-2020 07:35:00 10.4 C 9.06 g/m*3 10.4 C 0 km/h
1533 03-09-2020 07:40:00 10.4 C 9.06 g/m*3 10.4 C 0 km/h
1534 03-09-2020 07:45:00 10.5 C 9.12 g/m*3 10.5 C 0 km/h
1535 03-09-2020 07:50:00 10.5 C 9.12 g/m*3 10.5 C 0 km/h
1536 03-09-2020 07:55:00 10.6 C 9.17 g/m*3 10.6 C 0 km/h
1537 03-09-2020 08:00:00 10.7 C 9.23 g/m*3 10.7 C 0 km/h
1538 03-09-2020 08:05:00 10.7 C 9.23 g/m*3 10.7 C 0 km/h
1539 03-09-2020 08:10:00 10.8 C 9.29 g/m*3 10.8 C 0 km/h
1540 03-09-2020 08:15:00 10.9 C 9.35 g/m*3 10.9 C 0 km/h
1541 03-09-2020 08:20:00 11.1 C 9.47 g/m*3 11.1 C 0 km/h
1542 03-09-2020 08:25:00 11.2 C 9.53 g/m*3 11.2 C 1.6 km/h
1543 03-09-2020 08:30:00 11.3 C 9.49 g/m*3 11.3 C 0 km/h
1544 03-09-2020 08:35:00 11.4 C 9.55 g/m*3 11.4 C 0 km/h
1545 03-09-2020 08:40:00 11.6 C 9.67 g/m*3 11.6 C 0 km/h
1546 03-09-2020 08:45:00 11.7 C 9.62 g/m*3 11.7 C 1.6 km/h
1547 03-09-2020 08:50:00 11.8 C 9.58 g/m*3 11.8 C 4.8 km/h
1548 03-09-2020 08:55:00 11.9 C 9.64 g/m*3 11.9 C 1.6 km/h
1549 03-09-2020 09:00:00 12 C 9.59 g/m*3 12 C 3.2 km/h
1550 03-09-2020 09:05:00 12.1 C 9.65 g/m*3 12.1 C 1.6 km/h
Sensor: Nr:Datum:Temp:Abs-Feuchte:Windchill:Wind:
Aussen-T/F 1551 03-09-2020 09:10:00 12.2 C 9.71 g/m*3 12.2 C 0 km/h
1552 03-09-2020 09:15:00 12.3 C 9.66 g/m*3 12.3 C 1.6 km/h
1553 03-09-2020 09:20:00 12.5 C 9.78 g/m*3 12.5 C 1.6 km/h
1554 03-09-2020 09:25:00 12.7 C 9.91 g/m*3 12.7 C 0 km/h
1555 03-09-2020 09:30:00 12.9 C 10.03 g/m*3 12.9 C 1.6 km/h
1556 03-09-2020 09:35:00 13 C 9.98 g/m*3 13 C 1.6 km/h
1557 03-09-2020 09:40:00 13.2 C 10.1 g/m*3 13.2 C 3.2 km/h
1558 03-09-2020 09:45:00 13.3 C 10.17 g/m*3 13.3 C 1.6 km/h
1559 03-09-2020 09:50:00 13.4 C 10.11 g/m*3 13.4 C 0 km/h
1560 03-09-2020 09:55:00 13.6 C 10.24 g/m*3 13.6 C 0 km/h
1561 03-09-2020 10:00:00 13.7 C 10.18 g/m*3 13.7 C 1.6 km/h
1562 03-09-2020 10:05:00 13.8 C 10.13 g/m*3 13.8 C 3.2 km/h
1563 03-09-2020 10:10:00 13.9 C 10.31 g/m*3 13.9 C 0 km/h
1564 03-09-2020 10:15:00 14.1 C 10.32 g/m*3 14.1 C 1.6 km/h
1565 03-09-2020 10:20:00 14.2 C 10.26 g/m*3 14.2 C 0 km/h
1566 03-09-2020 10:25:00 14.4 C 10.38 g/m*3 14.4 C 0 km/h
1567 03-09-2020 10:30:00 14.7 C 10.58 g/m*3 14.7 C 0 km/h
1568 03-09-2020 10:35:00 14.9 C 10.58 g/m*3 14.9 C 0 km/h
1569 03-09-2020 10:40:00 15.1 C 10.71 g/m*3 15.1 C 0 km/h
1570 03-09-2020 10:45:00 15.3 C 10.71 g/m*3 15.3 C 0 km/h
1571 03-09-2020 10:50:00 15.5 C 10.84 g/m*3 15.5 C 0 km/h
1572 03-09-2020 10:55:00 15.7 C 10.97 g/m*3 15.7 C 0 km/h
1573 03-09-2020 11:00:00 16 C 11.04 g/m*3 16 C 0 km/h
1574 03-09-2020 11:05:00 16.3 C 11.1 g/m*3 16.3 C 1.6 km/h
1575 03-09-2020 11:10:00 16.7 C 11.08 g/m*3 16.7 C 4.8 km/h
Sensor: Nr:Datum:Temp:Abs-Feuchte:Windchill:Wind:
Aussen-T/F 1576 03-09-2020 11:15:00 17.1 C 11.21 g/m*3 17.1 C 4.8 km/h
1577 03-09-2020 11:20:00 17.4 C 11.12 g/m*3 17.4 C 9.7 km/h
1578 03-09-2020 11:25:00 17.7 C 11.16 g/m*3 17.7 C 11.3 km/h
1579 03-09-2020 11:30:00 18 C 11.06 g/m*3 18 C 9.7 km/h
1580 03-09-2020 11:35:00 18.2 C 11.19 g/m*3 18.2 C 8.1 km/h
1581 03-09-2020 11:40:00 18.4 C 11.17 g/m*3 18.4 C 8.1 km/h
1582 03-09-2020 11:45:00 18.5 C 10.92 g/m*3 18.5 C 8.1 km/h
1583 03-09-2020 11:50:00 18.6 C 11.14 g/m*3 18.6 C 6.4 km/h
1584 03-09-2020 11:55:00 18.7 C 11.21 g/m*3 18.7 C 9.7 km/h
1585 03-09-2020 12:00:00 18.8 C 11.11 g/m*3 18.8 C 8.1 km/h
1586 03-09-2020 12:05:00 18.8 C 10.95 g/m*3 18.8 C 6.4 km/h
1587 03-09-2020 12:10:00 19.1 C 11.31 g/m*3 19.1 C 4.8 km/h
1588 03-09-2020 12:15:00 19.2 C 11.21 g/m*3 19.2 C 4.8 km/h
1589 03-09-2020 12:20:00 19.2 C 11.21 g/m*3 19.2 C 11.3 km/h
1590 03-09-2020 12:25:00 19.3 C 11.11 g/m*3 19.3 C 8.1 km/h
1591 03-09-2020 12:30:00 19.4 C 11.01 g/m*3 19.4 C 11.3 km/h
1592 03-09-2020 12:35:00 19.5 C 11.08 g/m*3 19.5 C 8.1 km/h
1593 03-09-2020 12:40:00 19.6 C 11.14 g/m*3 19.6 C 9.7 km/h
1594 03-09-2020 12:45:00 19.7 C 11.04 g/m*3 19.7 C 8.1 km/h
1595 03-09-2020 12:50:00 19.7 C 11.21 g/m*3 19.7 C 9.7 km/h
1596 03-09-2020 12:55:00 19.7 C 11.04 g/m*3 19.7 C 11.3 km/h
1597 03-09-2020 13:00:00 19.7 C 10.87 g/m*3 19.7 C 11.3 km/h
1598 03-09-2020 13:05:00 19.6 C 11.14 g/m*3 19.6 C 9.7 km/h
1599 03-09-2020 13:10:00 19.5 C 11.08 g/m*3 19.5 C 8.1 km/h
1600 03-09-2020 13:15:00 19.5 C 11.08 g/m*3 19.5 C 9.7 km/h
Sensor: Nr:Datum:Temp:Abs-Feuchte:Windchill:Wind:
Aussen-T/F 1601 03-09-2020 13:20:00 19.3 C 10.95 g/m*3 19.3 C 11.3 km/h
1602 03-09-2020 13:25:00 19.3 C 11.11 g/m*3 19.3 C 9.7 km/h
1603 03-09-2020 13:30:00 19.1 C 11.31 g/m*3 19.1 C 6.4 km/h
1604 03-09-2020 13:35:00 18.9 C 11.83 g/m*3 18.9 C 3.2 km/h
1605 03-09-2020 13:40:00 18.8 C 12.24 g/m*3 18.8 C 8.1 km/h
1606 03-09-2020 13:45:00 18.6 C 12.26 g/m*3 18.6 C 4.8 km/h
1607 03-09-2020 13:50:00 18.4 C 12.43 g/m*3 18.4 C 1.6 km/h
1608 03-09-2020 13:55:00 18.3 C 12.35 g/m*3 18.3 C 4.8 km/h
1609 03-09-2020 14:00:00 18.1 C 12.21 g/m*3 18.1 C 8.1 km/h
1610 03-09-2020 14:05:00 17.9 C 11.91 g/m*3 17.9 C 6.4 km/h
1611 03-09-2020 14:10:00 17.8 C 11.99 g/m*3 17.8 C 8.1 km/h
1612 03-09-2020 14:15:00 17.7 C 11.77 g/m*3 17.7 C 6.4 km/h
1613 03-09-2020 14:20:00 17.6 C 11.85 g/m*3 17.6 C 8.1 km/h
1614 03-09-2020 14:25:00 17.6 C 11.85 g/m*3 17.6 C 8.1 km/h
1615 03-09-2020 14:30:00 17.5 C 11.63 g/m*3 17.5 C 3.2 km/h
1616 03-09-2020 14:35:00 17.6 C 11.85 g/m*3 17.6 C 0 km/h
1617 03-09-2020 14:40:00 17.7 C 11.92 g/m*3 17.7 C 0 km/h
1618 03-09-2020 14:45:00 17.7 C 11.92 g/m*3 17.7 C 0 km/h
1619 03-09-2020 14:50:00 17.8 C 11.84 g/m*3 17.8 C 3.2 km/h
1620 03-09-2020 14:55:00 17.8 C 11.99 g/m*3 17.8 C 0 km/h
1621 03-09-2020 15:00:00 17.9 C 12.06 g/m*3 17.9 C 1.6 km/h
1622 03-09-2020 15:05:00 17.9 C 12.06 g/m*3 17.9 C 4.8 km/h
1623 03-09-2020 15:10:00 17.9 C 12.21 g/m*3 17.9 C 1.6 km/h
1624 03-09-2020 15:15:00 18.1 C 12.67 g/m*3 18.1 C 0 km/h
1625 03-09-2020 15:20:00 18.1 C 12.67 g/m*3 18.1 C 0 km/h
Sensor: Nr:Datum:Temp:Abs-Feuchte:Windchill:Wind:
Aussen-T/F 1626 03-09-2020 15:25:00 18.2 C 12.75 g/m*3 18.2 C 3.2 km/h
1627 03-09-2020 15:30:00 18.1 C 12.21 g/m*3 18.1 C 1.6 km/h
1628 03-09-2020 15:35:00 18.1 C 12.36 g/m*3 18.1 C 3.2 km/h
1629 03-09-2020 15:40:00 18.1 C 12.21 g/m*3 18.1 C 1.6 km/h
1630 03-09-2020 15:45:00 18.1 C 12.05 g/m*3 18.1 C 12.9 km/h
1631 03-09-2020 15:50:00 17.9 C 12.21 g/m*3 17.9 C 16.1 km/h
1632 03-09-2020 15:55:00 17.5 C 12.23 g/m*3 17.5 C 16.1 km/h
1633 03-09-2020 16:00:00 17.2 C 12.3 g/m*3 17.2 C 6.4 km/h
1634 03-09-2020 16:05:00 16.7 C 12.08 g/m*3 16.7 C 9.7 km/h
1635 03-09-2020 16:10:00 16.4 C 12.14 g/m*3 16.4 C 6.4 km/h
1636 03-09-2020 16:15:00 16.2 C 12.27 g/m*3 16.2 C 4.8 km/h
1637 03-09-2020 16:20:00 16.1 C 12.2 g/m*3 16.1 C 1.6 km/h
1638 03-09-2020 16:25:00 16.1 C 12.34 g/m*3 16.1 C 0 km/h
1639 03-09-2020 16:30:00 16.1 C 12.47 g/m*3 16.1 C 1.6 km/h
1640 03-09-2020 16:35:00 16.1 C 12.47 g/m*3 16.1 C 1.6 km/h
1641 03-09-2020 16:40:00 16 C 12.4 g/m*3 16 C 4.8 km/h
1642 03-09-2020 16:45:00 15.8 C 12.25 g/m*3 15.8 C 1.6 km/h
1643 03-09-2020 16:50:00 15.8 C 12.38 g/m*3 15.8 C 3.2 km/h
1644 03-09-2020 16:55:00 15.9 C 12.46 g/m*3 15.9 C 0 km/h
1645 03-09-2020 17:00:00 15.9 C 12.59 g/m*3 15.9 C 0 km/h
1646 03-09-2020 17:05:00 15.9 C 12.59 g/m*3 15.9 C 1.6 km/h
1647 03-09-2020 17:10:00 15.9 C 12.46 g/m*3 15.9 C 0 km/h
1648 03-09-2020 17:15:00 15.9 C 12.46 g/m*3 15.9 C 3.2 km/h
1649 03-09-2020 17:20:00 15.8 C 12.38 g/m*3 15.8 C 0 km/h
1650 03-09-2020 17:25:00 15.8 C 12.38 g/m*3 15.8 C 0 km/h
Sensor: Nr:Datum:Temp:Abs-Feuchte:Windchill:Wind:
Aussen-T/F 1651 03-09-2020 17:30:00 15.8 C 12.52 g/m*3 15.8 C 1.6 km/h
1652 03-09-2020 17:35:00 15.8 C 12.52 g/m*3 15.8 C 0 km/h
1653 03-09-2020 17:40:00 15.9 C 12.59 g/m*3 15.9 C 0 km/h
1654 03-09-2020 17:45:00 15.8 C 12.52 g/m*3 15.8 C 3.2 km/h
1655 03-09-2020 17:50:00 15.9 C 12.59 g/m*3 15.9 C 3.2 km/h
1656 03-09-2020 17:55:00 15.9 C 12.59 g/m*3 15.9 C 1.6 km/h
1657 03-09-2020 18:00:00 15.9 C 12.59 g/m*3 15.9 C 1.6 km/h
1658 03-09-2020 18:05:00 15.9 C 12.59 g/m*3 15.9 C 0 km/h
1659 03-09-2020 18:10:00 15.9 C 12.59 g/m*3 15.9 C 0 km/h
1660 03-09-2020 18:15:00 15.9 C 12.59 g/m*3 15.9 C 0 km/h
1661 03-09-2020 18:20:00 16.1 C 12.88 g/m*3 16.1 C 0 km/h
1662 03-09-2020 18:25:00 16.2 C 12.96 g/m*3 16.2 C 1.6 km/h
1663 03-09-2020 18:30:00 16.3 C 13.04 g/m*3 16.3 C 1.6 km/h
1664 03-09-2020 18:35:00 16.3 C 13.04 g/m*3 16.3 C 0 km/h
1665 03-09-2020 18:40:00 16.3 C 13.04 g/m*3 16.3 C 3.2 km/h
1666 03-09-2020 18:45:00 16.2 C 12.82 g/m*3 16.2 C 3.2 km/h
1667 03-09-2020 18:50:00 16.2 C 12.82 g/m*3 16.2 C 1.6 km/h
1668 03-09-2020 18:55:00 16.2 C 12.82 g/m*3 16.2 C 3.2 km/h
1669 03-09-2020 19:00:00 16.1 C 12.75 g/m*3 16.1 C 3.2 km/h
1670 03-09-2020 19:05:00 16.1 C 12.75 g/m*3 16.1 C 0 km/h
1671 03-09-2020 19:10:00 16.1 C 12.88 g/m*3 16.1 C 0 km/h
1672 03-09-2020 19:15:00 16.1 C 12.88 g/m*3 16.1 C 1.6 km/h
1673 03-09-2020 19:20:00 16.1 C 12.88 g/m*3 16.1 C 3.2 km/h
1674 03-09-2020 19:25:00 16 C 12.81 g/m*3 16 C 3.2 km/h
1675 03-09-2020 19:30:00 15.9 C 12.73 g/m*3 15.9 C 3.2 km/h
Sensor: Nr:Datum:Temp:Abs-Feuchte:Windchill:Wind:
Aussen-T/F 1676 03-09-2020 19:35:00 15.9 C 12.73 g/m*3 15.9 C 3.2 km/h
1677 03-09-2020 19:40:00 15.8 C 12.65 g/m*3 15.8 C 3.2 km/h
1678 03-09-2020 19:45:00 15.8 C 12.65 g/m*3 15.8 C 3.2 km/h
1679 03-09-2020 19:50:00 15.8 C 12.65 g/m*3 15.8 C 3.2 km/h
1680 03-09-2020 19:55:00 15.7 C 12.58 g/m*3 15.7 C 3.2 km/h
1681 03-09-2020 20:00:00 15.7 C 12.58 g/m*3 15.7 C 1.6 km/h
1682 03-09-2020 20:05:00 15.7 C 12.58 g/m*3 15.7 C 3.2 km/h
1683 03-09-2020 20:10:00 15.6 C 12.5 g/m*3 15.6 C 0 km/h
1684 03-09-2020 20:15:00 15.6 C 12.5 g/m*3 15.6 C 3.2 km/h
1685 03-09-2020 20:20:00 15.6 C 12.5 g/m*3 15.6 C 4.8 km/h
1686 03-09-2020 20:25:00 15.6 C 12.5 g/m*3 15.6 C 0 km/h
1687 03-09-2020 20:30:00 15.5 C 12.43 g/m*3 15.5 C 0 km/h
1688 03-09-2020 20:35:00 15.4 C 12.35 g/m*3 15.4 C 0 km/h
1689 03-09-2020 20:40:00 15.4 C 12.35 g/m*3 15.4 C 1.6 km/h
1690 03-09-2020 20:45:00 15.3 C 12.28 g/m*3 15.3 C 0 km/h
1691 03-09-2020 20:50:00 15.3 C 12.28 g/m*3 15.3 C 1.6 km/h
1692 03-09-2020 20:55:00 15.3 C 12.28 g/m*3 15.3 C 4.8 km/h
1693 03-09-2020 21:00:00 15.3 C 12.28 g/m*3 15.3 C 4.8 km/h
1694 03-09-2020 21:05:00 15.3 C 12.28 g/m*3 15.3 C 4.8 km/h
1695 03-09-2020 21:10:00 15.2 C 12.2 g/m*3 15.2 C 3.2 km/h
1696 03-09-2020 21:15:00 15.2 C 12.2 g/m*3 15.2 C 3.2 km/h
1697 03-09-2020 21:20:00 15.2 C 12.2 g/m*3 15.2 C 1.6 km/h
1698 03-09-2020 21:25:00 15.3 C 12.41 g/m*3 15.3 C 0 km/h
1699 03-09-2020 21:30:00 15.3 C 12.41 g/m*3 15.3 C 1.6 km/h
1700 03-09-2020 21:35:00 15.3 C 12.41 g/m*3 15.3 C 0 km/h
Sensor: Nr:Datum:Temp:Abs-Feuchte:Windchill:Wind:
Aussen-T/F 1701 03-09-2020 21:40:00 15.3 C 12.41 g/m*3 15.3 C 3.2 km/h
1702 03-09-2020 21:45:00 15.3 C 12.41 g/m*3 15.3 C 1.6 km/h
1703 03-09-2020 21:50:00 15.3 C 12.41 g/m*3 15.3 C 0 km/h
1704 03-09-2020 21:55:00 15.4 C 12.48 g/m*3 15.4 C 0 km/h
1705 03-09-2020 22:00:00 15.4 C 12.48 g/m*3 15.4 C 0 km/h
1706 03-09-2020 22:05:00 15.5 C 12.56 g/m*3 15.5 C 1.6 km/h
1707 03-09-2020 22:10:00 15.6 C 12.5 g/m*3 15.6 C 1.6 km/h
1708 03-09-2020 22:15:00 15.6 C 12.5 g/m*3 15.6 C 0 km/h
1709 03-09-2020 22:20:00 15.6 C 12.63 g/m*3 15.6 C 0 km/h
1710 03-09-2020 22:25:00 15.7 C 12.71 g/m*3 15.7 C 0 km/h
1711 03-09-2020 22:30:00 15.7 C 12.58 g/m*3 15.7 C 1.6 km/h
1712 03-09-2020 22:35:00 15.7 C 12.58 g/m*3 15.7 C 1.6 km/h
1713 03-09-2020 22:40:00 15.7 C 12.58 g/m*3 15.7 C 0 km/h
1714 03-09-2020 22:45:00 15.7 C 12.58 g/m*3 15.7 C 1.6 km/h
1715 03-09-2020 22:50:00 15.7 C 12.58 g/m*3 15.7 C 0 km/h
1716 03-09-2020 22:55:00 15.7 C 12.58 g/m*3 15.7 C 0 km/h
1717 03-09-2020 23:00:00 15.7 C 12.58 g/m*3 15.7 C 0 km/h
1718 03-09-2020 23:05:00 15.7 C 12.58 g/m*3 15.7 C 0 km/h
1719 03-09-2020 23:10:00 15.7 C 12.58 g/m*3 15.7 C 0 km/h
1720 03-09-2020 23:15:00 15.7 C 12.58 g/m*3 15.7 C 0 km/h
1721 03-09-2020 23:20:00 15.7 C 12.58 g/m*3 15.7 C 0 km/h
1722 03-09-2020 23:25:00 15.7 C 12.58 g/m*3 15.7 C 0 km/h
1723 03-09-2020 23:30:00 15.7 C 12.58 g/m*3 15.7 C 0 km/h
1724 03-09-2020 23:35:00 15.8 C 12.65 g/m*3 15.8 C 0 km/h
1725 03-09-2020 23:40:00 15.8 C 12.65 g/m*3 15.8 C 1.6 km/h
Sensor: Nr:Datum:Temp:Abs-Feuchte:Windchill:Wind:
Aussen-T/F 1726 03-09-2020 23:45:00 15.8 C 12.65 g/m*3 15.8 C 0 km/h
1727 03-09-2020 23:50:00 15.9 C 12.73 g/m*3 15.9 C 0 km/h
1728 03-09-2020 23:55:00 15.9 C 12.73 g/m*3 15.9 C 0 km/h
1729 04-09-2020 00:00:00 15.8 C 12.65 g/m*3 15.8 C 0 km/h
1730 04-09-2020 00:05:00 15.8 C 12.65 g/m*3 15.8 C 0 km/h
1731 04-09-2020 00:10:00 15.8 C 12.65 g/m*3 15.8 C 0 km/h
1732 04-09-2020 00:15:00 15.8 C 12.65 g/m*3 15.8 C 0 km/h
1733 04-09-2020 00:20:00 15.8 C 12.65 g/m*3 15.8 C 0 km/h
1734 04-09-2020 00:25:00 15.8 C 12.65 g/m*3 15.8 C 0 km/h
1735 04-09-2020 00:30:00 15.8 C 12.65 g/m*3 15.8 C 0 km/h
1736 04-09-2020 00:35:00 15.8 C 12.65 g/m*3 15.8 C 0 km/h
1737 04-09-2020 00:40:00 15.8 C 12.65 g/m*3 15.8 C 0 km/h
1738 04-09-2020 00:45:00 15.9 C 12.73 g/m*3 15.9 C 0 km/h
1739 04-09-2020 00:50:00 15.9 C 12.73 g/m*3 15.9 C 0 km/h
1740 04-09-2020 00:55:00 15.9 C 12.73 g/m*3 15.9 C 0 km/h
1741 04-09-2020 01:00:00 15.9 C 12.73 g/m*3 15.9 C 0 km/h
1742 04-09-2020 01:05:00 15.8 C 12.65 g/m*3 15.8 C 0 km/h
1743 04-09-2020 01:10:00 15.8 C 12.65 g/m*3 15.8 C 0 km/h
1744 04-09-2020 01:15:00 15.8 C 12.65 g/m*3 15.8 C 0 km/h
1745 04-09-2020 01:20:00 15.8 C 12.65 g/m*3 15.8 C 0 km/h
1746 04-09-2020 01:25:00 15.7 C 12.58 g/m*3 15.7 C 0 km/h
1747 04-09-2020 01:30:00 15.7 C 12.58 g/m*3 15.7 C 0 km/h
1748 04-09-2020 01:35:00 15.7 C 12.58 g/m*3 15.7 C 1.6 km/h
1749 04-09-2020 01:40:00 15.8 C 12.65 g/m*3 15.8 C 1.6 km/h
1750 04-09-2020 01:45:00 15.8 C 12.65 g/m*3 15.8 C 0 km/h
Sensor: Nr:Datum:Temp:Abs-Feuchte:Windchill:Wind:
Aussen-T/F 1751 04-09-2020 01:50:00 15.8 C 12.65 g/m*3 15.8 C 1.6 km/h
1752 04-09-2020 01:55:00 15.8 C 12.65 g/m*3 15.8 C 0 km/h
1753 04-09-2020 02:00:00 15.8 C 12.52 g/m*3 15.8 C 3.2 km/h
1754 04-09-2020 02:05:00 15.7 C 12.44 g/m*3 15.7 C 1.6 km/h
1755 04-09-2020 02:10:00 15.7 C 12.44 g/m*3 15.7 C 1.6 km/h
1756 04-09-2020 02:15:00 15.7 C 12.44 g/m*3 15.7 C 0 km/h
1757 04-09-2020 02:20:00 15.7 C 12.44 g/m*3 15.7 C 0 km/h
1758 04-09-2020 02:25:00 15.7 C 12.44 g/m*3 15.7 C 1.6 km/h
1759 04-09-2020 02:30:00 15.8 C 12.52 g/m*3 15.8 C 1.6 km/h
1760 04-09-2020 02:35:00 15.8 C 12.52 g/m*3 15.8 C 1.6 km/h
1761 04-09-2020 02:40:00 15.9 C 12.59 g/m*3 15.9 C 1.6 km/h
1762 04-09-2020 02:45:00 16 C 12.67 g/m*3 16 C 0 km/h
1763 04-09-2020 02:50:00 16.1 C 12.61 g/m*3 16.1 C 0 km/h
1764 04-09-2020 02:55:00 16.2 C 12.82 g/m*3 16.2 C 0 km/h
1765 04-09-2020 03:00:00 16.3 C 12.9 g/m*3 16.3 C 0 km/h
1766 04-09-2020 03:05:00 16.4 C 12.98 g/m*3 16.4 C 1.6 km/h
1767 04-09-2020 03:10:00 16.4 C 12.84 g/m*3 16.4 C 3.2 km/h
1768 04-09-2020 03:15:00 16.4 C 12.84 g/m*3 16.4 C 4.8 km/h
1769 04-09-2020 03:20:00 16.4 C 12.84 g/m*3 16.4 C 0 km/h
1770 04-09-2020 03:25:00 16.4 C 12.84 g/m*3 16.4 C 0 km/h
1771 04-09-2020 03:30:00 16.4 C 12.7 g/m*3 16.4 C 0 km/h
1772 04-09-2020 03:35:00 16.5 C 12.78 g/m*3 16.5 C 0 km/h
1773 04-09-2020 03:40:00 16.6 C 12.86 g/m*3 16.6 C 0 km/h
1774 04-09-2020 03:45:00 16.6 C 12.86 g/m*3 16.6 C 0 km/h
1775 04-09-2020 03:50:00 16.6 C 12.86 g/m*3 16.6 C 0 km/h
Sensor: Nr:Datum:Temp:Abs-Feuchte:Windchill:Wind:
Aussen-T/F 1776 04-09-2020 03:55:00 16.6 C 12.86 g/m*3 16.6 C 0 km/h
1777 04-09-2020 04:00:00 16.6 C 12.86 g/m*3 16.6 C 0 km/h
1778 04-09-2020 04:05:00 16.6 C 12.71 g/m*3 16.6 C 0 km/h
1779 04-09-2020 04:10:00 16.6 C 12.71 g/m*3 16.6 C 0 km/h
1780 04-09-2020 04:15:00 16.6 C 12.71 g/m*3 16.6 C 0 km/h
1781 04-09-2020 04:20:00 16.7 C 12.79 g/m*3 16.7 C 0 km/h
1782 04-09-2020 04:25:00 16.8 C 13.01 g/m*3 16.8 C 0 km/h
1783 04-09-2020 04:30:00 16.8 C 12.87 g/m*3 16.8 C 0 km/h
1784 04-09-2020 04:35:00 16.8 C 12.87 g/m*3 16.8 C 0 km/h
1785 04-09-2020 04:40:00 16.8 C 12.87 g/m*3 16.8 C 0 km/h
1786 04-09-2020 04:45:00 16.7 C 12.79 g/m*3 16.7 C 0 km/h
1787 04-09-2020 04:50:00 16.7 C 12.79 g/m*3 16.7 C 0 km/h
1788 04-09-2020 04:55:00 16.7 C 12.79 g/m*3 16.7 C 0 km/h
1789 04-09-2020 05:00:00 16.7 C 12.79 g/m*3 16.7 C 0 km/h
1790 04-09-2020 05:05:00 16.7 C 12.79 g/m*3 16.7 C 0 km/h
1791 04-09-2020 05:10:00 16.7 C 12.79 g/m*3 16.7 C 0 km/h
1792 04-09-2020 05:15:00 16.7 C 12.79 g/m*3 16.7 C 0 km/h
1793 04-09-2020 05:20:00 16.7 C 12.79 g/m*3 16.7 C 0 km/h
1794 04-09-2020 05:25:00 16.7 C 12.79 g/m*3 16.7 C 0 km/h
1795 04-09-2020 05:30:00 16.7 C 12.79 g/m*3 16.7 C 0 km/h
1796 04-09-2020 05:35:00 16.7 C 12.93 g/m*3 16.7 C 0 km/h
1797 04-09-2020 05:40:00 16.7 C 12.93 g/m*3 16.7 C 0 km/h
1798 04-09-2020 05:45:00 16.7 C 12.93 g/m*3 16.7 C 0 km/h
1799 04-09-2020 05:50:00 16.7 C 12.93 g/m*3 16.7 C 0 km/h
1800 04-09-2020 05:55:00 16.7 C 12.93 g/m*3 16.7 C 0 km/h
Sensor: Nr:Datum:Temp:Abs-Feuchte:Windchill:Wind:
Aussen-T/F 1801 04-09-2020 06:00:00 16.6 C 12.86 g/m*3 16.6 C 0 km/h
1802 04-09-2020 06:05:00 16.6 C 12.71 g/m*3 16.6 C 0 km/h
1803 04-09-2020 06:10:00 16.6 C 12.71 g/m*3 16.6 C 4.8 km/h
1804 04-09-2020 06:15:00 16.5 C 12.64 g/m*3 16.5 C 4.8 km/h
1805 04-09-2020 06:20:00 16.5 C 12.64 g/m*3 16.5 C 3.2 km/h
1806 04-09-2020 06:25:00 16.5 C 12.64 g/m*3 16.5 C 0 km/h
1807 04-09-2020 06:30:00 16.6 C 12.71 g/m*3 16.6 C 0 km/h
1808 04-09-2020 06:35:00 16.6 C 12.71 g/m*3 16.6 C 3.2 km/h
1809 04-09-2020 06:40:00 16.6 C 12.57 g/m*3 16.6 C 1.6 km/h
1810 04-09-2020 06:45:00 16.6 C 12.71 g/m*3 16.6 C 0 km/h
1811 04-09-2020 06:50:00 16.6 C 12.71 g/m*3 16.6 C 0 km/h
1812 04-09-2020 06:55:00 16.7 C 12.79 g/m*3 16.7 C 3.2 km/h
1813 04-09-2020 07:00:00 16.7 C 12.65 g/m*3 16.7 C 3.2 km/h
1814 04-09-2020 07:05:00 16.7 C 12.65 g/m*3 16.7 C 3.2 km/h
1815 04-09-2020 07:10:00 16.7 C 12.65 g/m*3 16.7 C 0 km/h
1816 04-09-2020 07:15:00 16.7 C 12.65 g/m*3 16.7 C 0 km/h
1817 04-09-2020 07:20:00 16.8 C 12.72 g/m*3 16.8 C 0 km/h
1818 04-09-2020 07:25:00 16.8 C 12.72 g/m*3 16.8 C 0 km/h
1819 04-09-2020 07:30:00 16.8 C 12.72 g/m*3 16.8 C 3.2 km/h
1820 04-09-2020 07:35:00 16.8 C 12.72 g/m*3 16.8 C 0 km/h
1821 04-09-2020 07:40:00 16.8 C 12.58 g/m*3 16.8 C 0 km/h
1822 04-09-2020 07:45:00 16.8 C 12.72 g/m*3 16.8 C 0 km/h
1823 04-09-2020 07:50:00 16.9 C 12.8 g/m*3 16.9 C 0 km/h
1824 04-09-2020 07:55:00 16.9 C 12.8 g/m*3 16.9 C 0 km/h
1825 04-09-2020 08:00:00 17 C 13.02 g/m*3 17 C 0 km/h
Sensor: Nr:Datum:Temp:Abs-Feuchte:Windchill:Wind:
Aussen-T/F 1826 04-09-2020 08:05:00 17 C 13.02 g/m*3 17 C 0 km/h
1827 04-09-2020 08:10:00 17.1 C 12.96 g/m*3 17.1 C 0 km/h
1828 04-09-2020 08:15:00 17.1 C 12.96 g/m*3 17.1 C 3.2 km/h
1829 04-09-2020 08:20:00 17.1 C 12.96 g/m*3 17.1 C 1.6 km/h
1830 04-09-2020 08:25:00 17.1 C 12.96 g/m*3 17.1 C 0 km/h
1831 04-09-2020 08:30:00 17.2 C 13.03 g/m*3 17.2 C 0 km/h
1832 04-09-2020 08:35:00 17.2 C 13.03 g/m*3 17.2 C 0 km/h
1833 04-09-2020 08:40:00 17.2 C 12.89 g/m*3 17.2 C 0 km/h
1834 04-09-2020 08:45:00 17.3 C 12.96 g/m*3 17.3 C 0 km/h
1835 04-09-2020 08:50:00 17.4 C 13.19 g/m*3 17.4 C 0 km/h
1836 04-09-2020 08:55:00 17.4 C 13.04 g/m*3 17.4 C 0 km/h
1837 04-09-2020 09:00:00 17.6 C 13.2 g/m*3 17.6 C 0 km/h
1838 04-09-2020 09:05:00 17.7 C 13.28 g/m*3 17.7 C 0 km/h
1839 04-09-2020 09:10:00 17.9 C 12.98 g/m*3 17.9 C 4.8 km/h
1840 04-09-2020 09:15:00 18.1 C 13.29 g/m*3 18.1 C 1.6 km/h
1841 04-09-2020 09:20:00 18.3 C 13.45 g/m*3 18.3 C 1.6 km/h
1842 04-09-2020 09:25:00 18.4 C 13.37 g/m*3 18.4 C 1.6 km/h
1843 04-09-2020 09:30:00 18.6 C 13.53 g/m*3 18.6 C 1.6 km/h
1844 04-09-2020 09:35:00 18.6 C 13.53 g/m*3 18.6 C 0 km/h
1845 04-09-2020 09:40:00 18.7 C 13.61 g/m*3 18.7 C 0 km/h
1846 04-09-2020 09:45:00 18.7 C 13.61 g/m*3 18.7 C 1.6 km/h
1847 04-09-2020 09:50:00 18.8 C 13.53 g/m*3 18.8 C 1.6 km/h
1848 04-09-2020 09:55:00 18.8 C 13.53 g/m*3 18.8 C 0 km/h
1849 04-09-2020 10:00:00 18.9 C 13.61 g/m*3 18.9 C 0 km/h
1850 04-09-2020 10:05:00 18.9 C 13.61 g/m*3 18.9 C 0 km/h
Sensor: Nr:Datum:Temp:Abs-Feuchte:Windchill:Wind:
Aussen-T/F 1851 04-09-2020 10:10:00 18.9 C 13.28 g/m*3 18.9 C 0 km/h
1852 04-09-2020 10:15:00 19.1 C 13.61 g/m*3 19.1 C 0 km/h
1853 04-09-2020 10:20:00 19.1 C 13.61 g/m*3 19.1 C 0 km/h
1854 04-09-2020 10:25:00 19.2 C 13.52 g/m*3 19.2 C 0 km/h
1855 04-09-2020 10:30:00 19.3 C 13.77 g/m*3 19.3 C 0 km/h
1856 04-09-2020 10:35:00 19.4 C 13.85 g/m*3 19.4 C 0 km/h
1857 04-09-2020 10:40:00 19.4 C 13.68 g/m*3 19.4 C 0 km/h
1858 04-09-2020 10:45:00 19.6 C 13.84 g/m*3 19.6 C 0 km/h
1859 04-09-2020 10:50:00 19.6 C 13.84 g/m*3 19.6 C 0 km/h
1860 04-09-2020 10:55:00 19.7 C 13.92 g/m*3 19.7 C 1.6 km/h
1861 04-09-2020 11:00:00 19.7 C 13.58 g/m*3 19.7 C 4.8 km/h
1862 04-09-2020 11:05:00 19.7 C 13.75 g/m*3 19.7 C 1.6 km/h
1863 04-09-2020 11:10:00 19.8 C 13.66 g/m*3 19.8 C 1.6 km/h
1864 04-09-2020 11:15:00 19.9 C 13.92 g/m*3 19.9 C 0 km/h
1865 04-09-2020 11:20:00 20.1 C 13.91 g/m*3 20.1 C 0 km/h
1866 04-09-2020 11:25:00 20.3 C 14.07 g/m*3 20.3 C 0 km/h
1867 04-09-2020 11:30:00 20.4 C 13.8 g/m*3 20.4 C 3.2 km/h
1868 04-09-2020 11:35:00 20.6 C 13.78 g/m*3 20.6 C 0 km/h
1869 04-09-2020 11:40:00 20.7 C 14.04 g/m*3 20.7 C 0 km/h
1870 04-09-2020 11:45:00 20.9 C 13.66 g/m*3 20.9 C 4.8 km/h
1871 04-09-2020 11:50:00 21.1 C 13.45 g/m*3 21.1 C 3.2 km/h
1872 04-09-2020 11:55:00 21.3 C 13.98 g/m*3 21.3 C 3.2 km/h
1873 04-09-2020 12:00:00 21.5 C 13.77 g/m*3 21.5 C 4.8 km/h
1874 04-09-2020 12:05:00 21.7 C 13.54 g/m*3 21.7 C 12.9 km/h
1875 04-09-2020 12:10:00 21.9 C 13.89 g/m*3 21.9 C 12.9 km/h
Sensor: Nr:Datum:Temp:Abs-Feuchte:Windchill:Wind:
Aussen-T/F 1876 04-09-2020 12:15:00 22.1 C 13.86 g/m*3 22.1 C 9.7 km/h
1877 04-09-2020 12:20:00 22.3 C 14.02 g/m*3 22.3 C 11.3 km/h
1878 04-09-2020 12:25:00 22.4 C 14.1 g/m*3 22.4 C 9.7 km/h
1879 04-09-2020 12:30:00 22.6 C 13.86 g/m*3 22.6 C 9.7 km/h
1880 04-09-2020 12:35:00 22.8 C 14.02 g/m*3 22.8 C 11.3 km/h
1881 04-09-2020 12:40:00 22.9 C 14.51 g/m*3 22.9 C 11.3 km/h
1882 04-09-2020 12:45:00 22.9 C 14.31 g/m*3 22.9 C 9.7 km/h
1883 04-09-2020 12:50:00 23.1 C 14.47 g/m*3 23.1 C 9.7 km/h
1884 04-09-2020 12:55:00 23.2 C 14.34 g/m*3 23.2 C 12.9 km/h
1885 04-09-2020 13:00:00 23.3 C 14.64 g/m*3 23.3 C 11.3 km/h
1886 04-09-2020 13:05:00 23.6 C 14.68 g/m*3 23.6 C 14.5 km/h
1887 04-09-2020 13:10:00 23.8 C 14.41 g/m*3 23.8 C 16.1 km/h
1888 04-09-2020 13:15:00 23.9 C 14.49 g/m*3 23.9 C 12.9 km/h
1889 04-09-2020 13:20:00 24.2 C 14.52 g/m*3 24.2 C 12.9 km/h
1890 04-09-2020 13:25:00 24.4 C 14.47 g/m*3 24.4 C 12.9 km/h
1891 04-09-2020 13:30:00 24.7 C 14.49 g/m*3 24.7 C 19.3 km/h
1892 04-09-2020 13:35:00 24.8 C 14.57 g/m*3 24.8 C 19.3 km/h
1893 04-09-2020 13:40:00 25.1 C 14.35 g/m*3 25.1 C 14.5 km/h
1894 04-09-2020 13:45:00 25.3 C 14.98 g/m*3 25.3 C 11.3 km/h
1895 04-09-2020 13:50:00 25.4 C 14.83 g/m*3 25.4 C 11.3 km/h
1896 04-09-2020 13:55:00 25.5 C 14.91 g/m*3 25.5 C 14.5 km/h
1897 04-09-2020 14:00:00 25.6 C 14.52 g/m*3 25.6 C 12.9 km/h
1898 04-09-2020 14:05:00 25.7 C 14.6 g/m*3 25.7 C 14.5 km/h
1899 04-09-2020 14:10:00 25.6 C 14.76 g/m*3 25.6 C 11.3 km/h
1900 04-09-2020 14:15:00 25.6 C 14.52 g/m*3 25.6 C 12.9 km/h
Sensor: Nr:Datum:Temp:Abs-Feuchte:Windchill:Wind:
Aussen-T/F 1901 04-09-2020 14:20:00 25.5 C 14.44 g/m*3 25.5 C 12.9 km/h
1902 04-09-2020 14:25:00 25.5 C 14.68 g/m*3 25.5 C 12.9 km/h
1903 04-09-2020 14:30:00 25.6 C 14.76 g/m*3 25.6 C 6.4 km/h
1904 04-09-2020 14:35:00 25.7 C 14.6 g/m*3 25.7 C 9.7 km/h
1905 04-09-2020 14:40:00 25.7 C 14.36 g/m*3 25.7 C 9.7 km/h
1906 04-09-2020 14:45:00 25.8 C 14.93 g/m*3 25.8 C 4.8 km/h
1907 04-09-2020 14:50:00 25.9 C 15.49 g/m*3 25.9 C 3.2 km/h
1908 04-09-2020 14:55:00 25.9 C 14.28 g/m*3 25.9 C 11.3 km/h
1909 04-09-2020 15:00:00 25.7 C 14.6 g/m*3 25.7 C 4.8 km/h
1910 04-09-2020 15:05:00 25.7 C 14.6 g/m*3 25.7 C 9.7 km/h
1911 04-09-2020 15:10:00 25.6 C 14.52 g/m*3 25.6 C 3.2 km/h
1912 04-09-2020 15:15:00 25.6 C 14.52 g/m*3 25.6 C 6.4 km/h
1913 04-09-2020 15:20:00 25.6 C 14.52 g/m*3 25.6 C 4.8 km/h
1914 04-09-2020 15:25:00 25.6 C 14.52 g/m*3 25.6 C 6.4 km/h
1915 04-09-2020 15:30:00 25.7 C 14.6 g/m*3 25.7 C 6.4 km/h
1916 04-09-2020 15:35:00 25.8 C 14.93 g/m*3 25.8 C 3.2 km/h
1917 04-09-2020 15:40:00 25.8 C 14.69 g/m*3 25.8 C 6.4 km/h
1918 04-09-2020 15:45:00 25.8 C 14.93 g/m*3 25.8 C 0 km/h
1919 04-09-2020 15:50:00 25.8 C 14.69 g/m*3 25.8 C 3.2 km/h
1920 04-09-2020 15:55:00 25.9 C 14.53 g/m*3 25.9 C 4.8 km/h
1921 04-09-2020 16:00:00 25.9 C 14.53 g/m*3 25.9 C 3.2 km/h
1922 04-09-2020 16:05:00 26 C 14.61 g/m*3 26 C 6.4 km/h
1923 04-09-2020 16:10:00 26.1 C 14.44 g/m*3 26.1 C 3.2 km/h
1924 04-09-2020 16:15:00 26.2 C 14.52 g/m*3 26.2 C 3.2 km/h
1925 04-09-2020 16:20:00 26.3 C 14.85 g/m*3 26.3 C 3.2 km/h
Sensor: Nr:Datum:Temp:Abs-Feuchte:Windchill:Wind:
Aussen-T/F 1926 04-09-2020 16:25:00 26.2 C 14.28 g/m*3 26.2 C 4.8 km/h
1927 04-09-2020 16:30:00 26.2 C 14.52 g/m*3 26.2 C 1.6 km/h
1928 04-09-2020 16:35:00 26.3 C 14.61 g/m*3 26.3 C 3.2 km/h
1929 04-09-2020 16:40:00 26.4 C 14.44 g/m*3 26.4 C 3.2 km/h
1930 04-09-2020 16:45:00 26.5 C 14.77 g/m*3 26.5 C 0 km/h
1931 04-09-2020 16:50:00 26.9 C 15.36 g/m*3 26.9 C 0 km/h
1932 04-09-2020 16:55:00 27.1 C 14.49 g/m*3 27.1 C 3.2 km/h
1933 04-09-2020 17:00:00 27.3 C 14.91 g/m*3 27.3 C 0 km/h
1934 04-09-2020 17:05:00 27.6 C 14.63 g/m*3 27.6 C 1.6 km/h
1935 04-09-2020 17:10:00 28.1 C 15.04 g/m*3 28.1 C 4.8 km/h
1936 04-09-2020 17:15:00 28.4 C 14.73 g/m*3 28.4 C 6.4 km/h
1937 04-09-2020 17:20:00 28.8 C 14.77 g/m*3 28.8 C 6.4 km/h
1938 04-09-2020 17:25:00 28.8 C 14.77 g/m*3 28.8 C 8.1 km/h
1939 04-09-2020 17:30:00 28.7 C 15.26 g/m*3 28.7 C 0 km/h
1940 04-09-2020 17:35:00 28.6 C 16.02 g/m*3 28.6 C 1.6 km/h
1941 04-09-2020 17:40:00 28.3 C 16.59 g/m*3 28.3 C 0 km/h
1942 04-09-2020 17:45:00 28.1 C 15.59 g/m*3 28.1 C 0 km/h
1943 04-09-2020 17:50:00 27.8 C 16.41 g/m*3 27.8 C 0 km/h
1944 04-09-2020 17:55:00 27.4 C 15.79 g/m*3 27.4 C 0 km/h
1945 04-09-2020 18:00:00 27.1 C 16.04 g/m*3 27.1 C 0 km/h
1946 04-09-2020 18:05:00 26.7 C 15.44 g/m*3 26.7 C 9.7 km/h
1947 04-09-2020 18:10:00 26.2 C 15.51 g/m*3 26.2 C 8.1 km/h
1948 04-09-2020 18:15:00 25.8 C 15.41 g/m*3 25.8 C 9.7 km/h
1949 04-09-2020 18:20:00 25.4 C 15.54 g/m*3 25.4 C 9.7 km/h
1950 04-09-2020 18:25:00 25.4 C 15.77 g/m*3 25.4 C 8.1 km/h
Sensor: Nr:Datum:Temp:Abs-Feuchte:Windchill:Wind:
Aussen-T/F 1951 04-09-2020 18:30:00 25.4 C 16.01 g/m*3 25.4 C 6.4 km/h
1952 04-09-2020 18:35:00 25.4 C 16.01 g/m*3 25.4 C 11.3 km/h
1953 04-09-2020 18:40:00 25.2 C 15.83 g/m*3 25.2 C 6.4 km/h
1954 04-09-2020 18:45:00 24.9 C 15.79 g/m*3 24.9 C 8.1 km/h
1955 04-09-2020 18:50:00 24.6 C 15.75 g/m*3 24.6 C 8.1 km/h
1956 04-09-2020 18:55:00 24.4 C 16.02 g/m*3 24.4 C 8.1 km/h
1957 04-09-2020 19:00:00 24.2 C 15.84 g/m*3 24.2 C 6.4 km/h
1958 04-09-2020 19:05:00 24 C 15.88 g/m*3 24 C 3.2 km/h
1959 04-09-2020 19:10:00 23.9 C 15.79 g/m*3 23.9 C 3.2 km/h
1960 04-09-2020 19:15:00 23.8 C 15.92 g/m*3 23.8 C 3.2 km/h
1961 04-09-2020 19:20:00 23.6 C 15.95 g/m*3 23.6 C 4.8 km/h
1962 04-09-2020 19:25:00 23.4 C 15.77 g/m*3 23.4 C 4.8 km/h
1963 04-09-2020 19:30:00 23.3 C 15.68 g/m*3 23.3 C 1.6 km/h
1964 04-09-2020 19:35:00 23.2 C 15.8 g/m*3 23.2 C 4.8 km/h
1965 04-09-2020 19:40:00 23.1 C 15.71 g/m*3 23.1 C 4.8 km/h
1966 04-09-2020 19:45:00 22.9 C 15.74 g/m*3 22.9 C 6.4 km/h
1967 04-09-2020 19:50:00 22.8 C 15.85 g/m*3 22.8 C 4.8 km/h
1968 04-09-2020 19:55:00 22.7 C 15.96 g/m*3 22.7 C 4.8 km/h
1969 04-09-2020 20:00:00 22.5 C 15.78 g/m*3 22.5 C 4.8 km/h
1970 04-09-2020 20:05:00 22.3 C 15.8 g/m*3 22.3 C 8.1 km/h
1971 04-09-2020 20:10:00 22.2 C 15.71 g/m*3 22.2 C 0 km/h
1972 04-09-2020 20:15:00 22 C 15.53 g/m*3 22 C 0 km/h
1973 04-09-2020 20:20:00 21.7 C 15.45 g/m*3 21.7 C 0 km/h
1974 04-09-2020 20:25:00 21.4 C 15.37 g/m*3 21.4 C 0 km/h
1975 04-09-2020 20:30:00 21.2 C 15.2 g/m*3 21.2 C 0 km/h
Sensor: Nr:Datum:Temp:Abs-Feuchte:Windchill:Wind:
Aussen-T/F 1976 04-09-2020 20:35:00 20.9 C 15.12 g/m*3 20.9 C 0 km/h
1977 04-09-2020 20:40:00 20.7 C 15.12 g/m*3 20.7 C 0 km/h
1978 04-09-2020 20:45:00 20.4 C 15.04 g/m*3 20.4 C 0 km/h
1979 04-09-2020 20:50:00 20.3 C 15.3 g/m*3 20.3 C 4.8 km/h
1980 04-09-2020 20:55:00 20.3 C 15.3 g/m*3 20.3 C 0 km/h
1981 04-09-2020 21:00:00 20.2 C 15.21 g/m*3 20.2 C 1.6 km/h
1982 04-09-2020 21:05:00 20.1 C 15.3 g/m*3 20.1 C 4.8 km/h
1983 04-09-2020 21:10:00 20.1 C 15.3 g/m*3 20.1 C 3.2 km/h
1984 04-09-2020 21:15:00 20.1 C 15.3 g/m*3 20.1 C 3.2 km/h
1985 04-09-2020 21:20:00 20.1 C 15.12 g/m*3 20.1 C 3.2 km/h
1986 04-09-2020 21:25:00 20.1 C 15.12 g/m*3 20.1 C 3.2 km/h
1987 04-09-2020 21:30:00 20.1 C 15.12 g/m*3 20.1 C 1.6 km/h
1988 04-09-2020 21:35:00 20.1 C 15.12 g/m*3 20.1 C 1.6 km/h
1989 04-09-2020 21:40:00 20.1 C 15.12 g/m*3 20.1 C 1.6 km/h
1990 04-09-2020 21:45:00 20 C 15.04 g/m*3 20 C 1.6 km/h
1991 04-09-2020 21:50:00 20 C 15.04 g/m*3 20 C 0 km/h
1992 04-09-2020 21:55:00 19.9 C 14.95 g/m*3 19.9 C 0 km/h
1993 04-09-2020 22:00:00 19.9 C 14.95 g/m*3 19.9 C 0 km/h
1994 04-09-2020 22:05:00 19.9 C 14.95 g/m*3 19.9 C 1.6 km/h
1995 04-09-2020 22:10:00 19.8 C 14.86 g/m*3 19.8 C 1.6 km/h
1996 04-09-2020 22:15:00 19.8 C 14.86 g/m*3 19.8 C 1.6 km/h
1997 04-09-2020 22:20:00 19.8 C 14.86 g/m*3 19.8 C 1.6 km/h
1998 04-09-2020 22:25:00 19.7 C 14.77 g/m*3 19.7 C 0 km/h
1999 04-09-2020 22:30:00 19.6 C 14.69 g/m*3 19.6 C 0 km/h
2000 04-09-2020 22:35:00 19.4 C 14.35 g/m*3 19.4 C 0 km/h
Sensor: Nr:Datum:Temp:Abs-Feuchte:Windchill:Wind:
Aussen-T/F 2001 04-09-2020 22:40:00 19.2 C 14.35 g/m*3 19.2 C 0 km/h
2002 04-09-2020 22:45:00 19.1 C 14.26 g/m*3 19.1 C 0 km/h
2003 04-09-2020 22:50:00 19 C 14.34 g/m*3 19 C 0 km/h
2004 04-09-2020 22:55:00 18.9 C 14.42 g/m*3 18.9 C 0 km/h
2005 04-09-2020 23:00:00 18.9 C 14.42 g/m*3 18.9 C 0 km/h
2006 04-09-2020 23:05:00 18.8 C 14.33 g/m*3 18.8 C 0 km/h
2007 04-09-2020 23:10:00 18.8 C 14.49 g/m*3 18.8 C 0 km/h
2008 04-09-2020 23:15:00 18.8 C 14.49 g/m*3 18.8 C 0 km/h
2009 04-09-2020 23:20:00 18.8 C 14.49 g/m*3 18.8 C 0 km/h
2010 04-09-2020 23:25:00 18.8 C 14.49 g/m*3 18.8 C 0 km/h
2011 04-09-2020 23:30:00 18.7 C 14.41 g/m*3 18.7 C 0 km/h
2012 04-09-2020 23:35:00 18.7 C 14.57 g/m*3 18.7 C 0 km/h
2013 04-09-2020 23:40:00 18.7 C 14.57 g/m*3 18.7 C 0 km/h
2014 04-09-2020 23:45:00 18.6 C 14.48 g/m*3 18.6 C 0 km/h
2015 04-09-2020 23:50:00 18.6 C 14.48 g/m*3 18.6 C 0 km/h
2016 04-09-2020 23:55:00 18.5 C 14.4 g/m*3 18.5 C 0 km/h
2017 05-09-2020 00:00:00 18.4 C 14.16 g/m*3 18.4 C 0 km/h
2018 05-09-2020 00:05:00 18.3 C 14.23 g/m*3 18.3 C 1.6 km/h
2019 05-09-2020 00:10:00 18.2 C 13.99 g/m*3 18.2 C 4.8 km/h
2020 05-09-2020 00:15:00 18.1 C 14.06 g/m*3 18.1 C 0 km/h
2021 05-09-2020 00:20:00 17.9 C 13.89 g/m*3 17.9 C 3.2 km/h
2022 05-09-2020 00:25:00 17.8 C 13.81 g/m*3 17.8 C 4.8 km/h
2023 05-09-2020 00:30:00 17.7 C 13.73 g/m*3 17.7 C 3.2 km/h
2024 05-09-2020 00:35:00 17.6 C 13.65 g/m*3 17.6 C 3.2 km/h
2025 05-09-2020 00:40:00 17.6 C 13.8 g/m*3 17.6 C 3.2 km/h
Sensor: Nr:Datum:Temp:Abs-Feuchte:Windchill:Wind:
Aussen-T/F 2026 05-09-2020 00:45:00 17.4 C 13.49 g/m*3 17.4 C 0 km/h
2027 05-09-2020 00:50:00 17.3 C 13.41 g/m*3 17.3 C 0 km/h
2028 05-09-2020 00:55:00 17.2 C 13.47 g/m*3 17.2 C 0 km/h
2029 05-09-2020 01:00:00 17.2 C 13.47 g/m*3 17.2 C 0 km/h
2030 05-09-2020 01:05:00 17.1 C 13.39 g/m*3 17.1 C 0 km/h
2031 05-09-2020 01:10:00 16.9 C 13.23 g/m*3 16.9 C 0 km/h
2032 05-09-2020 01:15:00 16.8 C 13.15 g/m*3 16.8 C 0 km/h
2033 05-09-2020 01:20:00 16.8 C 13.15 g/m*3 16.8 C 0 km/h
2034 05-09-2020 01:25:00 16.7 C 13.07 g/m*3 16.7 C 0 km/h
2035 05-09-2020 01:30:00 16.6 C 13 g/m*3 16.6 C 0 km/h
2036 05-09-2020 01:35:00 16.4 C 12.84 g/m*3 16.4 C 0 km/h
2037 05-09-2020 01:40:00 16.3 C 12.9 g/m*3 16.3 C 0 km/h
2038 05-09-2020 01:45:00 16.3 C 12.9 g/m*3 16.3 C 0 km/h
2039 05-09-2020 01:50:00 16.2 C 12.82 g/m*3 16.2 C 0 km/h
2040 05-09-2020 01:55:00 16.1 C 12.75 g/m*3 16.1 C 0 km/h
2041 05-09-2020 02:00:00 16 C 12.67 g/m*3 16 C 0 km/h
2042 05-09-2020 02:05:00 15.9 C 12.59 g/m*3 15.9 C 0 km/h
2043 05-09-2020 02:10:00 15.9 C 12.59 g/m*3 15.9 C 0 km/h
2044 05-09-2020 02:15:00 15.8 C 12.65 g/m*3 15.8 C 0 km/h
2045 05-09-2020 02:20:00 15.8 C 12.65 g/m*3 15.8 C 0 km/h
2046 05-09-2020 02:25:00 15.8 C 12.65 g/m*3 15.8 C 0 km/h
2047 05-09-2020 02:30:00 15.8 C 12.65 g/m*3 15.8 C 0 km/h
2048 05-09-2020 02:35:00 15.9 C 12.73 g/m*3 15.9 C 0 km/h
2049 05-09-2020 02:40:00 15.9 C 12.73 g/m*3 15.9 C 0 km/h
2050 05-09-2020 02:45:00 15.9 C 12.73 g/m*3 15.9 C 0 km/h
Sensor: Nr:Datum:Temp:Abs-Feuchte:Windchill:Wind:
Aussen-T/F 2051 05-09-2020 02:50:00 15.9 C 12.73 g/m*3 15.9 C 0 km/h
2052 05-09-2020 02:55:00 15.9 C 12.73 g/m*3 15.9 C 0 km/h
2053 05-09-2020 03:00:00 15.9 C 12.87 g/m*3 15.9 C 0 km/h
2054 05-09-2020 03:05:00 15.9 C 12.87 g/m*3 15.9 C 0 km/h
2055 05-09-2020 03:10:00 15.9 C 12.87 g/m*3 15.9 C 0 km/h
2056 05-09-2020 03:15:00 16 C 12.94 g/m*3 16 C 0 km/h
2057 05-09-2020 03:20:00 16 C 12.94 g/m*3 16 C 0 km/h
2058 05-09-2020 03:25:00 16 C 12.94 g/m*3 16 C 0 km/h
2059 05-09-2020 03:30:00 16 C 12.94 g/m*3 16 C 0 km/h
2060 05-09-2020 03:35:00 16.1 C 13.02 g/m*3 16.1 C 0 km/h
2061 05-09-2020 03:40:00 16.1 C 13.02 g/m*3 16.1 C 0 km/h
2062 05-09-2020 03:45:00 16.2 C 13.1 g/m*3 16.2 C 0 km/h
2063 05-09-2020 03:50:00 16.2 C 13.1 g/m*3 16.2 C 0 km/h
2064 05-09-2020 03:55:00 16.2 C 13.1 g/m*3 16.2 C 0 km/h
2065 05-09-2020 04:00:00 16.3 C 13.18 g/m*3 16.3 C 0 km/h
2066 05-09-2020 04:05:00 16.3 C 13.18 g/m*3 16.3 C 0 km/h
2067 05-09-2020 04:10:00 16.3 C 13.32 g/m*3 16.3 C 0 km/h
2068 05-09-2020 04:15:00 16.4 C 13.4 g/m*3 16.4 C 0 km/h
2069 05-09-2020 04:20:00 16.5 C 13.48 g/m*3 16.5 C 0 km/h
2070 05-09-2020 04:25:00 16.6 C 13.56 g/m*3 16.6 C 4.8 km/h
2071 05-09-2020 04:30:00 16.6 C 13.56 g/m*3 16.6 C 0 km/h
2072 05-09-2020 04:35:00 16.6 C 13.56 g/m*3 16.6 C 0 km/h
2073 05-09-2020 04:40:00 16.6 C 13.56 g/m*3 16.6 C 0 km/h
2074 05-09-2020 04:45:00 16.6 C 13.56 g/m*3 16.6 C 0 km/h
2075 05-09-2020 04:50:00 16.6 C 13.56 g/m*3 16.6 C 0 km/h
Sensor: Nr:Datum:Temp:Abs-Feuchte:Windchill:Wind:
Aussen-T/F 2076 05-09-2020 04:55:00 16.7 C 13.64 g/m*3 16.7 C 0 km/h
2077 05-09-2020 05:00:00 16.7 C 13.64 g/m*3 16.7 C 0 km/h
2078 05-09-2020 05:05:00 16.7 C 13.64 g/m*3 16.7 C 0 km/h
2079 05-09-2020 05:10:00 16.7 C 13.64 g/m*3 16.7 C 0 km/h
2080 05-09-2020 05:15:00 16.7 C 13.64 g/m*3 16.7 C 0 km/h
2081 05-09-2020 05:20:00 16.7 C 13.64 g/m*3 16.7 C 0 km/h
2082 05-09-2020 05:25:00 16.7 C 13.64 g/m*3 16.7 C 0 km/h
2083 05-09-2020 05:30:00 16.7 C 13.64 g/m*3 16.7 C 0 km/h
2084 05-09-2020 05:35:00 16.7 C 13.5 g/m*3 16.7 C 0 km/h
2085 05-09-2020 05:40:00 16.7 C 13.5 g/m*3 16.7 C 0 km/h
2086 05-09-2020 05:45:00 16.7 C 13.5 g/m*3 16.7 C 0 km/h
2087 05-09-2020 05:50:00 16.7 C 13.5 g/m*3 16.7 C 0 km/h
2088 05-09-2020 05:55:00 16.7 C 13.5 g/m*3 16.7 C 0 km/h
2089 05-09-2020 06:00:00 16.7 C 13.5 g/m*3 16.7 C 0 km/h
2090 05-09-2020 06:05:00 16.7 C 13.5 g/m*3 16.7 C 0 km/h
2091 05-09-2020 06:10:00 16.7 C 13.5 g/m*3 16.7 C 0 km/h
2092 05-09-2020 06:15:00 16.7 C 13.5 g/m*3 16.7 C 8.1 km/h
2093 05-09-2020 06:20:00 16.6 C 13.42 g/m*3 16.6 C 4.8 km/h
2094 05-09-2020 06:25:00 16.4 C 13.12 g/m*3 16.4 C 9.7 km/h
2095 05-09-2020 06:30:00 16 C 12.4 g/m*3 16 C 12.9 km/h
2096 05-09-2020 06:35:00 15.9 C 12.05 g/m*3 15.9 C 4.8 km/h
2097 05-09-2020 06:40:00 15.8 C 11.85 g/m*3 15.8 C 8.1 km/h
2098 05-09-2020 06:45:00 15.8 C 11.58 g/m*3 15.8 C 12.9 km/h
2099 05-09-2020 06:50:00 15.9 C 11.65 g/m*3 15.9 C 6.4 km/h
2100 05-09-2020 06:55:00 15.9 C 11.51 g/m*3 15.9 C 4.8 km/h
Sensor: Nr:Datum:Temp:Abs-Feuchte:Windchill:Wind:
Aussen-T/F 2101 05-09-2020 07:00:00 15.9 C 11.51 g/m*3 15.9 C 3.2 km/h
2102 05-09-2020 07:05:00 15.9 C 11.51 g/m*3 15.9 C 3.2 km/h
2103 05-09-2020 07:10:00 15.9 C 11.38 g/m*3 15.9 C 1.6 km/h
2104 05-09-2020 07:15:00 15.9 C 11.38 g/m*3 15.9 C 6.4 km/h
2105 05-09-2020 07:20:00 15.9 C 11.51 g/m*3 15.9 C 4.8 km/h
2106 05-09-2020 07:25:00 15.9 C 11.38 g/m*3 15.9 C 1.6 km/h
2107 05-09-2020 07:30:00 15.8 C 11.44 g/m*3 15.8 C 3.2 km/h
2108 05-09-2020 07:35:00 15.8 C 11.44 g/m*3 15.8 C 1.6 km/h
2109 05-09-2020 07:40:00 15.8 C 11.44 g/m*3 15.8 C 6.4 km/h
2110 05-09-2020 07:45:00 15.7 C 11.37 g/m*3 15.7 C 6.4 km/h
2111 05-09-2020 07:50:00 15.7 C 11.37 g/m*3 15.7 C 8.1 km/h
2112 05-09-2020 07:55:00 15.6 C 11.3 g/m*3 15.6 C 1.6 km/h
2113 05-09-2020 08:00:00 15.6 C 11.3 g/m*3 15.6 C 4.8 km/h
2114 05-09-2020 08:05:00 15.6 C 11.3 g/m*3 15.6 C 6.4 km/h
2115 05-09-2020 08:10:00 15.6 C 11.3 g/m*3 15.6 C 3.2 km/h
2116 05-09-2020 08:15:00 15.6 C 11.3 g/m*3 15.6 C 1.6 km/h
2117 05-09-2020 08:20:00 15.5 C 11.24 g/m*3 15.5 C 4.8 km/h
2118 05-09-2020 08:25:00 15.5 C 11.24 g/m*3 15.5 C 1.6 km/h
2119 05-09-2020 08:30:00 15.5 C 11.37 g/m*3 15.5 C 0 km/h
2120 05-09-2020 08:35:00 15.5 C 11.37 g/m*3 15.5 C 0 km/h
2121 05-09-2020 08:40:00 15.4 C 11.3 g/m*3 15.4 C 3.2 km/h
2122 05-09-2020 08:45:00 15.4 C 11.3 g/m*3 15.4 C 0 km/h
2123 05-09-2020 08:50:00 15.4 C 11.3 g/m*3 15.4 C 0 km/h
2124 05-09-2020 08:55:00 15.5 C 11.37 g/m*3 15.5 C 1.6 km/h
2125 05-09-2020 09:00:00 15.6 C 11.44 g/m*3 15.6 C 1.6 km/h
Sensor: Nr:Datum:Temp:Abs-Feuchte:Windchill:Wind:
Aussen-T/F 2126 05-09-2020 09:05:00 15.6 C 11.44 g/m*3 15.6 C 1.6 km/h
2127 05-09-2020 09:10:00 15.7 C 11.37 g/m*3 15.7 C 3.2 km/h
2128 05-09-2020 09:15:00 15.8 C 11.44 g/m*3 15.8 C 3.2 km/h
2129 05-09-2020 09:20:00 15.9 C 11.38 g/m*3 15.9 C 3.2 km/h
2130 05-09-2020 09:25:00 15.9 C 11.24 g/m*3 15.9 C 4.8 km/h
2131 05-09-2020 09:30:00 15.9 C 11.38 g/m*3 15.9 C 1.6 km/h
2132 05-09-2020 09:35:00 15.9 C 11.24 g/m*3 15.9 C 0 km/h
2133 05-09-2020 09:40:00 15.9 C 11.24 g/m*3 15.9 C 1.6 km/h
2134 05-09-2020 09:45:00 16 C 11.44 g/m*3 16 C 6.4 km/h
2135 05-09-2020 09:50:00 16.1 C 11.24 g/m*3 16.1 C 4.8 km/h
2136 05-09-2020 09:55:00 16.2 C 11.31 g/m*3 16.2 C 9.7 km/h
2137 05-09-2020 10:00:00 16.2 C 11.31 g/m*3 16.2 C 4.8 km/h
2138 05-09-2020 10:05:00 16.2 C 11.17 g/m*3 16.2 C 6.4 km/h
2139 05-09-2020 10:10:00 16.2 C 11.17 g/m*3 16.2 C 1.6 km/h
2140 05-09-2020 10:15:00 16.3 C 11.24 g/m*3 16.3 C 3.2 km/h
2141 05-09-2020 10:20:00 16.3 C 11.24 g/m*3 16.3 C 1.6 km/h
2142 05-09-2020 10:25:00 16.4 C 11.31 g/m*3 16.4 C 9.7 km/h
2143 05-09-2020 10:30:00 16.6 C 11.3 g/m*3 16.6 C 9.7 km/h
2144 05-09-2020 10:35:00 16.8 C 11.44 g/m*3 16.8 C 6.4 km/h
2145 05-09-2020 10:40:00 17.1 C 11.79 g/m*3 17.1 C 6.4 km/h
2146 05-09-2020 10:45:00 17.2 C 11.86 g/m*3 17.2 C 11.3 km/h
2147 05-09-2020 10:50:00 17.2 C 11.72 g/m*3 17.2 C 9.7 km/h
2148 05-09-2020 10:55:00 17.2 C 11.57 g/m*3 17.2 C 11.3 km/h
2149 05-09-2020 11:00:00 17.2 C 11.72 g/m*3 17.2 C 9.7 km/h
2150 05-09-2020 11:05:00 17.3 C 11.64 g/m*3 17.3 C 4.8 km/h
Sensor: Nr:Datum:Temp:Abs-Feuchte:Windchill:Wind:
Aussen-T/F 2151 05-09-2020 11:10:00 17.4 C 11.56 g/m*3 17.4 C 9.7 km/h
2152 05-09-2020 11:15:00 17.5 C 11.63 g/m*3 17.5 C 8.1 km/h
2153 05-09-2020 11:20:00 17.6 C 11.4 g/m*3 17.6 C 12.9 km/h
2154 05-09-2020 11:25:00 17.8 C 11.54 g/m*3 17.8 C 8.1 km/h
2155 05-09-2020 11:30:00 17.9 C 11.76 g/m*3 17.9 C 0 km/h
2156 05-09-2020 11:35:00 18.2 C 11.66 g/m*3 18.2 C 8.1 km/h
2157 05-09-2020 11:40:00 18.2 C 11.5 g/m*3 18.2 C 6.4 km/h
2158 05-09-2020 11:45:00 18.2 C 11.5 g/m*3 18.2 C 6.4 km/h
2159 05-09-2020 11:50:00 18.1 C 11.43 g/m*3 18.1 C 8.1 km/h
2160 05-09-2020 11:55:00 18.1 C 11.43 g/m*3 18.1 C 12.9 km/h
2161 05-09-2020 12:00:00 18.1 C 11.59 g/m*3 18.1 C 4.8 km/h
2162 05-09-2020 12:05:00 18.1 C 11.43 g/m*3 18.1 C 14.5 km/h
2163 05-09-2020 12:10:00 18.2 C 11.5 g/m*3 18.2 C 11.3 km/h
2164 05-09-2020 12:15:00 18.3 C 11.41 g/m*3 18.3 C 9.7 km/h
2165 05-09-2020 12:20:00 18.3 C 11.41 g/m*3 18.3 C 11.3 km/h
2166 05-09-2020 12:25:00 18.3 C 11.26 g/m*3 18.3 C 11.3 km/h
2167 05-09-2020 12:30:00 18.4 C 11.48 g/m*3 18.4 C 9.7 km/h
2168 05-09-2020 12:35:00 18.5 C 11.39 g/m*3 18.5 C 6.4 km/h
2169 05-09-2020 12:40:00 18.6 C 11.14 g/m*3 18.6 C 12.9 km/h
2170 05-09-2020 12:45:00 18.6 C 11.14 g/m*3 18.6 C 17.7 km/h
2171 05-09-2020 12:50:00 18.5 C 11.23 g/m*3 18.5 C 11.3 km/h
2172 05-09-2020 12:55:00 18.5 C 11.39 g/m*3 18.5 C 12.9 km/h
2173 05-09-2020 13:00:00 18.6 C 11.3 g/m*3 18.6 C 11.3 km/h
2174 05-09-2020 13:05:00 18.6 C 11.3 g/m*3 18.6 C 12.9 km/h
2175 05-09-2020 13:10:00 18.6 C 11.3 g/m*3 18.6 C 8.1 km/h
Sensor: Nr:Datum:Temp:Abs-Feuchte:Windchill:Wind:
Aussen-T/F 2176 05-09-2020 13:15:00 18.6 C 11.3 g/m*3 18.6 C 8.1 km/h
2177 05-09-2020 13:20:00 18.6 C 11.3 g/m*3 18.6 C 17.7 km/h
2178 05-09-2020 13:25:00 18.6 C 11.3 g/m*3 18.6 C 14.5 km/h
2179 05-09-2020 13:30:00 18.7 C 11.53 g/m*3 18.7 C 9.7 km/h
2180 05-09-2020 13:35:00 18.7 C 11.21 g/m*3 18.7 C 12.9 km/h
2181 05-09-2020 13:40:00 18.7 C 11.37 g/m*3 18.7 C 11.3 km/h
2182 05-09-2020 13:45:00 18.6 C 11.3 g/m*3 18.6 C 11.3 km/h
2183 05-09-2020 13:50:00 18.7 C 11.37 g/m*3 18.7 C 8.1 km/h
2184 05-09-2020 13:55:00 18.7 C 11.21 g/m*3 18.7 C 6.4 km/h
2185 05-09-2020 14:00:00 18.8 C 10.95 g/m*3 18.8 C 12.9 km/h
2186 05-09-2020 14:05:00 18.8 C 10.95 g/m*3 18.8 C 14.5 km/h
2187 05-09-2020 14:10:00 18.8 C 11.11 g/m*3 18.8 C 6.4 km/h
2188 05-09-2020 14:15:00 18.9 C 11.18 g/m*3 18.9 C 14.5 km/h
2189 05-09-2020 14:20:00 19 C 11.24 g/m*3 19 C 12.9 km/h
2190 05-09-2020 14:25:00 19.1 C 11.15 g/m*3 19.1 C 12.9 km/h
2191 05-09-2020 14:30:00 19.2 C 11.21 g/m*3 19.2 C 11.3 km/h
2192 05-09-2020 14:35:00 19.1 C 11.15 g/m*3 19.1 C 12.9 km/h
2193 05-09-2020 14:40:00 18.9 C 11.18 g/m*3 18.9 C 12.9 km/h
2194 05-09-2020 14:45:00 18.7 C 11.37 g/m*3 18.7 C 17.7 km/h
2195 05-09-2020 14:50:00 18.4 C 11.32 g/m*3 18.4 C 12.9 km/h
2196 05-09-2020 14:55:00 18.2 C 11.19 g/m*3 18.2 C 12.9 km/h
2197 05-09-2020 15:00:00 18 C 11.21 g/m*3 18 C 16.1 km/h
2198 05-09-2020 15:05:00 17.8 C 11.23 g/m*3 17.8 C 8.1 km/h
2199 05-09-2020 15:10:00 17.7 C 11.32 g/m*3 17.7 C 14.5 km/h
2200 05-09-2020 15:15:00 17.6 C 11.1 g/m*3 17.6 C 9.7 km/h
Sensor: Nr:Datum:Temp:Abs-Feuchte:Windchill:Wind:
Aussen-T/F 2201 05-09-2020 15:20:00 17.6 C 11.1 g/m*3 17.6 C 8.1 km/h
2202 05-09-2020 15:25:00 17.5 C 11.03 g/m*3 17.5 C 8.1 km/h
2203 05-09-2020 15:30:00 17.4 C 10.97 g/m*3 17.4 C 11.3 km/h
2204 05-09-2020 15:35:00 17.5 C 11.03 g/m*3 17.5 C 11.3 km/h
2205 05-09-2020 15:40:00 17.7 C 11.01 g/m*3 17.7 C 11.3 km/h
2206 05-09-2020 15:45:00 18 C 11.21 g/m*3 18 C 9.7 km/h
2207 05-09-2020 15:50:00 18.2 C 10.88 g/m*3 18.2 C 16.1 km/h
2208 05-09-2020 15:55:00 18.2 C 10.72 g/m*3 18.2 C 11.3 km/h
2209 05-09-2020 16:00:00 18.2 C 10.88 g/m*3 18.2 C 11.3 km/h
2210 05-09-2020 16:05:00 18.2 C 10.72 g/m*3 18.2 C 11.3 km/h
2211 05-09-2020 16:10:00 18.2 C 10.57 g/m*3 18.2 C 9.7 km/h
2212 05-09-2020 16:15:00 18.3 C 10.63 g/m*3 18.3 C 11.3 km/h
2213 05-09-2020 16:20:00 18.5 C 10.76 g/m*3 18.5 C 8.1 km/h
2214 05-09-2020 16:25:00 18.7 C 10.73 g/m*3 18.7 C 11.3 km/h
2215 05-09-2020 16:30:00 18.8 C 10.63 g/m*3 18.8 C 8.1 km/h
2216 05-09-2020 16:35:00 18.9 C 10.85 g/m*3 18.9 C 11.3 km/h
2217 05-09-2020 16:40:00 19.1 C 10.66 g/m*3 19.1 C 6.4 km/h
2218 05-09-2020 16:45:00 19.1 C 10.66 g/m*3 19.1 C 8.1 km/h
2219 05-09-2020 16:50:00 19.1 C 10.49 g/m*3 19.1 C 9.7 km/h
2220 05-09-2020 16:55:00 19.1 C 10.49 g/m*3 19.1 C 9.7 km/h
2221 05-09-2020 17:00:00 19 C 10.27 g/m*3 19 C 9.7 km/h
2222 05-09-2020 17:05:00 19 C 10.43 g/m*3 19 C 8.1 km/h
2223 05-09-2020 17:10:00 19.2 C 10.39 g/m*3 19.2 C 9.7 km/h
2224 05-09-2020 17:15:00 19.3 C 10.12 g/m*3 19.3 C 11.3 km/h
2225 05-09-2020 17:20:00 19.4 C 10.34 g/m*3 19.4 C 9.7 km/h
Sensor: Nr:Datum:Temp:Abs-Feuchte:Windchill:Wind:
Aussen-T/F 2226 05-09-2020 17:25:00 19.5 C 10.07 g/m*3 19.5 C 8.1 km/h
2227 05-09-2020 17:30:00 19.6 C 9.96 g/m*3 19.6 C 9.7 km/h
2228 05-09-2020 17:35:00 19.6 C 9.96 g/m*3 19.6 C 11.3 km/h
2229 05-09-2020 17:40:00 19.6 C 9.79 g/m*3 19.6 C 9.7 km/h
2230 05-09-2020 17:45:00 19.7 C 9.68 g/m*3 19.7 C 11.3 km/h
2231 05-09-2020 17:50:00 19.7 C 9.68 g/m*3 19.7 C 6.4 km/h
2232 05-09-2020 17:55:00 19.7 C 9.85 g/m*3 19.7 C 8.1 km/h
2233 05-09-2020 18:00:00 19.7 C 9.51 g/m*3 19.7 C 12.9 km/h
2234 05-09-2020 18:05:00 19.6 C 9.28 g/m*3 19.6 C 9.7 km/h
2235 05-09-2020 18:10:00 19.5 C 9.57 g/m*3 19.5 C 4.8 km/h
2236 05-09-2020 18:15:00 19.5 C 9.57 g/m*3 19.5 C 6.4 km/h
2237 05-09-2020 18:20:00 19.8 C 9.22 g/m*3 19.8 C 8.1 km/h
2238 05-09-2020 18:25:00 20.3 C 9.15 g/m*3 20.3 C 6.4 km/h
2239 05-09-2020 18:30:00 20.7 C 9.36 g/m*3 20.7 C 6.4 km/h
2240 05-09-2020 18:35:00 20.7 C 8.82 g/m*3 20.7 C 11.3 km/h
2241 05-09-2020 18:40:00 20.8 C 8.51 g/m*3 20.8 C 9.7 km/h
2242 05-09-2020 18:45:00 20.8 C 8.33 g/m*3 20.8 C 12.9 km/h
2243 05-09-2020 18:50:00 20.7 C 9 g/m*3 20.7 C 1.6 km/h
2244 05-09-2020 18:55:00 20.3 C 8.44 g/m*3 20.3 C 4.8 km/h
2245 05-09-2020 19:00:00 19.9 C 8.59 g/m*3 19.9 C 3.2 km/h
2246 05-09-2020 19:05:00 19.6 C 8.44 g/m*3 19.6 C 8.1 km/h
2247 05-09-2020 19:10:00 19.5 C 9.57 g/m*3 19.5 C 4.8 km/h
2248 05-09-2020 19:15:00 19.4 C 10.01 g/m*3 19.4 C 0 km/h
2249 05-09-2020 19:20:00 19.1 C 9.34 g/m*3 19.1 C 0 km/h
2250 05-09-2020 19:25:00 18.8 C 9.18 g/m*3 18.8 C 0 km/h
Sensor: Nr:Datum:Temp:Abs-Feuchte:Windchill:Wind:
Aussen-T/F 2251 05-09-2020 19:30:00 18.6 C 9.23 g/m*3 18.6 C 0 km/h
2252 05-09-2020 19:35:00 18.3 C 9.69 g/m*3 18.3 C 0 km/h
2253 05-09-2020 19:40:00 18 C 9.68 g/m*3 18 C 3.2 km/h
2254 05-09-2020 19:45:00 17.6 C 9.15 g/m*3 17.6 C 1.6 km/h
2255 05-09-2020 19:50:00 17.3 C 8.69 g/m*3 17.3 C 0 km/h
2256 05-09-2020 19:55:00 17.1 C 9.03 g/m*3 17.1 C 0 km/h
2257 05-09-2020 20:00:00 16.8 C 9.29 g/m*3 16.8 C 0 km/h
2258 05-09-2020 20:05:00 16.7 C 8.81 g/m*3 16.7 C 6.4 km/h
2259 05-09-2020 20:10:00 16.7 C 8.81 g/m*3 16.7 C 8.1 km/h
2260 05-09-2020 20:15:00 16.7 C 8.95 g/m*3 16.7 C 4.8 km/h
2261 05-09-2020 20:20:00 16.7 C 8.95 g/m*3 16.7 C 0 km/h
2262 05-09-2020 20:25:00 16.7 C 9.38 g/m*3 16.7 C 0 km/h
2263 05-09-2020 20:30:00 16.6 C 9.18 g/m*3 16.6 C 6.4 km/h
2264 05-09-2020 20:35:00 16.5 C 9.27 g/m*3 16.5 C 4.8 km/h
2265 05-09-2020 20:40:00 16.3 C 9.3 g/m*3 16.3 C 3.2 km/h
2266 05-09-2020 20:45:00 16.1 C 9.46 g/m*3 16.1 C 4.8 km/h
2267 05-09-2020 20:50:00 15.7 C 9.37 g/m*3 15.7 C 4.8 km/h
2268 05-09-2020 20:55:00 15.4 C 9.46 g/m*3 15.4 C 0 km/h
2269 05-09-2020 21:00:00 15.1 C 9.42 g/m*3 15.1 C 6.4 km/h
2270 05-09-2020 21:05:00 14.9 C 9.43 g/m*3 14.9 C 4.8 km/h
2271 05-09-2020 21:10:00 14.7 C 9.44 g/m*3 14.7 C 0 km/h
2272 05-09-2020 21:15:00 14.5 C 9.33 g/m*3 14.5 C 0 km/h
2273 05-09-2020 21:20:00 14.4 C 9.39 g/m*3 14.4 C 3.2 km/h
2274 05-09-2020 21:25:00 14.3 C 9.46 g/m*3 14.3 C 3.2 km/h
2275 05-09-2020 21:30:00 14.2 C 9.28 g/m*3 14.2 C 3.2 km/h
Sensor: Nr:Datum:Temp:Abs-Feuchte:Windchill:Wind:
Aussen-T/F 2276 05-09-2020 21:35:00 14.2 C 9.28 g/m*3 14.2 C 0 km/h
2277 05-09-2020 21:40:00 14.2 C 9.4 g/m*3 14.2 C 4.8 km/h
2278 05-09-2020 21:45:00 14.1 C 9.22 g/m*3 14.1 C 1.6 km/h
2279 05-09-2020 21:50:00 13.9 C 9.23 g/m*3 13.9 C 4.8 km/h
2280 05-09-2020 21:55:00 13.8 C 9.29 g/m*3 13.8 C 4.8 km/h
2281 05-09-2020 22:00:00 13.8 C 9.29 g/m*3 13.8 C 3.2 km/h
2282 05-09-2020 22:05:00 13.7 C 9.12 g/m*3 13.7 C 6.4 km/h
2283 05-09-2020 22:10:00 13.7 C 9.24 g/m*3 13.7 C 4.8 km/h
2284 05-09-2020 22:15:00 13.7 C 9.24 g/m*3 13.7 C 4.8 km/h
2285 05-09-2020 22:20:00 13.7 C 9.24 g/m*3 13.7 C 4.8 km/h
2286 05-09-2020 22:25:00 13.7 C 9.24 g/m*3 13.7 C 4.8 km/h
2287 05-09-2020 22:30:00 13.6 C 9.18 g/m*3 13.6 C 4.8 km/h
2288 05-09-2020 22:35:00 13.7 C 9.24 g/m*3 13.7 C 6.4 km/h
2289 05-09-2020 22:40:00 13.8 C 9.29 g/m*3 13.8 C 3.2 km/h
2290 05-09-2020 22:45:00 13.8 C 9.41 g/m*3 13.8 C 0 km/h
2291 05-09-2020 22:50:00 13.8 C 9.41 g/m*3 13.8 C 0 km/h
2292 05-09-2020 22:55:00 13.7 C 9.35 g/m*3 13.7 C 0 km/h
2293 05-09-2020 23:00:00 13.6 C 9.3 g/m*3 13.6 C 0 km/h
2294 05-09-2020 23:05:00 13.4 C 9.18 g/m*3 13.4 C 4.8 km/h
2295 05-09-2020 23:10:00 13.3 C 9.24 g/m*3 13.3 C 4.8 km/h
2296 05-09-2020 23:15:00 13.2 C 9.19 g/m*3 13.2 C 3.2 km/h
2297 05-09-2020 23:20:00 13.1 C 9.24 g/m*3 13.1 C 6.4 km/h
2298 05-09-2020 23:25:00 13.1 C 9.24 g/m*3 13.1 C 4.8 km/h
2299 05-09-2020 23:30:00 13.1 C 9.36 g/m*3 13.1 C 6.4 km/h
2300 05-09-2020 23:35:00 12.9 C 9.24 g/m*3 12.9 C 4.8 km/h
Sensor: Nr:Datum:Temp:Abs-Feuchte:Windchill:Wind:
Aussen-T/F 2301 05-09-2020 23:40:00 12.9 C 9.24 g/m*3 12.9 C 4.8 km/h
2302 05-09-2020 23:45:00 12.8 C 9.07 g/m*3 12.8 C 4.8 km/h
2303 05-09-2020 23:50:00 12.8 C 9.18 g/m*3 12.8 C 4.8 km/h
2304 05-09-2020 23:55:00 12.8 C 9.18 g/m*3 12.8 C 4.8 km/h
2305 06-09-2020 00:00:00 12.8 C 9.18 g/m*3 12.8 C 3.2 km/h
2306 06-09-2020 00:05:00 12.8 C 9.18 g/m*3 12.8 C 3.2 km/h
2307 06-09-2020 00:10:00 12.7 C 9.24 g/m*3 12.7 C 3.2 km/h
2308 06-09-2020 00:15:00 12.7 C 9.24 g/m*3 12.7 C 4.8 km/h
2309 06-09-2020 00:20:00 12.7 C 9.24 g/m*3 12.7 C 4.8 km/h
2310 06-09-2020 00:25:00 12.6 C 9.18 g/m*3 12.6 C 3.2 km/h
2311 06-09-2020 00:30:00 12.6 C 9.18 g/m*3 12.6 C 0 km/h
2312 06-09-2020 00:35:00 12.5 C 9.13 g/m*3 12.5 C 3.2 km/h
2313 06-09-2020 00:40:00 12.4 C 9.18 g/m*3 12.4 C 1.6 km/h
2314 06-09-2020 00:45:00 12.3 C 9.12 g/m*3 12.3 C 4.8 km/h
2315 06-09-2020 00:50:00 12.3 C 9.23 g/m*3 12.3 C 1.6 km/h
2316 06-09-2020 00:55:00 12.2 C 9.17 g/m*3 12.2 C 0 km/h
2317 06-09-2020 01:00:00 12.2 C 9.17 g/m*3 12.2 C 0 km/h
2318 06-09-2020 01:05:00 12.1 C 9.22 g/m*3 12.1 C 0 km/h
2319 06-09-2020 01:10:00 11.9 C 9.11 g/m*3 11.9 C 0 km/h
2320 06-09-2020 01:15:00 11.9 C 9.11 g/m*3 11.9 C 0 km/h
2321 06-09-2020 01:20:00 11.8 C 9.16 g/m*3 11.8 C 0 km/h
2322 06-09-2020 01:25:00 11.8 C 9.16 g/m*3 11.8 C 0 km/h
2323 06-09-2020 01:30:00 11.8 C 9.16 g/m*3 11.8 C 0 km/h
2324 06-09-2020 01:35:00 11.7 C 9.1 g/m*3 11.7 C 0 km/h
2325 06-09-2020 01:40:00 11.6 C 9.04 g/m*3 11.6 C 0 km/h
Sensor: Nr:Datum:Temp:Abs-Feuchte:Windchill:Wind:
Aussen-T/F 2326 06-09-2020 01:45:00 11.4 C 8.93 g/m*3 11.4 C 0 km/h
2327 06-09-2020 01:50:00 11.3 C 8.87 g/m*3 11.3 C 0 km/h
2328 06-09-2020 01:55:00 11.2 C 8.92 g/m*3 11.2 C 0 km/h
2329 06-09-2020 02:00:00 11.1 C 8.76 g/m*3 11.1 C 0 km/h
2330 06-09-2020 02:05:00 10.9 C 8.75 g/m*3 10.9 C 0 km/h
2331 06-09-2020 02:10:00 10.8 C 8.7 g/m*3 10.8 C 0 km/h
2332 06-09-2020 02:15:00 10.7 C 8.64 g/m*3 10.7 C 1.6 km/h
2333 06-09-2020 02:20:00 10.6 C 8.69 g/m*3 10.6 C 0 km/h
2334 06-09-2020 02:25:00 10.5 C 8.63 g/m*3 10.5 C 0 km/h
2335 06-09-2020 02:30:00 10.4 C 8.58 g/m*3 10.4 C 0 km/h
2336 06-09-2020 02:35:00 10.4 C 8.58 g/m*3 10.4 C 0 km/h
2337 06-09-2020 02:40:00 10.3 C 8.52 g/m*3 10.3 C 0 km/h
2338 06-09-2020 02:45:00 10.2 C 8.47 g/m*3 10.2 C 0 km/h
2339 06-09-2020 02:50:00 10.2 C 8.56 g/m*3 10.2 C 0 km/h
2340 06-09-2020 02:55:00 10.1 C 8.51 g/m*3 10.1 C 0 km/h
2341 06-09-2020 03:00:00 10 C 8.46 g/m*3 10 C 0 km/h
2342 06-09-2020 03:05:00 9.9 C 8.4 g/m*3 9.9 C 0 km/h
2343 06-09-2020 03:10:00 9.9 C 8.4 g/m*3 9.9 C 0 km/h
2344 06-09-2020 03:15:00 9.8 C 8.35 g/m*3 9.8 C 1.6 km/h
2345 06-09-2020 03:20:00 9.7 C 8.3 g/m*3 9.7 C 0 km/h
2346 06-09-2020 03:25:00 9.7 C 8.39 g/m*3 9.7 C 0 km/h
2347 06-09-2020 03:30:00 9.6 C 8.34 g/m*3 9.6 C 0 km/h
2348 06-09-2020 03:35:00 9.6 C 8.34 g/m*3 9.6 C 0 km/h
2349 06-09-2020 03:40:00 9.5 C 8.28 g/m*3 9.5 C 0 km/h
2350 06-09-2020 03:45:00 9.4 C 8.23 g/m*3 9.4 C 1.6 km/h
Sensor: Nr:Datum:Temp:Abs-Feuchte:Windchill:Wind:
Aussen-T/F 2351 06-09-2020 03:50:00 9.4 C 8.32 g/m*3 9.4 C 0 km/h
2352 06-09-2020 03:55:00 9.3 C 8.27 g/m*3 9.3 C 0 km/h
2353 06-09-2020 04:00:00 9.3 C 8.27 g/m*3 9.3 C 0 km/h
2354 06-09-2020 04:05:00 9.3 C 8.36 g/m*3 9.3 C 0 km/h
2355 06-09-2020 04:10:00 9.3 C 8.27 g/m*3 9.3 C 0 km/h
2356 06-09-2020 04:15:00 9.3 C 8.27 g/m*3 9.3 C 0 km/h
2357 06-09-2020 04:20:00 9.2 C 8.22 g/m*3 9.2 C 0 km/h
2358 06-09-2020 04:25:00 9.1 C 8.16 g/m*3 9.1 C 0 km/h
2359 06-09-2020 04:30:00 9.1 C 8.16 g/m*3 9.1 C 0 km/h
2360 06-09-2020 04:35:00 8.9 C 8.06 g/m*3 8.9 C 0 km/h
2361 06-09-2020 04:40:00 8.9 C 8.06 g/m*3 8.9 C 0 km/h
2362 06-09-2020 04:45:00 8.8 C 8.01 g/m*3 8.8 C 1.6 km/h
2363 06-09-2020 04:50:00 8.8 C 8.09 g/m*3 8.8 C 0 km/h
2364 06-09-2020 04:55:00 8.8 C 8.09 g/m*3 8.8 C 0 km/h
2365 06-09-2020 05:00:00 8.7 C 8.04 g/m*3 8.7 C 1.6 km/h
2366 06-09-2020 05:05:00 8.7 C 8.04 g/m*3 8.7 C 0 km/h
2367 06-09-2020 05:10:00 8.7 C 8.04 g/m*3 8.7 C 0 km/h
2368 06-09-2020 05:15:00 8.7 C 8.04 g/m*3 8.7 C 0 km/h
2369 06-09-2020 05:20:00 8.6 C 7.99 g/m*3 8.6 C 1.6 km/h
2370 06-09-2020 05:25:00 8.6 C 7.99 g/m*3 8.6 C 1.6 km/h
2371 06-09-2020 05:30:00 8.6 C 8.08 g/m*3 8.6 C 0 km/h
2372 06-09-2020 05:35:00 8.7 C 8.13 g/m*3 8.7 C 0 km/h
2373 06-09-2020 05:40:00 8.6 C 8.08 g/m*3 8.6 C 0 km/h
2374 06-09-2020 05:45:00 8.6 C 7.99 g/m*3 8.6 C 0 km/h
2375 06-09-2020 05:50:00 8.4 C 7.97 g/m*3 8.4 C 0 km/h
Sensor: Nr:Datum:Temp:Abs-Feuchte:Windchill:Wind:
Aussen-T/F 2376 06-09-2020 05:55:00 8.4 C 7.97 g/m*3 8.4 C 0 km/h
2377 06-09-2020 06:00:00 8.3 C 7.84 g/m*3 8.3 C 0 km/h
2378 06-09-2020 06:05:00 8.3 C 7.84 g/m*3 8.3 C 0 km/h
2379 06-09-2020 06:10:00 8.2 C 7.87 g/m*3 8.2 C 0 km/h
2380 06-09-2020 06:15:00 8.2 C 7.87 g/m*3 8.2 C 0 km/h
2381 06-09-2020 06:20:00 8.1 C 7.82 g/m*3 8.1 C 0 km/h
2382 06-09-2020 06:25:00 8.1 C 7.82 g/m*3 8.1 C 0 km/h
2383 06-09-2020 06:30:00 8 C 7.77 g/m*3 8 C 0 km/h
2384 06-09-2020 06:35:00 8.1 C 7.82 g/m*3 8.1 C 0 km/h
2385 06-09-2020 06:40:00 8.2 C 7.87 g/m*3 8.2 C 0 km/h
2386 06-09-2020 06:45:00 8.2 C 7.87 g/m*3 8.2 C 0 km/h
2387 06-09-2020 06:50:00 8.2 C 7.87 g/m*3 8.2 C 0 km/h
2388 06-09-2020 06:55:00 8.2 C 7.87 g/m*3 8.2 C 0 km/h
2389 06-09-2020 07:00:00 8.1 C 7.82 g/m*3 8.1 C 0 km/h
2390 06-09-2020 07:05:00 7.9 C 7.72 g/m*3 7.9 C 0 km/h
2391 06-09-2020 07:10:00 7.9 C 7.72 g/m*3 7.9 C 1.6 km/h
2392 06-09-2020 07:15:00 7.9 C 7.8 g/m*3 7.9 C 0 km/h
2393 06-09-2020 07:20:00 8 C 7.85 g/m*3 8 C 0 km/h
2394 06-09-2020 07:25:00 8 C 7.85 g/m*3 8 C 0 km/h
2395 06-09-2020 07:30:00 8.1 C 7.9 g/m*3 8.1 C 0 km/h
2396 06-09-2020 07:35:00 8.1 C 7.9 g/m*3 8.1 C 0 km/h
2397 06-09-2020 07:40:00 8.1 C 7.9 g/m*3 8.1 C 0 km/h
2398 06-09-2020 07:45:00 8.1 C 7.9 g/m*3 8.1 C 0 km/h
2399 06-09-2020 07:50:00 8.1 C 7.9 g/m*3 8.1 C 0 km/h
2400 06-09-2020 07:55:00 8.1 C 7.9 g/m*3 8.1 C 0 km/h
Sensor: Nr:Datum:Temp:Abs-Feuchte:Windchill:Wind:
Aussen-T/F 2401 06-09-2020 08:00:00 8 C 7.85 g/m*3 8 C 0 km/h
2402 06-09-2020 08:05:00 8 C 7.85 g/m*3 8 C 0 km/h
2403 06-09-2020 08:10:00 8 C 7.85 g/m*3 8 C 0 km/h
2404 06-09-2020 08:15:00 8 C 7.85 g/m*3 8 C 0 km/h
2405 06-09-2020 08:20:00 8.1 C 7.9 g/m*3 8.1 C 0 km/h
2406 06-09-2020 08:25:00 8.1 C 7.9 g/m*3 8.1 C 0 km/h
2407 06-09-2020 08:30:00 8.1 C 7.9 g/m*3 8.1 C 0 km/h
2408 06-09-2020 08:35:00 8.1 C 7.9 g/m*3 8.1 C 3.2 km/h
2409 06-09-2020 08:40:00 8.2 C 7.96 g/m*3 8.2 C 3.2 km/h
2410 06-09-2020 08:45:00 8.2 C 7.96 g/m*3 8.2 C 0 km/h
2411 06-09-2020 08:50:00 8.3 C 8.01 g/m*3 8.3 C 0 km/h
2412 06-09-2020 08:55:00 8.4 C 8.06 g/m*3 8.4 C 0 km/h
2413 06-09-2020 09:00:00 8.5 C 8.2 g/m*3 8.5 C 0 km/h
2414 06-09-2020 09:05:00 8.6 C 8.25 g/m*3 8.6 C 1.6 km/h
2415 06-09-2020 09:10:00 8.7 C 8.22 g/m*3 8.7 C 0 km/h
2416 06-09-2020 09:15:00 8.7 C 8.22 g/m*3 8.7 C 0 km/h
2417 06-09-2020 09:20:00 8.8 C 8.27 g/m*3 8.8 C 3.2 km/h
2418 06-09-2020 09:25:00 8.8 C 8.36 g/m*3 8.8 C 3.2 km/h
2419 06-09-2020 09:30:00 8.9 C 8.41 g/m*3 8.9 C 0 km/h
2420 06-09-2020 09:35:00 9.1 C 8.52 g/m*3 9.1 C 0 km/h
2421 06-09-2020 09:40:00 9.2 C 8.57 g/m*3 9.2 C 0 km/h
2422 06-09-2020 09:45:00 9.3 C 8.63 g/m*3 9.3 C 3.2 km/h
2423 06-09-2020 09:50:00 9.4 C 8.68 g/m*3 9.4 C 4.8 km/h
2424 06-09-2020 09:55:00 9.6 C 8.79 g/m*3 9.6 C 0 km/h
2425 06-09-2020 10:00:00 9.7 C 8.85 g/m*3 9.7 C 0 km/h
Sensor: Nr:Datum:Temp:Abs-Feuchte:Windchill:Wind:
Aussen-T/F 2426 06-09-2020 10:05:00 9.8 C 8.91 g/m*3 9.8 C 1.6 km/h
2427 06-09-2020 10:10:00 9.9 C 8.96 g/m*3 9.9 C 1.6 km/h
2428 06-09-2020 10:15:00 10.1 C 9.08 g/m*3 10.1 C 1.6 km/h
2429 06-09-2020 10:20:00 10.3 C 9.19 g/m*3 10.3 C 0 km/h
2430 06-09-2020 10:25:00 10.4 C 9.25 g/m*3 10.4 C 0 km/h
2431 06-09-2020 10:30:00 10.6 C 9.37 g/m*3 10.6 C 0 km/h
2432 06-09-2020 10:35:00 10.8 C 9.39 g/m*3 10.8 C 0 km/h
2433 06-09-2020 10:40:00 11.1 C 9.57 g/m*3 11.1 C 0 km/h
2434 06-09-2020 10:45:00 11.3 C 9.59 g/m*3 11.3 C 0 km/h
2435 06-09-2020 10:50:00 11.6 C 9.77 g/m*3 11.6 C 0 km/h
2436 06-09-2020 10:55:00 11.8 C 9.79 g/m*3 11.8 C 0 km/h
2437 06-09-2020 11:00:00 12.1 C 9.76 g/m*3 12.1 C 0 km/h
2438 06-09-2020 11:05:00 12.4 C 9.83 g/m*3 12.4 C 0 km/h
2439 06-09-2020 11:10:00 12.7 C 9.68 g/m*3 12.7 C 0 km/h
2440 06-09-2020 11:15:00 12.9 C 9.81 g/m*3 12.9 C 0 km/h
2441 06-09-2020 11:20:00 13.3 C 9.82 g/m*3 13.3 C 0 km/h
2442 06-09-2020 11:25:00 13.6 C 9.77 g/m*3 13.6 C 0 km/h
2443 06-09-2020 11:30:00 14 C 9.53 g/m*3 14 C 0 km/h
2444 06-09-2020 11:35:00 14.4 C 9.52 g/m*3 14.4 C 0 km/h
2445 06-09-2020 11:40:00 14.7 C 9.32 g/m*3 14.7 C 0 km/h
2446 06-09-2020 11:45:00 15 C 9.23 g/m*3 15 C 0 km/h
2447 06-09-2020 11:50:00 15.3 C 9.4 g/m*3 15.3 C 0 km/h
2448 06-09-2020 11:55:00 15.7 C 9.5 g/m*3 15.7 C 6.4 km/h
2449 06-09-2020 12:00:00 15.8 C 9.29 g/m*3 15.8 C 4.8 km/h
2450 06-09-2020 12:05:00 16 C 9.4 g/m*3 16 C 4.8 km/h
Sensor: Nr:Datum:Temp:Abs-Feuchte:Windchill:Wind:
Aussen-T/F 2451 06-09-2020 12:10:00 16.1 C 9.32 g/m*3 16.1 C 0 km/h
2452 06-09-2020 12:15:00 16.2 C 9.38 g/m*3 16.2 C 3.2 km/h
2453 06-09-2020 12:20:00 16.3 C 9.3 g/m*3 16.3 C 6.4 km/h
2454 06-09-2020 12:25:00 16.3 C 9.16 g/m*3 16.3 C 3.2 km/h
2455 06-09-2020 12:30:00 16.4 C 9.07 g/m*3 16.4 C 9.7 km/h
2456 06-09-2020 12:35:00 16.6 C 9.04 g/m*3 16.6 C 8.1 km/h
2457 06-09-2020 12:40:00 16.7 C 9.1 g/m*3 16.7 C 3.2 km/h
2458 06-09-2020 12:45:00 16.8 C 9.01 g/m*3 16.8 C 0 km/h
2459 06-09-2020 12:50:00 16.9 C 8.92 g/m*3 16.9 C 6.4 km/h
2460 06-09-2020 12:55:00 17.1 C 9.17 g/m*3 17.1 C 8.1 km/h
2461 06-09-2020 13:00:00 17.2 C 9.23 g/m*3 17.2 C 8.1 km/h
2462 06-09-2020 13:05:00 17.3 C 8.99 g/m*3 17.3 C 8.1 km/h
2463 06-09-2020 13:10:00 17.4 C 8.89 g/m*3 17.4 C 3.2 km/h
2464 06-09-2020 13:15:00 17.4 C 8.89 g/m*3 17.4 C 8.1 km/h
2465 06-09-2020 13:20:00 17.5 C 8.8 g/m*3 17.5 C 6.4 km/h
2466 06-09-2020 13:25:00 17.5 C 8.65 g/m*3 17.5 C 0 km/h
2467 06-09-2020 13:30:00 17.4 C 8.89 g/m*3 17.4 C 0 km/h
2468 06-09-2020 13:35:00 17.4 C 8.74 g/m*3 17.4 C 0 km/h
2469 06-09-2020 13:40:00 17.4 C 8.74 g/m*3 17.4 C 0 km/h
2470 06-09-2020 13:45:00 17.5 C 8.65 g/m*3 17.5 C 0 km/h
2471 06-09-2020 13:50:00 17.6 C 8.85 g/m*3 17.6 C 6.4 km/h
2472 06-09-2020 13:55:00 17.8 C 8.65 g/m*3 17.8 C 8.1 km/h
2473 06-09-2020 14:00:00 17.9 C 8.7 g/m*3 17.9 C 8.1 km/h
2474 06-09-2020 14:05:00 18.1 C 8.65 g/m*3 18.1 C 3.2 km/h
2475 06-09-2020 14:10:00 18.2 C 8.86 g/m*3 18.2 C 6.4 km/h
Sensor: Nr:Datum:Temp:Abs-Feuchte:Windchill:Wind:
Aussen-T/F 2476 06-09-2020 14:15:00 18.4 C 8.81 g/m*3 18.4 C 4.8 km/h
2477 06-09-2020 14:20:00 18.6 C 8.44 g/m*3 18.6 C 4.8 km/h
2478 06-09-2020 14:25:00 18.7 C 8.65 g/m*3 18.7 C 3.2 km/h
2479 06-09-2020 14:30:00 18.8 C 8.86 g/m*3 18.8 C 6.4 km/h
2480 06-09-2020 14:35:00 18.8 C 8.86 g/m*3 18.8 C 8.1 km/h
2481 06-09-2020 14:40:00 18.8 C 8.86 g/m*3 18.8 C 3.2 km/h
2482 06-09-2020 14:45:00 18.9 C 8.91 g/m*3 18.9 C 6.4 km/h
2483 06-09-2020 14:50:00 19.1 C 9.02 g/m*3 19.1 C 0 km/h
2484 06-09-2020 14:55:00 19.1 C 9.02 g/m*3 19.1 C 0 km/h
2485 06-09-2020 15:00:00 19.2 C 8.74 g/m*3 19.2 C 9.7 km/h
2486 06-09-2020 15:05:00 19.1 C 8.52 g/m*3 19.1 C 11.3 km/h
2487 06-09-2020 15:10:00 18.9 C 8.42 g/m*3 18.9 C 4.8 km/h
2488 06-09-2020 15:15:00 18.9 C 8.59 g/m*3 18.9 C 6.4 km/h
2489 06-09-2020 15:20:00 19 C 8.64 g/m*3 19 C 6.4 km/h
2490 06-09-2020 15:25:00 19.1 C 8.52 g/m*3 19.1 C 0 km/h
2491 06-09-2020 15:30:00 19.2 C 8.74 g/m*3 19.2 C 0 km/h
2492 06-09-2020 15:35:00 19.2 C 8.41 g/m*3 19.2 C 6.4 km/h
2493 06-09-2020 15:40:00 19.1 C 8.85 g/m*3 19.1 C 6.4 km/h
2494 06-09-2020 15:45:00 19.1 C 8.69 g/m*3 19.1 C 8.1 km/h
2495 06-09-2020 15:50:00 18.9 C 8.59 g/m*3 18.9 C 8.1 km/h
2496 06-09-2020 15:55:00 18.8 C 8.54 g/m*3 18.8 C 8.1 km/h
2497 06-09-2020 16:00:00 18.7 C 8.49 g/m*3 18.7 C 9.7 km/h
2498 06-09-2020 16:05:00 18.6 C 8.44 g/m*3 18.6 C 4.8 km/h
2499 06-09-2020 16:10:00 18.5 C 8.54 g/m*3 18.5 C 0 km/h
2500 06-09-2020 16:15:00 18.4 C 8.34 g/m*3 18.4 C 1.6 km/h
Sensor: Nr:Datum:Temp:Abs-Feuchte:Windchill:Wind:
Aussen-T/F 2501 06-09-2020 16:20:00 18.4 C 8.34 g/m*3 18.4 C 3.2 km/h
2502 06-09-2020 16:25:00 18.4 C 8.34 g/m*3 18.4 C 0 km/h
2503 06-09-2020 16:30:00 18.4 C 8.34 g/m*3 18.4 C 8.1 km/h
2504 06-09-2020 16:35:00 18.4 C 8.34 g/m*3 18.4 C 6.4 km/h
2505 06-09-2020 16:40:00 18.5 C 8.39 g/m*3 18.5 C 4.8 km/h
2506 06-09-2020 16:45:00 18.5 C 8.39 g/m*3 18.5 C 8.1 km/h
2507 06-09-2020 16:50:00 18.6 C 8.59 g/m*3 18.6 C 11.3 km/h
2508 06-09-2020 16:55:00 18.6 C 8.59 g/m*3 18.6 C 8.1 km/h
2509 06-09-2020 17:00:00 18.6 C 8.59 g/m*3 18.6 C 9.7 km/h
2510 06-09-2020 17:05:00 18.7 C 8.49 g/m*3 18.7 C 8.1 km/h
2511 06-09-2020 17:10:00 18.7 C 8.49 g/m*3 18.7 C 8.1 km/h
2512 06-09-2020 17:15:00 18.7 C 8.65 g/m*3 18.7 C 3.2 km/h
2513 06-09-2020 17:20:00 18.7 C 8.65 g/m*3 18.7 C 6.4 km/h
2514 06-09-2020 17:25:00 18.7 C 8.49 g/m*3 18.7 C 4.8 km/h
2515 06-09-2020 17:30:00 18.6 C 8.59 g/m*3 18.6 C 9.7 km/h
2516 06-09-2020 17:35:00 18.6 C 8.91 g/m*3 18.6 C 8.1 km/h
2517 06-09-2020 17:40:00 18.5 C 8.86 g/m*3 18.5 C 9.7 km/h
2518 06-09-2020 17:45:00 18.4 C 8.97 g/m*3 18.4 C 9.7 km/h
2519 06-09-2020 17:50:00 18.3 C 8.6 g/m*3 18.3 C 8.1 km/h
2520 06-09-2020 17:55:00 18.3 C 8.91 g/m*3 18.3 C 4.8 km/h
2521 06-09-2020 18:00:00 18.3 C 8.76 g/m*3 18.3 C 6.4 km/h
2522 06-09-2020 18:05:00 18.3 C 8.76 g/m*3 18.3 C 4.8 km/h
2523 06-09-2020 18:10:00 18.3 C 8.76 g/m*3 18.3 C 4.8 km/h
2524 06-09-2020 18:15:00 18.4 C 8.81 g/m*3 18.4 C 1.6 km/h
2525 06-09-2020 18:20:00 18.9 C 8.91 g/m*3 18.9 C 0 km/h
Sensor: Nr:Datum:Temp:Abs-Feuchte:Windchill:Wind:
Aussen-T/F 2526 06-09-2020 18:25:00 19.3 C 8.79 g/m*3 19.3 C 0 km/h
2527 06-09-2020 18:30:00 19.6 C 8.78 g/m*3 19.6 C 0 km/h
2528 06-09-2020 18:35:00 19.7 C 8.66 g/m*3 19.7 C 9.7 km/h
2529 06-09-2020 18:40:00 19.6 C 8.61 g/m*3 19.6 C 4.8 km/h
2530 06-09-2020 18:45:00 19.6 C 8.95 g/m*3 19.6 C 1.6 km/h
2531 06-09-2020 18:50:00 19.7 C 8.49 g/m*3 19.7 C 3.2 km/h
2532 06-09-2020 18:55:00 19.7 C 8.83 g/m*3 19.7 C 3.2 km/h
2533 06-09-2020 19:00:00 19.8 C 8.71 g/m*3 19.8 C 0 km/h
2534 06-09-2020 19:05:00 19.8 C 8.37 g/m*3 19.8 C 4.8 km/h
2535 06-09-2020 19:10:00 19.6 C 8.61 g/m*3 19.6 C 6.4 km/h
2536 06-09-2020 19:15:00 19.3 C 8.46 g/m*3 19.3 C 3.2 km/h
2537 06-09-2020 19:20:00 19.2 C 8.74 g/m*3 19.2 C 4.8 km/h
2538 06-09-2020 19:25:00 18.9 C 8.91 g/m*3 18.9 C 4.8 km/h
2539 06-09-2020 19:30:00 18.7 C 8.65 g/m*3 18.7 C 4.8 km/h
2540 06-09-2020 19:35:00 18.4 C 9.28 g/m*3 18.4 C 0 km/h
2541 06-09-2020 19:40:00 18.2 C 9.33 g/m*3 18.2 C 0 km/h
2542 06-09-2020 19:45:00 17.8 C 9.11 g/m*3 17.8 C 0 km/h
2543 06-09-2020 19:50:00 17.3 C 8.99 g/m*3 17.3 C 0 km/h
2544 06-09-2020 19:55:00 16.8 C 9.01 g/m*3 16.8 C 0 km/h
2545 06-09-2020 20:00:00 16.4 C 8.93 g/m*3 16.4 C 0 km/h
2546 06-09-2020 20:05:00 15.9 C 8.8 g/m*3 15.9 C 0 km/h
2547 06-09-2020 20:10:00 15.6 C 8.91 g/m*3 15.6 C 0 km/h
2548 06-09-2020 20:15:00 15.2 C 8.7 g/m*3 15.2 C 0 km/h
2549 06-09-2020 20:20:00 14.9 C 8.54 g/m*3 14.9 C 0 km/h
2550 06-09-2020 20:25:00 14.7 C 8.56 g/m*3 14.7 C 0 km/h
Sensor: Nr:Datum:Temp:Abs-Feuchte:Windchill:Wind:
Aussen-T/F 2551 06-09-2020 20:30:00 14.4 C 8.41 g/m*3 14.4 C 0 km/h
2552 06-09-2020 20:35:00 14.2 C 8.43 g/m*3 14.2 C 0 km/h
2553 06-09-2020 20:40:00 14.1 C 8.37 g/m*3 14.1 C 0 km/h
2554 06-09-2020 20:45:00 13.9 C 8.39 g/m*3 13.9 C 0 km/h
2555 06-09-2020 20:50:00 13.7 C 8.41 g/m*3 13.7 C 0 km/h
2556 06-09-2020 20:55:00 13.6 C 8.47 g/m*3 13.6 C 0 km/h
2557 06-09-2020 21:00:00 13.4 C 8.49 g/m*3 13.4 C 0 km/h
2558 06-09-2020 21:05:00 13.3 C 8.55 g/m*3 13.3 C 0 km/h
2559 06-09-2020 21:10:00 13.2 C 8.5 g/m*3 13.2 C 0 km/h
2560 06-09-2020 21:15:00 13.1 C 8.56 g/m*3 13.1 C 0 km/h
2561 06-09-2020 21:20:00 13 C 8.62 g/m*3 13 C 0 km/h
2562 06-09-2020 21:25:00 12.8 C 8.51 g/m*3 12.8 C 0 km/h
2563 06-09-2020 21:30:00 12.7 C 8.57 g/m*3 12.7 C 0 km/h
2564 06-09-2020 21:35:00 12.6 C 8.63 g/m*3 12.6 C 0 km/h
2565 06-09-2020 21:40:00 12.6 C 8.74 g/m*3 12.6 C 0 km/h
2566 06-09-2020 21:45:00 12.5 C 8.69 g/m*3 12.5 C 0 km/h
2567 06-09-2020 21:50:00 12.4 C 8.74 g/m*3 12.4 C 0 km/h
2568 06-09-2020 21:55:00 12.4 C 8.85 g/m*3 12.4 C 0 km/h
2569 06-09-2020 22:00:00 12.4 C 8.85 g/m*3 12.4 C 0 km/h
2570 06-09-2020 22:05:00 12.4 C 8.85 g/m*3 12.4 C 0 km/h
2571 06-09-2020 22:10:00 12.3 C 8.9 g/m*3 12.3 C 0 km/h
2572 06-09-2020 22:15:00 12.3 C 8.9 g/m*3 12.3 C 0 km/h
2573 06-09-2020 22:20:00 12.3 C 8.8 g/m*3 12.3 C 0 km/h
2574 06-09-2020 22:25:00 12.3 C 8.9 g/m*3 12.3 C 0 km/h
2575 06-09-2020 22:30:00 12.3 C 8.9 g/m*3 12.3 C 0 km/h
Sensor: Nr:Datum:Temp:Abs-Feuchte:Windchill:Wind:
Aussen-T/F 2576 06-09-2020 22:35:00 12.4 C 8.96 g/m*3 12.4 C 0 km/h
2577 06-09-2020 22:40:00 12.3 C 8.8 g/m*3 12.3 C 0 km/h
2578 06-09-2020 22:45:00 12.4 C 8.85 g/m*3 12.4 C 0 km/h
2579 06-09-2020 22:50:00 12.4 C 8.96 g/m*3 12.4 C 0 km/h
2580 06-09-2020 22:55:00 12.4 C 8.96 g/m*3 12.4 C 0 km/h
2581 06-09-2020 23:00:00 12.5 C 9.02 g/m*3 12.5 C 0 km/h
2582 06-09-2020 23:05:00 12.5 C 9.02 g/m*3 12.5 C 0 km/h
2583 06-09-2020 23:10:00 12.5 C 9.02 g/m*3 12.5 C 0 km/h
2584 06-09-2020 23:15:00 12.6 C 9.07 g/m*3 12.6 C 0 km/h
2585 06-09-2020 23:20:00 12.6 C 9.07 g/m*3 12.6 C 0 km/h
2586 06-09-2020 23:25:00 12.6 C 9.07 g/m*3 12.6 C 0 km/h
2587 06-09-2020 23:30:00 12.5 C 8.91 g/m*3 12.5 C 0 km/h
2588 06-09-2020 23:35:00 12.6 C 8.96 g/m*3 12.6 C 3.2 km/h
2589 06-09-2020 23:40:00 12.6 C 8.96 g/m*3 12.6 C 0 km/h
2590 06-09-2020 23:45:00 12.6 C 8.96 g/m*3 12.6 C 0 km/h
2591 06-09-2020 23:50:00 12.6 C 9.07 g/m*3 12.6 C 0 km/h
2592 06-09-2020 23:55:00 12.7 C 9.13 g/m*3 12.7 C 0 km/h
2593 07-09-2020 00:00:00 12.6 C 9.07 g/m*3 12.6 C 0 km/h
2594 07-09-2020 00:05:00 12.6 C 9.07 g/m*3 12.6 C 0 km/h
2595 07-09-2020 00:10:00 12.6 C 8.96 g/m*3 12.6 C 1.6 km/h
2596 07-09-2020 00:15:00 12.6 C 8.96 g/m*3 12.6 C 0 km/h
2597 07-09-2020 00:20:00 12.6 C 8.96 g/m*3 12.6 C 0 km/h
2598 07-09-2020 00:25:00 12.6 C 8.96 g/m*3 12.6 C 0 km/h
2599 07-09-2020 00:30:00 12.6 C 9.07 g/m*3 12.6 C 0 km/h
2600 07-09-2020 00:35:00 12.6 C 9.07 g/m*3 12.6 C 0 km/h
Sensor: Nr:Datum:Temp:Abs-Feuchte:Windchill:Wind:
Aussen-T/F 2601 07-09-2020 00:40:00 12.6 C 9.07 g/m*3 12.6 C 0 km/h
2602 07-09-2020 00:45:00 12.6 C 9.07 g/m*3 12.6 C 0 km/h
2603 07-09-2020 00:50:00 12.6 C 9.07 g/m*3 12.6 C 0 km/h
2604 07-09-2020 00:55:00 12.5 C 9.02 g/m*3 12.5 C 0 km/h
2605 07-09-2020 01:00:00 12.5 C 9.02 g/m*3 12.5 C 0 km/h
2606 07-09-2020 01:05:00 12.5 C 9.02 g/m*3 12.5 C 0 km/h
2607 07-09-2020 01:10:00 12.4 C 9.07 g/m*3 12.4 C 0 km/h
2608 07-09-2020 01:15:00 12.4 C 9.07 g/m*3 12.4 C 0 km/h
2609 07-09-2020 01:20:00 12.4 C 9.07 g/m*3 12.4 C 0 km/h
2610 07-09-2020 01:25:00 12.3 C 9.01 g/m*3 12.3 C 0 km/h
2611 07-09-2020 01:30:00 12.3 C 9.01 g/m*3 12.3 C 0 km/h
2612 07-09-2020 01:35:00 12.2 C 8.96 g/m*3 12.2 C 0 km/h
2613 07-09-2020 01:40:00 12 C 8.85 g/m*3 12 C 0 km/h
2614 07-09-2020 01:45:00 11.9 C 8.79 g/m*3 11.9 C 0 km/h
2615 07-09-2020 01:50:00 11.8 C 8.84 g/m*3 11.8 C 0 km/h
2616 07-09-2020 01:55:00 11.6 C 8.73 g/m*3 11.6 C 0 km/h
2617 07-09-2020 02:00:00 11.5 C 8.68 g/m*3 11.5 C 0 km/h
2618 07-09-2020 02:05:00 11.3 C 8.57 g/m*3 11.3 C 0 km/h
2619 07-09-2020 02:10:00 11.2 C 8.51 g/m*3 11.2 C 0 km/h
2620 07-09-2020 02:15:00 11.1 C 8.56 g/m*3 11.1 C 0 km/h
2621 07-09-2020 02:20:00 10.9 C 8.45 g/m*3 10.9 C 1.6 km/h
2622 07-09-2020 02:25:00 10.8 C 8.5 g/m*3 10.8 C 0 km/h
2623 07-09-2020 02:30:00 10.6 C 8.39 g/m*3 10.6 C 0 km/h
2624 07-09-2020 02:35:00 10.5 C 8.44 g/m*3 10.5 C 0 km/h
2625 07-09-2020 02:40:00 10.4 C 8.38 g/m*3 10.4 C 0 km/h
Sensor: Nr:Datum:Temp:Abs-Feuchte:Windchill:Wind:
Aussen-T/F 2626 07-09-2020 02:45:00 10.3 C 8.33 g/m*3 10.3 C 0 km/h
2627 07-09-2020 02:50:00 10.1 C 8.23 g/m*3 10.1 C 0 km/h
2628 07-09-2020 02:55:00 10 C 8.27 g/m*3 10 C 0 km/h
2629 07-09-2020 03:00:00 9.9 C 8.22 g/m*3 9.9 C 0 km/h
2630 07-09-2020 03:05:00 9.8 C 8.16 g/m*3 9.8 C 0 km/h
2631 07-09-2020 03:10:00 9.7 C 8.11 g/m*3 9.7 C 0 km/h
2632 07-09-2020 03:15:00 9.6 C 8.15 g/m*3 9.6 C 1.6 km/h
2633 07-09-2020 03:20:00 9.6 C 8.15 g/m*3 9.6 C 0 km/h
2634 07-09-2020 03:25:00 9.4 C 8.05 g/m*3 9.4 C 0 km/h
2635 07-09-2020 03:30:00 9.4 C 8.05 g/m*3 9.4 C 0 km/h
2636 07-09-2020 03:35:00 9.3 C 8.09 g/m*3 9.3 C 0 km/h
2637 07-09-2020 03:40:00 9.3 C 8.09 g/m*3 9.3 C 0 km/h
2638 07-09-2020 03:45:00 9.3 C 8.09 g/m*3 9.3 C 0 km/h
2639 07-09-2020 03:50:00 9.2 C 8.04 g/m*3 9.2 C 0 km/h
2640 07-09-2020 03:55:00 9.2 C 8.04 g/m*3 9.2 C 0 km/h
2641 07-09-2020 04:00:00 9.1 C 7.99 g/m*3 9.1 C 0 km/h
2642 07-09-2020 04:05:00 9 C 8.02 g/m*3 9 C 0 km/h
2643 07-09-2020 04:10:00 9 C 8.02 g/m*3 9 C 0 km/h
2644 07-09-2020 04:15:00 8.9 C 7.97 g/m*3 8.9 C 0 km/h
2645 07-09-2020 04:20:00 8.9 C 7.97 g/m*3 8.9 C 0 km/h
2646 07-09-2020 04:25:00 8.8 C 7.92 g/m*3 8.8 C 0 km/h
2647 07-09-2020 04:30:00 8.8 C 7.92 g/m*3 8.8 C 0 km/h
2648 07-09-2020 04:35:00 8.8 C 7.92 g/m*3 8.8 C 0 km/h
2649 07-09-2020 04:40:00 8.7 C 7.87 g/m*3 8.7 C 0 km/h
2650 07-09-2020 04:45:00 8.6 C 7.82 g/m*3 8.6 C 0 km/h
Sensor: Nr:Datum:Temp:Abs-Feuchte:Windchill:Wind:
Aussen-T/F 2651 07-09-2020 04:50:00 8.6 C 7.91 g/m*3 8.6 C 0 km/h
2652 07-09-2020 04:55:00 8.5 C 7.85 g/m*3 8.5 C 1.6 km/h
2653 07-09-2020 05:00:00 8.5 C 7.85 g/m*3 8.5 C 0 km/h
2654 07-09-2020 05:05:00 8.4 C 7.8 g/m*3 8.4 C 1.6 km/h
2655 07-09-2020 05:10:00 8.4 C 7.8 g/m*3 8.4 C 3.2 km/h
2656 07-09-2020 05:15:00 8.4 C 7.89 g/m*3 8.4 C 0 km/h
2657 07-09-2020 05:20:00 8.3 C 7.75 g/m*3 8.3 C 0 km/h
2658 07-09-2020 05:25:00 8.3 C 7.75 g/m*3 8.3 C 0 km/h
2659 07-09-2020 05:30:00 8.3 C 7.75 g/m*3 8.3 C 0 km/h
2660 07-09-2020 05:35:00 8.2 C 7.7 g/m*3 8.2 C 0 km/h
2661 07-09-2020 05:40:00 8.1 C 7.74 g/m*3 8.1 C 0 km/h
2662 07-09-2020 05:45:00 8.1 C 7.74 g/m*3 8.1 C 0 km/h
2663 07-09-2020 05:50:00 8 C 7.69 g/m*3 8 C 0 km/h
2664 07-09-2020 05:55:00 7.9 C 7.64 g/m*3 7.9 C 0 km/h
2665 07-09-2020 06:00:00 7.9 C 7.64 g/m*3 7.9 C 0 km/h
2666 07-09-2020 06:05:00 7.9 C 7.64 g/m*3 7.9 C 0 km/h
2667 07-09-2020 06:10:00 7.8 C 7.59 g/m*3 7.8 C 0 km/h
2668 07-09-2020 06:15:00 7.8 C 7.59 g/m*3 7.8 C 1.6 km/h
2669 07-09-2020 06:20:00 7.9 C 7.72 g/m*3 7.9 C 3.2 km/h
2670 07-09-2020 06:25:00 7.9 C 7.72 g/m*3 7.9 C 1.6 km/h
2671 07-09-2020 06:30:00 7.9 C 7.72 g/m*3 7.9 C 0 km/h
2672 07-09-2020 06:35:00 7.9 C 7.64 g/m*3 7.9 C 0 km/h
2673 07-09-2020 06:40:00 7.8 C 7.59 g/m*3 7.8 C 0 km/h
2674 07-09-2020 06:45:00 7.7 C 7.54 g/m*3 7.7 C 0 km/h
2675 07-09-2020 06:50:00 7.7 C 7.54 g/m*3 7.7 C 0 km/h
Sensor: Nr:Datum:Temp:Abs-Feuchte:Windchill:Wind:
Aussen-T/F 2676 07-09-2020 06:55:00 7.6 C 7.49 g/m*3 7.6 C 0 km/h
2677 07-09-2020 07:00:00 7.6 C 7.57 g/m*3 7.6 C 0 km/h
2678 07-09-2020 07:05:00 7.7 C 7.62 g/m*3 7.7 C 0 km/h
2679 07-09-2020 07:10:00 7.6 C 7.57 g/m*3 7.6 C 0 km/h
2680 07-09-2020 07:15:00 7.6 C 7.57 g/m*3 7.6 C 0 km/h
2681 07-09-2020 07:20:00 7.5 C 7.52 g/m*3 7.5 C 0 km/h
2682 07-09-2020 07:25:00 7.5 C 7.52 g/m*3 7.5 C 0 km/h
2683 07-09-2020 07:30:00 7.5 C 7.52 g/m*3 7.5 C 0 km/h
2684 07-09-2020 07:35:00 7.6 C 7.57 g/m*3 7.6 C 0 km/h
2685 07-09-2020 07:40:00 7.6 C 7.57 g/m*3 7.6 C 0 km/h
2686 07-09-2020 07:45:00 7.6 C 7.57 g/m*3 7.6 C 0 km/h
2687 07-09-2020 07:50:00 7.7 C 7.62 g/m*3 7.7 C 0 km/h
2688 07-09-2020 07:55:00 7.7 C 7.62 g/m*3 7.7 C 0 km/h
2689 07-09-2020 08:00:00 7.7 C 7.7 g/m*3 7.7 C 0 km/h
2690 07-09-2020 08:05:00 7.8 C 7.75 g/m*3 7.8 C 0 km/h
2691 07-09-2020 08:10:00 7.8 C 7.75 g/m*3 7.8 C 0 km/h
2692 07-09-2020 08:15:00 7.8 C 7.75 g/m*3 7.8 C 0 km/h
2693 07-09-2020 08:20:00 7.9 C 7.8 g/m*3 7.9 C 0 km/h
2694 07-09-2020 08:25:00 7.9 C 7.8 g/m*3 7.9 C 0 km/h
2695 07-09-2020 08:30:00 8 C 7.85 g/m*3 8 C 0 km/h
2696 07-09-2020 08:35:00 8.1 C 7.9 g/m*3 8.1 C 1.6 km/h
2697 07-09-2020 08:40:00 8.1 C 7.9 g/m*3 8.1 C 1.6 km/h
2698 07-09-2020 08:45:00 8.2 C 7.96 g/m*3 8.2 C 0 km/h
2699 07-09-2020 08:50:00 8.2 C 7.96 g/m*3 8.2 C 0 km/h
2700 07-09-2020 08:55:00 8.3 C 8.01 g/m*3 8.3 C 0 km/h
Sensor: Nr:Datum:Temp:Abs-Feuchte:Windchill:Wind:
Aussen-T/F 2701 07-09-2020 09:00:00 8.4 C 8.06 g/m*3 8.4 C 0 km/h
2702 07-09-2020 09:05:00 8.4 C 8.06 g/m*3 8.4 C 0 km/h
2703 07-09-2020 09:10:00 8.6 C 8.16 g/m*3 8.6 C 0 km/h
2704 07-09-2020 09:15:00 8.7 C 8.22 g/m*3 8.7 C 1.6 km/h
2705 07-09-2020 09:20:00 8.8 C 8.36 g/m*3 8.8 C 0 km/h
2706 07-09-2020 09:25:00 8.9 C 8.32 g/m*3 8.9 C 0 km/h
2707 07-09-2020 09:30:00 9.1 C 8.52 g/m*3 9.1 C 0 km/h
2708 07-09-2020 09:35:00 9.2 C 8.57 g/m*3 9.2 C 0 km/h
2709 07-09-2020 09:40:00 9.2 C 8.57 g/m*3 9.2 C 1.6 km/h
2710 07-09-2020 09:45:00 9.3 C 8.54 g/m*3 9.3 C 0 km/h
2711 07-09-2020 09:50:00 9.4 C 8.59 g/m*3 9.4 C 0 km/h
2712 07-09-2020 09:55:00 9.5 C 8.74 g/m*3 9.5 C 1.6 km/h
2713 07-09-2020 10:00:00 9.7 C 8.85 g/m*3 9.7 C 3.2 km/h
2714 07-09-2020 10:05:00 9.8 C 8.91 g/m*3 9.8 C 3.2 km/h
2715 07-09-2020 10:10:00 9.9 C 8.96 g/m*3 9.9 C 3.2 km/h
2716 07-09-2020 10:15:00 10.1 C 9.08 g/m*3 10.1 C 0 km/h
2717 07-09-2020 10:20:00 10.2 C 9.14 g/m*3 10.2 C 0 km/h
2718 07-09-2020 10:25:00 10.4 C 9.25 g/m*3 10.4 C 0 km/h
2719 07-09-2020 10:30:00 10.6 C 9.37 g/m*3 10.6 C 0 km/h
2720 07-09-2020 10:35:00 10.8 C 9.39 g/m*3 10.8 C 0 km/h
2721 07-09-2020 10:40:00 11 C 9.51 g/m*3 11 C 0 km/h
2722 07-09-2020 10:45:00 11.2 C 9.63 g/m*3 11.2 C 0 km/h
2723 07-09-2020 10:50:00 11.4 C 9.65 g/m*3 11.4 C 0 km/h
2724 07-09-2020 10:55:00 11.7 C 9.83 g/m*3 11.7 C 1.6 km/h
2725 07-09-2020 11:00:00 12.1 C 9.97 g/m*3 12.1 C 0 km/h
Sensor: Nr:Datum:Temp:Abs-Feuchte:Windchill:Wind:
Aussen-T/F 2726 07-09-2020 11:05:00 12.3 C 9.99 g/m*3 12.3 C 3.2 km/h
2727 07-09-2020 11:10:00 12.7 C 10.13 g/m*3 12.7 C 0 km/h
2728 07-09-2020 11:15:00 12.9 C 10.14 g/m*3 12.9 C 1.6 km/h
2729 07-09-2020 11:20:00 13.3 C 10.28 g/m*3 13.3 C 3.2 km/h
2730 07-09-2020 11:25:00 13.6 C 10.36 g/m*3 13.6 C 0 km/h
2731 07-09-2020 11:30:00 13.8 C 10.13 g/m*3 13.8 C 1.6 km/h
2732 07-09-2020 11:35:00 14.2 C 10.26 g/m*3 14.2 C 6.4 km/h
2733 07-09-2020 11:40:00 14.4 C 10.26 g/m*3 14.4 C 0 km/h
2734 07-09-2020 11:45:00 14.7 C 10.45 g/m*3 14.7 C 0 km/h
2735 07-09-2020 11:50:00 14.9 C 10.32 g/m*3 14.9 C 1.6 km/h
2736 07-09-2020 11:55:00 15.1 C 10.32 g/m*3 15.1 C 3.2 km/h
2737 07-09-2020 12:00:00 15.3 C 10.32 g/m*3 15.3 C 1.6 km/h
2738 07-09-2020 12:05:00 15.5 C 10.18 g/m*3 15.5 C 0 km/h
2739 07-09-2020 12:10:00 15.8 C 10.36 g/m*3 15.8 C 0 km/h
2740 07-09-2020 12:15:00 15.9 C 10.02 g/m*3 15.9 C 4.8 km/h
2741 07-09-2020 12:20:00 16.3 C 10.13 g/m*3 16.3 C 4.8 km/h
2742 07-09-2020 12:25:00 16.5 C 10.11 g/m*3 16.5 C 0 km/h
2743 07-09-2020 12:30:00 16.7 C 10.09 g/m*3 16.7 C 1.6 km/h
2744 07-09-2020 12:35:00 16.8 C 9.87 g/m*3 16.8 C 4.8 km/h
2745 07-09-2020 12:40:00 17 C 9.69 g/m*3 17 C 3.2 km/h
2746 07-09-2020 12:45:00 17.2 C 9.81 g/m*3 17.2 C 4.8 km/h
2747 07-09-2020 12:50:00 17.3 C 9.72 g/m*3 17.3 C 6.4 km/h
2748 07-09-2020 12:55:00 17.4 C 9.48 g/m*3 17.4 C 8.1 km/h
2749 07-09-2020 13:00:00 17.6 C 9.6 g/m*3 17.6 C 6.4 km/h
2750 07-09-2020 13:05:00 17.8 C 9.87 g/m*3 17.8 C 3.2 km/h
Sensor: Nr:Datum:Temp:Abs-Feuchte:Windchill:Wind:
Aussen-T/F 2751 07-09-2020 13:10:00 17.9 C 9.62 g/m*3 17.9 C 4.8 km/h
2752 07-09-2020 13:15:00 18 C 9.52 g/m*3 18 C 1.6 km/h
2753 07-09-2020 13:20:00 18.1 C 9.58 g/m*3 18.1 C 9.7 km/h
2754 07-09-2020 13:25:00 18.2 C 9.64 g/m*3 18.2 C 6.4 km/h
2755 07-09-2020 13:30:00 18.2 C 9.79 g/m*3 18.2 C 0 km/h
2756 07-09-2020 13:35:00 18.3 C 9.22 g/m*3 18.3 C 3.2 km/h
2757 07-09-2020 13:40:00 18.3 C 9.38 g/m*3 18.3 C 3.2 km/h
2758 07-09-2020 13:45:00 18.3 C 9.07 g/m*3 18.3 C 3.2 km/h
2759 07-09-2020 13:50:00 18.4 C 8.97 g/m*3 18.4 C 3.2 km/h
2760 07-09-2020 13:55:00 18.5 C 9.02 g/m*3 18.5 C 1.6 km/h
2761 07-09-2020 14:00:00 18.7 C 8.97 g/m*3 18.7 C 4.8 km/h
2762 07-09-2020 14:05:00 18.8 C 8.54 g/m*3 18.8 C 8.1 km/h
2763 07-09-2020 14:10:00 19 C 8.96 g/m*3 19 C 8.1 km/h
2764 07-09-2020 14:15:00 19.2 C 8.9 g/m*3 19.2 C 9.7 km/h
2765 07-09-2020 14:20:00 19.3 C 8.96 g/m*3 19.3 C 8.1 km/h
2766 07-09-2020 14:25:00 19.3 C 8.79 g/m*3 19.3 C 0 km/h
2767 07-09-2020 14:30:00 19.4 C 8.68 g/m*3 19.4 C 6.4 km/h
2768 07-09-2020 14:35:00 19.5 C 9.06 g/m*3 19.5 C 6.4 km/h
2769 07-09-2020 14:40:00 19.7 C 8.83 g/m*3 19.7 C 9.7 km/h
2770 07-09-2020 14:45:00 19.9 C 8.93 g/m*3 19.9 C 6.4 km/h
2771 07-09-2020 14:50:00 20.1 C 8.87 g/m*3 20.1 C 1.6 km/h
2772 07-09-2020 14:55:00 20.3 C 8.62 g/m*3 20.3 C 11.3 km/h
2773 07-09-2020 15:00:00 20.3 C 8.79 g/m*3 20.3 C 4.8 km/h
2774 07-09-2020 15:05:00 20.4 C 8.49 g/m*3 20.4 C 4.8 km/h
2775 07-09-2020 15:10:00 20.5 C 9.07 g/m*3 20.5 C 6.4 km/h
Sensor: Nr:Datum:Temp:Abs-Feuchte:Windchill:Wind:
Aussen-T/F 2776 07-09-2020 15:15:00 20.5 C 8.72 g/m*3 20.5 C 6.4 km/h
2777 07-09-2020 15:20:00 20.6 C 8.95 g/m*3 20.6 C 1.6 km/h
2778 07-09-2020 15:25:00 20.6 C 8.95 g/m*3 20.6 C 4.8 km/h
2779 07-09-2020 15:30:00 20.7 C 8.82 g/m*3 20.7 C 9.7 km/h
2780 07-09-2020 15:35:00 20.8 C 8.87 g/m*3 20.8 C 3.2 km/h
2781 07-09-2020 15:40:00 20.8 C 8.87 g/m*3 20.8 C 6.4 km/h
2782 07-09-2020 15:45:00 20.9 C 8.92 g/m*3 20.9 C 6.4 km/h
2783 07-09-2020 15:50:00 21.1 C 8.84 g/m*3 21.1 C 6.4 km/h
2784 07-09-2020 15:55:00 21.2 C 8.71 g/m*3 21.2 C 4.8 km/h
2785 07-09-2020 16:00:00 21.2 C 8.71 g/m*3 21.2 C 4.8 km/h
2786 07-09-2020 16:05:00 21.1 C 8.66 g/m*3 21.1 C 0 km/h
2787 07-09-2020 16:10:00 21.1 C 8.84 g/m*3 21.1 C 8.1 km/h
2788 07-09-2020 16:15:00 21.2 C 9.08 g/m*3 21.2 C 6.4 km/h
2789 07-09-2020 16:20:00 21.4 C 9 g/m*3 21.4 C 6.4 km/h
2790 07-09-2020 16:25:00 21.7 C 9.16 g/m*3 21.7 C 4.8 km/h
2791 07-09-2020 16:30:00 21.8 C 8.63 g/m*3 21.8 C 6.4 km/h
2792 07-09-2020 16:35:00 22 C 8.93 g/m*3 22 C 6.4 km/h
2793 07-09-2020 16:40:00 22.2 C 9.03 g/m*3 22.2 C 9.7 km/h
2794 07-09-2020 16:45:00 22.4 C 8.74 g/m*3 22.4 C 6.4 km/h
2795 07-09-2020 16:50:00 22.3 C 8.69 g/m*3 22.3 C 1.6 km/h
2796 07-09-2020 16:55:00 21.9 C 8.88 g/m*3 21.9 C 3.2 km/h
2797 07-09-2020 17:00:00 21.7 C 8.97 g/m*3 21.7 C 6.4 km/h
2798 07-09-2020 17:05:00 21.6 C 9.1 g/m*3 21.6 C 4.8 km/h
2799 07-09-2020 17:10:00 22.1 C 8.98 g/m*3 22.1 C 0 km/h
2800 07-09-2020 17:15:00 22.6 C 8.84 g/m*3 22.6 C 0 km/h
Sensor: Nr:Datum:Temp:Abs-Feuchte:Windchill:Wind:
Aussen-T/F 2801 07-09-2020 17:20:00 22.7 C 8.89 g/m*3 22.7 C 6.4 km/h
2802 07-09-2020 17:25:00 22.9 C 8.99 g/m*3 22.9 C 3.2 km/h
2803 07-09-2020 17:30:00 23.3 C 9.41 g/m*3 23.3 C 1.6 km/h
2804 07-09-2020 17:35:00 23.5 C 9.09 g/m*3 23.5 C 8.1 km/h
2805 07-09-2020 17:40:00 23.6 C 9.15 g/m*3 23.6 C 1.6 km/h
2806 07-09-2020 17:45:00 23.6 C 8.72 g/m*3 23.6 C 6.4 km/h
2807 07-09-2020 17:50:00 23.3 C 9.2 g/m*3 23.3 C 6.4 km/h
2808 07-09-2020 17:55:00 23.3 C 8.78 g/m*3 23.3 C 0 km/h
2809 07-09-2020 18:00:00 23.5 C 8.88 g/m*3 23.5 C 1.6 km/h
2810 07-09-2020 18:05:00 23.4 C 10.09 g/m*3 23.4 C 0 km/h
2811 07-09-2020 18:10:00 23.1 C 10.34 g/m*3 23.1 C 0 km/h
2812 07-09-2020 18:15:00 22.6 C 10.04 g/m*3 22.6 C 0 km/h
2813 07-09-2020 18:20:00 22.1 C 10.15 g/m*3 22.1 C 0 km/h
2814 07-09-2020 18:25:00 21.6 C 10.43 g/m*3 21.6 C 0 km/h
2815 07-09-2020 18:30:00 21.3 C 10.44 g/m*3 21.3 C 0 km/h
2816 07-09-2020 18:35:00 21.6 C 10.43 g/m*3 21.6 C 0 km/h
2817 07-09-2020 18:40:00 22 C 10.09 g/m*3 22 C 0 km/h
2818 07-09-2020 18:45:00 22.4 C 9.73 g/m*3 22.4 C 0 km/h
2819 07-09-2020 18:50:00 22.8 C 10.16 g/m*3 22.8 C 0 km/h
2820 07-09-2020 18:55:00 22.7 C 9.09 g/m*3 22.7 C 6.4 km/h
2821 07-09-2020 19:00:00 22.6 C 9.84 g/m*3 22.6 C 4.8 km/h
2822 07-09-2020 19:05:00 22.6 C 10.65 g/m*3 22.6 C 0 km/h
2823 07-09-2020 19:10:00 22.4 C 10.53 g/m*3 22.4 C 0 km/h
2824 07-09-2020 19:15:00 22.2 C 10.41 g/m*3 22.2 C 0 km/h
2825 07-09-2020 19:20:00 21.8 C 10.36 g/m*3 21.8 C 1.6 km/h
Sensor: Nr:Datum:Temp:Abs-Feuchte:Windchill:Wind:
Aussen-T/F 2826 07-09-2020 19:25:00 21.4 C 10.31 g/m*3 21.4 C 3.2 km/h
2827 07-09-2020 19:30:00 20.8 C 10.14 g/m*3 20.8 C 6.4 km/h
2828 07-09-2020 19:35:00 20.3 C 9.85 g/m*3 20.3 C 4.8 km/h
2829 07-09-2020 19:40:00 19.8 C 9.91 g/m*3 19.8 C 4.8 km/h
2830 07-09-2020 19:45:00 19.2 C 9.56 g/m*3 19.2 C 4.8 km/h
2831 07-09-2020 19:50:00 18.8 C 9.5 g/m*3 18.8 C 0 km/h
2832 07-09-2020 19:55:00 18.3 C 9.38 g/m*3 18.3 C 0 km/h
2833 07-09-2020 20:00:00 17.9 C 9.16 g/m*3 17.9 C 4.8 km/h
2834 07-09-2020 20:05:00 17.6 C 9.3 g/m*3 17.6 C 1.6 km/h
2835 07-09-2020 20:10:00 17.3 C 9.13 g/m*3 17.3 C 4.8 km/h
2836 07-09-2020 20:15:00 17.1 C 9.17 g/m*3 17.1 C 4.8 km/h
2837 07-09-2020 20:20:00 16.8 C 9.15 g/m*3 16.8 C 6.4 km/h
2838 07-09-2020 20:25:00 16.7 C 9.1 g/m*3 16.7 C 6.4 km/h
2839 07-09-2020 20:30:00 16.4 C 9.07 g/m*3 16.4 C 4.8 km/h
2840 07-09-2020 20:35:00 16.3 C 9.16 g/m*3 16.3 C 4.8 km/h
2841 07-09-2020 20:40:00 16.1 C 9.18 g/m*3 16.1 C 0 km/h
2842 07-09-2020 20:45:00 15.9 C 9.34 g/m*3 15.9 C 0 km/h
2843 07-09-2020 20:50:00 15.6 C 9.18 g/m*3 15.6 C 0 km/h
2844 07-09-2020 20:55:00 15.3 C 9.14 g/m*3 15.3 C 6.4 km/h
2845 07-09-2020 21:00:00 15.1 C 9.16 g/m*3 15.1 C 6.4 km/h
2846 07-09-2020 21:05:00 14.9 C 9.18 g/m*3 14.9 C 0 km/h
2847 07-09-2020 21:10:00 14.8 C 9.25 g/m*3 14.8 C 0 km/h
2848 07-09-2020 21:15:00 14.7 C 9.32 g/m*3 14.7 C 0 km/h
2849 07-09-2020 21:20:00 14.5 C 9.33 g/m*3 14.5 C 0 km/h
2850 07-09-2020 21:25:00 14.3 C 9.21 g/m*3 14.3 C 0 km/h
Sensor: Nr:Datum:Temp:Abs-Feuchte:Windchill:Wind:
Aussen-T/F 2851 07-09-2020 21:30:00 14.1 C 9.1 g/m*3 14.1 C 0 km/h
2852 07-09-2020 21:35:00 13.9 C 9.11 g/m*3 13.9 C 0 km/h
2853 07-09-2020 21:40:00 13.8 C 9.17 g/m*3 13.8 C 0 km/h
2854 07-09-2020 21:45:00 13.6 C 9.06 g/m*3 13.6 C 0 km/h
2855 07-09-2020 21:50:00 13.5 C 9.12 g/m*3 13.5 C 0 km/h
2856 07-09-2020 21:55:00 13.4 C 9.07 g/m*3 13.4 C 0 km/h
2857 07-09-2020 22:00:00 13.3 C 9.01 g/m*3 13.3 C 0 km/h
2858 07-09-2020 22:05:00 13.2 C 9.07 g/m*3 13.2 C 0 km/h
2859 07-09-2020 22:10:00 13.1 C 9.01 g/m*3 13.1 C 0 km/h
2860 07-09-2020 22:15:00 13 C 9.07 g/m*3 13 C 0 km/h
2861 07-09-2020 22:20:00 12.8 C 8.96 g/m*3 12.8 C 0 km/h
2862 07-09-2020 22:25:00 12.7 C 8.91 g/m*3 12.7 C 0 km/h
2863 07-09-2020 22:30:00 12.6 C 8.96 g/m*3 12.6 C 0 km/h
2864 07-09-2020 22:35:00 12.5 C 8.91 g/m*3 12.5 C 0 km/h
2865 07-09-2020 22:40:00 12.4 C 8.85 g/m*3 12.4 C 0 km/h
2866 07-09-2020 22:45:00 12.3 C 8.9 g/m*3 12.3 C 0 km/h
2867 07-09-2020 22:50:00 12.3 C 8.9 g/m*3 12.3 C 0 km/h
2868 07-09-2020 22:55:00 12.2 C 8.85 g/m*3 12.2 C 0 km/h
2869 07-09-2020 23:00:00 12.1 C 8.9 g/m*3 12.1 C 0 km/h
2870 07-09-2020 23:05:00 12 C 8.74 g/m*3 12 C 0 km/h
2871 07-09-2020 23:10:00 11.9 C 8.79 g/m*3 11.9 C 0 km/h
2872 07-09-2020 23:15:00 11.8 C 8.74 g/m*3 11.8 C 0 km/h
2873 07-09-2020 23:20:00 11.8 C 8.74 g/m*3 11.8 C 0 km/h
2874 07-09-2020 23:25:00 11.7 C 8.68 g/m*3 11.7 C 0 km/h
2875 07-09-2020 23:30:00 11.7 C 8.68 g/m*3 11.7 C 0 km/h
Sensor: Nr:Datum:Temp:Abs-Feuchte:Windchill:Wind:
Aussen-T/F 2876 07-09-2020 23:35:00 11.6 C 8.63 g/m*3 11.6 C 0 km/h
2877 07-09-2020 23:40:00 11.5 C 8.57 g/m*3 11.5 C 0 km/h
2878 07-09-2020 23:45:00 11.4 C 8.62 g/m*3 11.4 C 0 km/h
2879 07-09-2020 23:50:00 11.3 C 8.57 g/m*3 11.3 C 0 km/h
2880 07-09-2020 23:55:00 11.3 C 8.57 g/m*3 11.3 C 0 km/h
2881 08-09-2020 00:00:00 11.2 C 8.51 g/m*3 11.2 C 0 km/h
2882 08-09-2020 00:05:00 11.2 C 8.62 g/m*3 11.2 C 0 km/h
2883 08-09-2020 00:10:00 11.1 C 8.56 g/m*3 11.1 C 0 km/h
2884 08-09-2020 00:15:00 11 C 8.51 g/m*3 11 C 0 km/h
2885 08-09-2020 00:20:00 10.9 C 8.45 g/m*3 10.9 C 0 km/h
2886 08-09-2020 00:25:00 10.9 C 8.45 g/m*3 10.9 C 0 km/h
2887 08-09-2020 00:30:00 10.8 C 8.5 g/m*3 10.8 C 0 km/h
2888 08-09-2020 00:35:00 10.8 C 8.5 g/m*3 10.8 C 0 km/h
2889 08-09-2020 00:40:00 10.7 C 8.45 g/m*3 10.7 C 0 km/h
2890 08-09-2020 00:45:00 10.7 C 8.45 g/m*3 10.7 C 0 km/h
2891 08-09-2020 00:50:00 10.6 C 8.49 g/m*3 10.6 C 0 km/h
2892 08-09-2020 00:55:00 10.6 C 8.39 g/m*3 10.6 C 0 km/h
2893 08-09-2020 01:00:00 10.6 C 8.49 g/m*3 10.6 C 0 km/h
2894 08-09-2020 01:05:00 10.5 C 8.44 g/m*3 10.5 C 0 km/h
2895 08-09-2020 01:10:00 10.4 C 8.38 g/m*3 10.4 C 0 km/h
2896 08-09-2020 01:15:00 10.5 C 8.53 g/m*3 10.5 C 0 km/h
2897 08-09-2020 01:20:00 10.6 C 8.49 g/m*3 10.6 C 0 km/h
2898 08-09-2020 01:25:00 10.6 C 8.49 g/m*3 10.6 C 0 km/h
2899 08-09-2020 01:30:00 10.5 C 8.44 g/m*3 10.5 C 0 km/h
2900 08-09-2020 01:35:00 10.4 C 8.38 g/m*3 10.4 C 0 km/h
Sensor: Nr:Datum:Temp:Abs-Feuchte:Windchill:Wind:
Aussen-T/F 2901 08-09-2020 01:40:00 10.3 C 8.33 g/m*3 10.3 C 1.6 km/h
2902 08-09-2020 01:45:00 10.3 C 8.43 g/m*3 10.3 C 0 km/h
2903 08-09-2020 01:50:00 10.2 C 8.37 g/m*3 10.2 C 0 km/h
2904 08-09-2020 01:55:00 10.2 C 8.37 g/m*3 10.2 C 0 km/h
2905 08-09-2020 02:00:00 10.1 C 8.32 g/m*3 10.1 C 0 km/h
2906 08-09-2020 02:05:00 10 C 8.27 g/m*3 10 C 0 km/h
2907 08-09-2020 02:10:00 9.9 C 8.22 g/m*3 9.9 C 0 km/h
2908 08-09-2020 02:15:00 9.9 C 8.31 g/m*3 9.9 C 0 km/h
2909 08-09-2020 02:20:00 9.8 C 8.26 g/m*3 9.8 C 0 km/h
2910 08-09-2020 02:25:00 9.8 C 8.26 g/m*3 9.8 C 0 km/h
2911 08-09-2020 02:30:00 9.7 C 8.2 g/m*3 9.7 C 0 km/h
2912 08-09-2020 02:35:00 9.7 C 8.2 g/m*3 9.7 C 0 km/h
2913 08-09-2020 02:40:00 9.7 C 8.2 g/m*3 9.7 C 0 km/h
2914 08-09-2020 02:45:00 9.6 C 8.15 g/m*3 9.6 C 0 km/h
2915 08-09-2020 02:50:00 9.6 C 8.24 g/m*3 9.6 C 0 km/h
2916 08-09-2020 02:55:00 9.5 C 8.19 g/m*3 9.5 C 0 km/h
2917 08-09-2020 03:00:00 9.5 C 8.19 g/m*3 9.5 C 0 km/h
2918 08-09-2020 03:05:00 9.4 C 8.14 g/m*3 9.4 C 0 km/h
2919 08-09-2020 03:10:00 9.4 C 8.14 g/m*3 9.4 C 0 km/h
2920 08-09-2020 03:15:00 9.4 C 8.14 g/m*3 9.4 C 0 km/h
2921 08-09-2020 03:20:00 9.3 C 8.09 g/m*3 9.3 C 0 km/h
2922 08-09-2020 03:25:00 9.3 C 8.09 g/m*3 9.3 C 0 km/h
2923 08-09-2020 03:30:00 9.2 C 8.04 g/m*3 9.2 C 0 km/h
2924 08-09-2020 03:35:00 9.2 C 8.13 g/m*3 9.2 C 0 km/h
2925 08-09-2020 03:40:00 9.1 C 8.07 g/m*3 9.1 C 0 km/h
Sensor: Nr:Datum:Temp:Abs-Feuchte:Windchill:Wind:
Aussen-T/F 2926 08-09-2020 03:45:00 9.1 C 8.07 g/m*3 9.1 C 0 km/h
2927 08-09-2020 03:50:00 9.1 C 8.07 g/m*3 9.1 C 0 km/h
2928 08-09-2020 03:55:00 9 C 8.02 g/m*3 9 C 0 km/h
2929 08-09-2020 04:00:00 8.9 C 7.97 g/m*3 8.9 C 0 km/h
2930 08-09-2020 04:05:00 8.9 C 7.97 g/m*3 8.9 C 0 km/h
2931 08-09-2020 04:10:00 8.8 C 7.92 g/m*3 8.8 C 0 km/h
2932 08-09-2020 04:15:00 8.8 C 7.92 g/m*3 8.8 C 0 km/h
2933 08-09-2020 04:20:00 8.8 C 7.92 g/m*3 8.8 C 0 km/h
2934 08-09-2020 04:25:00 8.7 C 7.96 g/m*3 8.7 C 0 km/h
2935 08-09-2020 04:30:00 8.7 C 7.96 g/m*3 8.7 C 0 km/h
2936 08-09-2020 04:35:00 8.7 C 7.96 g/m*3 8.7 C 0 km/h
2937 08-09-2020 04:40:00 8.7 C 7.96 g/m*3 8.7 C 0 km/h
2938 08-09-2020 04:45:00 8.6 C 7.91 g/m*3 8.6 C 0 km/h
2939 08-09-2020 04:50:00 8.6 C 7.91 g/m*3 8.6 C 0 km/h
2940 08-09-2020 04:55:00 8.5 C 7.85 g/m*3 8.5 C 0 km/h
2941 08-09-2020 05:00:00 8.4 C 7.8 g/m*3 8.4 C 0 km/h
2942 08-09-2020 05:05:00 8.4 C 7.8 g/m*3 8.4 C 0 km/h
2943 08-09-2020 05:10:00 8.4 C 7.8 g/m*3 8.4 C 0 km/h
2944 08-09-2020 05:15:00 8.5 C 7.94 g/m*3 8.5 C 0 km/h
2945 08-09-2020 05:20:00 8.6 C 7.99 g/m*3 8.6 C 0 km/h
2946 08-09-2020 05:25:00 8.6 C 7.99 g/m*3 8.6 C 0 km/h
2947 08-09-2020 05:30:00 8.5 C 7.94 g/m*3 8.5 C 0 km/h
2948 08-09-2020 05:35:00 8.4 C 7.89 g/m*3 8.4 C 0 km/h
2949 08-09-2020 05:40:00 8.4 C 7.8 g/m*3 8.4 C 0 km/h
2950 08-09-2020 05:45:00 8.3 C 7.84 g/m*3 8.3 C 0 km/h
Sensor: Nr:Datum:Temp:Abs-Feuchte:Windchill:Wind:
Aussen-T/F 2951 08-09-2020 05:50:00 8.3 C 7.75 g/m*3 8.3 C 0 km/h
2952 08-09-2020 05:55:00 8.2 C 7.7 g/m*3 8.2 C 0 km/h
2953 08-09-2020 06:00:00 8.2 C 7.79 g/m*3 8.2 C 0 km/h
2954 08-09-2020 06:05:00 8.2 C 7.79 g/m*3 8.2 C 0 km/h
2955 08-09-2020 06:10:00 8.1 C 7.74 g/m*3 8.1 C 0 km/h
2956 08-09-2020 06:15:00 8.1 C 7.74 g/m*3 8.1 C 0 km/h
2957 08-09-2020 06:20:00 8.1 C 7.74 g/m*3 8.1 C 0 km/h
2958 08-09-2020 06:25:00 8.1 C 7.74 g/m*3 8.1 C 0 km/h
2959 08-09-2020 06:30:00 8.1 C 7.74 g/m*3 8.1 C 0 km/h
2960 08-09-2020 06:35:00 8.1 C 7.74 g/m*3 8.1 C 0 km/h
2961 08-09-2020 06:40:00 8 C 7.69 g/m*3 8 C 0 km/h
2962 08-09-2020 06:45:00 7.9 C 7.64 g/m*3 7.9 C 0 km/h
2963 08-09-2020 06:50:00 7.9 C 7.64 g/m*3 7.9 C 0 km/h
2964 08-09-2020 06:55:00 7.9 C 7.64 g/m*3 7.9 C 0 km/h
2965 08-09-2020 07:00:00 7.9 C 7.64 g/m*3 7.9 C 0 km/h
2966 08-09-2020 07:05:00 7.9 C 7.72 g/m*3 7.9 C 0 km/h
2967 08-09-2020 07:10:00 7.9 C 7.72 g/m*3 7.9 C 0 km/h
2968 08-09-2020 07:15:00 7.9 C 7.72 g/m*3 7.9 C 0 km/h
2969 08-09-2020 07:20:00 7.9 C 7.72 g/m*3 7.9 C 0 km/h
2970 08-09-2020 07:25:00 8.1 C 7.82 g/m*3 8.1 C 0 km/h
2971 08-09-2020 07:30:00 8.2 C 7.87 g/m*3 8.2 C 0 km/h
2972 08-09-2020 07:35:00 8.2 C 7.87 g/m*3 8.2 C 0 km/h
2973 08-09-2020 07:40:00 8.3 C 7.92 g/m*3 8.3 C 0 km/h
2974 08-09-2020 07:45:00 8.4 C 7.97 g/m*3 8.4 C 0 km/h
2975 08-09-2020 07:50:00 8.4 C 7.97 g/m*3 8.4 C 0 km/h
Sensor: Nr:Datum:Temp:Abs-Feuchte:Windchill:Wind:
Aussen-T/F 2976 08-09-2020 07:55:00 8.4 C 7.97 g/m*3 8.4 C 0 km/h
2977 08-09-2020 08:00:00 8.4 C 7.97 g/m*3 8.4 C 0 km/h
2978 08-09-2020 08:05:00 8.4 C 7.97 g/m*3 8.4 C 0 km/h
2979 08-09-2020 08:10:00 8.5 C 8.03 g/m*3 8.5 C 0 km/h
2980 08-09-2020 08:15:00 8.6 C 8.08 g/m*3 8.6 C 0 km/h
2981 08-09-2020 08:20:00 8.7 C 8.13 g/m*3 8.7 C 0 km/h
2982 08-09-2020 08:25:00 8.7 C 8.13 g/m*3 8.7 C 0 km/h
2983 08-09-2020 08:30:00 8.8 C 8.18 g/m*3 8.8 C 0 km/h
2984 08-09-2020 08:35:00 8.9 C 8.32 g/m*3 8.9 C 0 km/h
2985 08-09-2020 08:40:00 9 C 8.29 g/m*3 9 C 0 km/h
2986 08-09-2020 08:45:00 9 C 8.29 g/m*3 9 C 0 km/h
2987 08-09-2020 08:50:00 9.1 C 8.34 g/m*3 9.1 C 0 km/h
2988 08-09-2020 08:55:00 9.1 C 8.34 g/m*3 9.1 C 0 km/h
2989 08-09-2020 09:00:00 9.2 C 8.39 g/m*3 9.2 C 0 km/h
2990 08-09-2020 09:05:00 9.2 C 8.39 g/m*3 9.2 C 0 km/h
2991 08-09-2020 09:10:00 9.3 C 8.45 g/m*3 9.3 C 0 km/h
2992 08-09-2020 09:15:00 9.4 C 8.5 g/m*3 9.4 C 0 km/h
2993 08-09-2020 09:20:00 9.5 C 8.56 g/m*3 9.5 C 0 km/h
2994 08-09-2020 09:25:00 9.6 C 8.61 g/m*3 9.6 C 0 km/h
2995 08-09-2020 09:30:00 9.6 C 8.61 g/m*3 9.6 C 3.2 km/h
2996 08-09-2020 09:35:00 9.8 C 8.72 g/m*3 9.8 C 3.2 km/h
2997 08-09-2020 09:40:00 9.9 C 8.78 g/m*3 9.9 C 1.6 km/h
2998 08-09-2020 09:45:00 10.2 C 8.95 g/m*3 10.2 C 1.6 km/h
2999 08-09-2020 09:50:00 10.4 C 9.06 g/m*3 10.4 C 0 km/h
3000 08-09-2020 09:55:00 10.6 C 9.17 g/m*3 10.6 C 0 km/h
Sensor: Nr:Datum:Temp:Abs-Feuchte:Windchill:Wind:
Aussen-T/F 3001 08-09-2020 10:00:00 10.7 C 9.23 g/m*3 10.7 C 1.6 km/h
3002 08-09-2020 10:05:00 10.9 C 9.25 g/m*3 10.9 C 1.6 km/h
3003 08-09-2020 10:10:00 11.1 C 9.37 g/m*3 11.1 C 3.2 km/h
3004 08-09-2020 10:15:00 11.3 C 9.49 g/m*3 11.3 C 3.2 km/h
3005 08-09-2020 10:20:00 11.6 C 9.56 g/m*3 11.6 C 4.8 km/h
3006 08-09-2020 10:25:00 11.9 C 9.74 g/m*3 11.9 C 3.2 km/h
3007 08-09-2020 10:30:00 12.2 C 9.82 g/m*3 12.2 C 1.6 km/h
3008 08-09-2020 10:35:00 12.6 C 9.96 g/m*3 12.6 C 0 km/h
3009 08-09-2020 10:40:00 13 C 10.09 g/m*3 13 C 1.6 km/h
3010 08-09-2020 10:45:00 13.3 C 10.17 g/m*3 13.3 C 0 km/h
3011 08-09-2020 10:50:00 13.7 C 10.18 g/m*3 13.7 C 3.2 km/h
3012 08-09-2020 10:55:00 14.2 C 10.26 g/m*3 14.2 C 6.4 km/h
3013 08-09-2020 11:00:00 14.7 C 10.2 g/m*3 14.7 C 6.4 km/h
3014 08-09-2020 11:05:00 15.3 C 10.19 g/m*3 15.3 C 3.2 km/h
3015 08-09-2020 11:10:00 15.8 C 10.23 g/m*3 15.8 C 1.6 km/h
3016 08-09-2020 11:15:00 16.3 C 10.41 g/m*3 16.3 C 1.6 km/h
3017 08-09-2020 11:20:00 16.7 C 10.23 g/m*3 16.7 C 8.1 km/h
3018 08-09-2020 11:25:00 17.3 C 10.46 g/m*3 17.3 C 8.1 km/h
3019 08-09-2020 11:30:00 17.8 C 10.32 g/m*3 17.8 C 8.1 km/h
3020 08-09-2020 11:35:00 18.3 C 10.16 g/m*3 18.3 C 6.4 km/h
3021 08-09-2020 11:40:00 18.7 C 10.41 g/m*3 18.7 C 8.1 km/h
3022 08-09-2020 11:45:00 19.1 C 10.33 g/m*3 19.1 C 9.7 km/h
3023 08-09-2020 11:50:00 19.3 C 10.12 g/m*3 19.3 C 11.3 km/h
3024 08-09-2020 11:55:00 19.6 C 10.3 g/m*3 19.6 C 11.3 km/h
3025 08-09-2020 12:00:00 19.8 C 10.59 g/m*3 19.8 C 8.1 km/h
Sensor: Nr:Datum:Temp:Abs-Feuchte:Windchill:Wind:
Aussen-T/F 3026 08-09-2020 12:05:00 19.9 C 10.31 g/m*3 19.9 C 8.1 km/h
3027 08-09-2020 12:10:00 20.2 C 10.32 g/m*3 20.2 C 16.1 km/h
3028 08-09-2020 12:15:00 20.4 C 10.26 g/m*3 20.4 C 8.1 km/h
3029 08-09-2020 12:20:00 20.6 C 10.38 g/m*3 20.6 C 11.3 km/h
3030 08-09-2020 12:25:00 20.7 C 10.44 g/m*3 20.7 C 8.1 km/h
3031 08-09-2020 12:30:00 20.8 C 10.14 g/m*3 20.8 C 12.9 km/h
3032 08-09-2020 12:35:00 21 C 10.44 g/m*3 21 C 6.4 km/h
3033 08-09-2020 12:40:00 21.1 C 10.32 g/m*3 21.1 C 9.7 km/h
3034 08-09-2020 12:45:00 21.3 C 10.25 g/m*3 21.3 C 12.9 km/h
3035 08-09-2020 12:50:00 21.3 C 10.07 g/m*3 21.3 C 14.5 km/h
3036 08-09-2020 12:55:00 21.4 C 10.31 g/m*3 21.4 C 14.5 km/h
3037 08-09-2020 13:00:00 21.6 C 10.05 g/m*3 21.6 C 14.5 km/h
3038 08-09-2020 13:05:00 21.7 C 10.11 g/m*3 21.7 C 11.3 km/h
3039 08-09-2020 13:10:00 21.8 C 10.17 g/m*3 21.8 C 11.3 km/h
3040 08-09-2020 13:15:00 21.9 C 10.23 g/m*3 21.9 C 8.1 km/h
3041 08-09-2020 13:20:00 22.1 C 10.35 g/m*3 22.1 C 14.5 km/h
3042 08-09-2020 13:25:00 22.1 C 10.15 g/m*3 22.1 C 9.7 km/h
3043 08-09-2020 13:30:00 22.1 C 10.35 g/m*3 22.1 C 11.3 km/h
3044 08-09-2020 13:35:00 22.2 C 10.41 g/m*3 22.2 C 6.4 km/h
3045 08-09-2020 13:40:00 22.3 C 10.07 g/m*3 22.3 C 14.5 km/h
3046 08-09-2020 13:45:00 22.4 C 10.13 g/m*3 22.4 C 6.4 km/h
3047 08-09-2020 13:50:00 22.5 C 10.19 g/m*3 22.5 C 9.7 km/h
3048 08-09-2020 13:55:00 22.6 C 10.45 g/m*3 22.6 C 8.1 km/h
3049 08-09-2020 14:00:00 22.6 C 10.25 g/m*3 22.6 C 11.3 km/h
3050 08-09-2020 14:05:00 22.6 C 10.04 g/m*3 22.6 C 8.1 km/h
Sensor: Nr:Datum:Temp:Abs-Feuchte:Windchill:Wind:
Aussen-T/F 3051 08-09-2020 14:10:00 22.7 C 10.3 g/m*3 22.7 C 11.3 km/h
3052 08-09-2020 14:15:00 22.7 C 10.3 g/m*3 22.7 C 8.1 km/h
3053 08-09-2020 14:20:00 22.8 C 10.16 g/m*3 22.8 C 9.7 km/h
3054 08-09-2020 14:25:00 23 C 10.28 g/m*3 23 C 8.1 km/h
3055 08-09-2020 14:30:00 23.1 C 10.54 g/m*3 23.1 C 6.4 km/h
3056 08-09-2020 14:35:00 23.2 C 10.19 g/m*3 23.2 C 8.1 km/h
3057 08-09-2020 14:40:00 23.3 C 10.45 g/m*3 23.3 C 11.3 km/h
3058 08-09-2020 14:45:00 23.5 C 10.15 g/m*3 23.5 C 14.5 km/h
3059 08-09-2020 14:50:00 23.6 C 10.21 g/m*3 23.6 C 8.1 km/h
3060 08-09-2020 14:55:00 23.7 C 10.27 g/m*3 23.7 C 9.7 km/h
3061 08-09-2020 15:00:00 23.9 C 10.17 g/m*3 23.9 C 9.7 km/h
3062 08-09-2020 15:05:00 24 C 10.44 g/m*3 24 C 6.4 km/h
3063 08-09-2020 15:10:00 24 C 10.23 g/m*3 24 C 14.5 km/h
3064 08-09-2020 15:15:00 24.1 C 10.28 g/m*3 24.1 C 12.9 km/h
3065 08-09-2020 15:20:00 24.1 C 10.28 g/m*3 24.1 C 11.3 km/h
3066 08-09-2020 15:25:00 24.3 C 10.4 g/m*3 24.3 C 12.9 km/h
3067 08-09-2020 15:30:00 24.3 C 10.18 g/m*3 24.3 C 11.3 km/h
3068 08-09-2020 15:35:00 24.3 C 10.4 g/m*3 24.3 C 6.4 km/h
3069 08-09-2020 15:40:00 24.3 C 10.18 g/m*3 24.3 C 9.7 km/h
3070 08-09-2020 15:45:00 24.4 C 10.24 g/m*3 24.4 C 6.4 km/h
3071 08-09-2020 15:50:00 24.5 C 10.3 g/m*3 24.5 C 14.5 km/h
3072 08-09-2020 15:55:00 24.6 C 10.13 g/m*3 24.6 C 12.9 km/h
3073 08-09-2020 16:00:00 24.7 C 10.41 g/m*3 24.7 C 8.1 km/h
3074 08-09-2020 16:05:00 24.8 C 10.02 g/m*3 24.8 C 12.9 km/h
3075 08-09-2020 16:10:00 24.9 C 10.07 g/m*3 24.9 C 8.1 km/h
Sensor: Nr:Datum:Temp:Abs-Feuchte:Windchill:Wind:
Aussen-T/F 3076 08-09-2020 16:15:00 24.9 C 10.3 g/m*3 24.9 C 6.4 km/h
3077 08-09-2020 16:20:00 25.2 C 10.24 g/m*3 25.2 C 11.3 km/h
3078 08-09-2020 16:25:00 25.4 C 10.36 g/m*3 25.4 C 9.7 km/h
3079 08-09-2020 16:30:00 25.8 C 10.59 g/m*3 25.8 C 11.3 km/h
3080 08-09-2020 16:35:00 25.9 C 10.65 g/m*3 25.9 C 1.6 km/h
3081 08-09-2020 16:40:00 26.2 C 10.34 g/m*3 26.2 C 11.3 km/h
3082 08-09-2020 16:45:00 26.3 C 10.4 g/m*3 26.3 C 6.4 km/h
3083 08-09-2020 16:50:00 26.6 C 10.32 g/m*3 26.6 C 12.9 km/h
3084 08-09-2020 16:55:00 26.9 C 10.75 g/m*3 26.9 C 9.7 km/h
3085 08-09-2020 17:00:00 27.1 C 10.35 g/m*3 27.1 C 14.5 km/h
3086 08-09-2020 17:05:00 27.2 C 10.41 g/m*3 27.2 C 8.1 km/h
3087 08-09-2020 17:10:00 27.3 C 10.47 g/m*3 27.3 C 9.7 km/h
3088 08-09-2020 17:15:00 27.4 C 10.52 g/m*3 27.4 C 4.8 km/h
3089 08-09-2020 17:20:00 27.6 C 10.64 g/m*3 27.6 C 6.4 km/h
3090 08-09-2020 17:25:00 27.8 C 10.49 g/m*3 27.8 C 4.8 km/h
3091 08-09-2020 17:30:00 27.9 C 10.55 g/m*3 27.9 C 6.4 km/h
3092 08-09-2020 17:35:00 27.9 C 10.82 g/m*3 27.9 C 8.1 km/h
3093 08-09-2020 17:40:00 27.7 C 10.97 g/m*3 27.7 C 8.1 km/h
3094 08-09-2020 17:45:00 27.7 C 10.7 g/m*3 27.7 C 9.7 km/h
3095 08-09-2020 17:50:00 27.7 C 10.7 g/m*3 27.7 C 12.9 km/h
3096 08-09-2020 17:55:00 27.7 C 10.97 g/m*3 27.7 C 14.5 km/h
3097 08-09-2020 18:00:00 27.8 C 11.3 g/m*3 27.8 C 4.8 km/h
3098 08-09-2020 18:05:00 28 C 10.61 g/m*3 28 C 6.4 km/h
3099 08-09-2020 18:10:00 28.2 C 11.82 g/m*3 28.2 C 3.2 km/h
3100 08-09-2020 18:15:00 28.2 C 11 g/m*3 28.2 C 8.1 km/h
Sensor: Nr:Datum:Temp:Abs-Feuchte:Windchill:Wind:
Aussen-T/F 3101 08-09-2020 18:20:00 28.1 C 10.94 g/m*3 28.1 C 9.7 km/h
3102 08-09-2020 18:25:00 27.8 C 10.76 g/m*3 27.8 C 11.3 km/h
3103 08-09-2020 18:30:00 27.6 C 11.17 g/m*3 27.6 C 9.7 km/h
3104 08-09-2020 18:35:00 27.5 C 10.32 g/m*3 27.5 C 3.2 km/h
3105 08-09-2020 18:40:00 27.6 C 11.71 g/m*3 27.6 C 3.2 km/h
3106 08-09-2020 18:45:00 27.8 C 11.3 g/m*3 27.8 C 4.8 km/h
3107 08-09-2020 18:50:00 27.8 C 11.3 g/m*3 27.8 C 6.4 km/h
3108 08-09-2020 18:55:00 27.6 C 11.97 g/m*3 27.6 C 6.4 km/h
3109 08-09-2020 19:00:00 27.2 C 11.97 g/m*3 27.2 C 6.4 km/h
3110 08-09-2020 19:05:00 26.7 C 11.9 g/m*3 26.7 C 8.1 km/h
3111 08-09-2020 19:10:00 26.3 C 12.13 g/m*3 26.3 C 9.7 km/h
3112 08-09-2020 19:15:00 25.9 C 12.1 g/m*3 25.9 C 6.4 km/h
3113 08-09-2020 19:20:00 25.5 C 12.31 g/m*3 25.5 C 6.4 km/h
3114 08-09-2020 19:25:00 25.1 C 12.5 g/m*3 25.1 C 6.4 km/h
3115 08-09-2020 19:30:00 24.9 C 12.59 g/m*3 24.9 C 4.8 km/h
3116 08-09-2020 19:35:00 24.6 C 12.38 g/m*3 24.6 C 3.2 km/h
3117 08-09-2020 19:40:00 24.4 C 12.91 g/m*3 24.4 C 3.2 km/h
3118 08-09-2020 19:45:00 24.2 C 12.76 g/m*3 24.2 C 1.6 km/h
3119 08-09-2020 19:50:00 23.7 C 12.83 g/m*3 23.7 C 3.2 km/h
3120 08-09-2020 19:55:00 23.1 C 12.61 g/m*3 23.1 C 0 km/h
3121 08-09-2020 20:00:00 22.5 C 12.58 g/m*3 22.5 C 0 km/h
3122 08-09-2020 20:05:00 22 C 12.62 g/m*3 22 C 4.8 km/h
3123 08-09-2020 20:10:00 21.6 C 12.52 g/m*3 21.6 C 0 km/h
3124 08-09-2020 20:15:00 21.2 C 12.42 g/m*3 21.2 C 0 km/h
3125 08-09-2020 20:20:00 20.8 C 12.31 g/m*3 20.8 C 0 km/h
Sensor: Nr:Datum:Temp:Abs-Feuchte:Windchill:Wind:
Aussen-T/F 3126 08-09-2020 20:25:00 20.6 C 12.53 g/m*3 20.6 C 0 km/h
3127 08-09-2020 20:30:00 20.3 C 12.31 g/m*3 20.3 C 0 km/h
3128 08-09-2020 20:35:00 20.1 C 12.34 g/m*3 20.1 C 3.2 km/h
3129 08-09-2020 20:40:00 19.9 C 12.37 g/m*3 19.9 C 0 km/h
3130 08-09-2020 20:45:00 19.7 C 12.4 g/m*3 19.7 C 4.8 km/h
3131 08-09-2020 20:50:00 19.5 C 12.42 g/m*3 19.5 C 0 km/h
3132 08-09-2020 20:55:00 19.3 C 12.27 g/m*3 19.3 C 4.8 km/h
3133 08-09-2020 21:00:00 19.2 C 12.37 g/m*3 19.2 C 0 km/h
3134 08-09-2020 21:05:00 19.1 C 12.29 g/m*3 19.1 C 0 km/h
3135 08-09-2020 21:10:00 18.9 C 12.31 g/m*3 18.9 C 0 km/h
3136 08-09-2020 21:15:00 18.8 C 12.24 g/m*3 18.8 C 4.8 km/h
3137 08-09-2020 21:20:00 18.7 C 12.33 g/m*3 18.7 C 0 km/h
3138 08-09-2020 21:25:00 18.7 C 12.33 g/m*3 18.7 C 3.2 km/h
3139 08-09-2020 21:30:00 18.6 C 12.26 g/m*3 18.6 C 1.6 km/h
3140 08-09-2020 21:35:00 18.6 C 12.26 g/m*3 18.6 C 3.2 km/h
3141 08-09-2020 21:40:00 18.5 C 12.18 g/m*3 18.5 C 3.2 km/h
3142 08-09-2020 21:45:00 18.4 C 12.27 g/m*3 18.4 C 0 km/h
3143 08-09-2020 21:50:00 18.3 C 12.2 g/m*3 18.3 C 6.4 km/h
3144 08-09-2020 21:55:00 18.2 C 12.12 g/m*3 18.2 C 4.8 km/h
3145 08-09-2020 22:00:00 18.1 C 12.21 g/m*3 18.1 C 1.6 km/h
3146 08-09-2020 22:05:00 17.9 C 12.06 g/m*3 17.9 C 6.4 km/h
3147 08-09-2020 22:10:00 17.9 C 12.06 g/m*3 17.9 C 3.2 km/h
3148 08-09-2020 22:15:00 17.8 C 12.14 g/m*3 17.8 C 6.4 km/h
3149 08-09-2020 22:20:00 17.7 C 12.07 g/m*3 17.7 C 0 km/h
3150 08-09-2020 22:25:00 17.6 C 12 g/m*3 17.6 C 1.6 km/h
Sensor: Nr:Datum:Temp:Abs-Feuchte:Windchill:Wind:
Aussen-T/F 3151 08-09-2020 22:30:00 17.5 C 12.08 g/m*3 17.5 C 3.2 km/h
3152 08-09-2020 22:35:00 17.4 C 12 g/m*3 17.4 C 6.4 km/h
3153 08-09-2020 22:40:00 17.3 C 11.93 g/m*3 17.3 C 3.2 km/h
3154 08-09-2020 22:45:00 17.3 C 11.93 g/m*3 17.3 C 0 km/h
3155 08-09-2020 22:50:00 17.2 C 12.01 g/m*3 17.2 C 0 km/h
3156 08-09-2020 22:55:00 17.1 C 11.94 g/m*3 17.1 C 0 km/h
3157 08-09-2020 23:00:00 16.9 C 11.79 g/m*3 16.9 C 0 km/h
3158 08-09-2020 23:05:00 16.8 C 11.87 g/m*3 16.8 C 0 km/h
3159 08-09-2020 23:10:00 16.7 C 11.8 g/m*3 16.7 C 0 km/h
3160 08-09-2020 23:15:00 16.5 C 11.8 g/m*3 16.5 C 0 km/h
3161 08-09-2020 23:20:00 16.4 C 11.72 g/m*3 16.4 C 0 km/h
3162 08-09-2020 23:25:00 16.3 C 11.79 g/m*3 16.3 C 0 km/h
3163 08-09-2020 23:30:00 16.2 C 11.72 g/m*3 16.2 C 0 km/h
3164 08-09-2020 23:35:00 16 C 11.58 g/m*3 16 C 0 km/h
3165 08-09-2020 23:40:00 15.9 C 11.65 g/m*3 15.9 C 0 km/h
3166 08-09-2020 23:45:00 15.8 C 11.71 g/m*3 15.8 C 0 km/h
3167 08-09-2020 23:50:00 15.7 C 11.64 g/m*3 15.7 C 0 km/h
3168 08-09-2020 23:55:00 15.7 C 11.64 g/m*3 15.7 C 0 km/h
3169 09-09-2020 00:00:00 15.6 C 11.57 g/m*3 15.6 C 0 km/h
3170 09-09-2020 00:05:00 15.5 C 11.5 g/m*3 15.5 C 0 km/h
3171 09-09-2020 00:10:00 15.4 C 11.43 g/m*3 15.4 C 0 km/h
3172 09-09-2020 00:15:00 15.3 C 11.49 g/m*3 15.3 C 0 km/h
3173 09-09-2020 00:20:00 15.2 C 11.42 g/m*3 15.2 C 0 km/h
3174 09-09-2020 00:25:00 15.2 C 11.42 g/m*3 15.2 C 0 km/h
3175 09-09-2020 00:30:00 15.1 C 11.35 g/m*3 15.1 C 0 km/h
Sensor: Nr:Datum:Temp:Abs-Feuchte:Windchill:Wind:
Aussen-T/F 3176 09-09-2020 00:35:00 15.1 C 11.35 g/m*3 15.1 C 0 km/h
3177 09-09-2020 00:40:00 15 C 11.41 g/m*3 15 C 0 km/h
3178 09-09-2020 00:45:00 14.9 C 11.34 g/m*3 14.9 C 0 km/h
3179 09-09-2020 00:50:00 14.8 C 11.27 g/m*3 14.8 C 0 km/h
3180 09-09-2020 00:55:00 14.8 C 11.4 g/m*3 14.8 C 0 km/h
3181 09-09-2020 01:00:00 14.8 C 11.4 g/m*3 14.8 C 0 km/h
3182 09-09-2020 01:05:00 14.7 C 11.33 g/m*3 14.7 C 0 km/h
3183 09-09-2020 01:10:00 14.7 C 11.33 g/m*3 14.7 C 0 km/h
3184 09-09-2020 01:15:00 14.6 C 11.26 g/m*3 14.6 C 0 km/h
3185 09-09-2020 01:20:00 14.5 C 11.19 g/m*3 14.5 C 0 km/h
3186 09-09-2020 01:25:00 14.4 C 11.13 g/m*3 14.4 C 0 km/h
3187 09-09-2020 01:30:00 14.4 C 11.25 g/m*3 14.4 C 0 km/h
3188 09-09-2020 01:35:00 14.4 C 11.25 g/m*3 14.4 C 0 km/h
3189 09-09-2020 01:40:00 14.3 C 11.18 g/m*3 14.3 C 0 km/h
3190 09-09-2020 01:45:00 14.3 C 11.18 g/m*3 14.3 C 0 km/h
3191 09-09-2020 01:50:00 14.3 C 11.18 g/m*3 14.3 C 0 km/h
3192 09-09-2020 01:55:00 14.2 C 11.11 g/m*3 14.2 C 0 km/h
3193 09-09-2020 02:00:00 14.2 C 11.11 g/m*3 14.2 C 0 km/h
3194 09-09-2020 02:05:00 14.1 C 11.04 g/m*3 14.1 C 0 km/h
3195 09-09-2020 02:10:00 14.1 C 11.04 g/m*3 14.1 C 0 km/h
3196 09-09-2020 02:15:00 14.1 C 11.04 g/m*3 14.1 C 0 km/h
3197 09-09-2020 02:20:00 13.9 C 10.91 g/m*3 13.9 C 0 km/h
3198 09-09-2020 02:25:00 13.9 C 11.03 g/m*3 13.9 C 0 km/h
3199 09-09-2020 02:30:00 13.8 C 10.96 g/m*3 13.8 C 0 km/h
3200 09-09-2020 02:35:00 13.8 C 10.96 g/m*3 13.8 C 0 km/h
Sensor: Nr:Datum:Temp:Abs-Feuchte:Windchill:Wind:
Aussen-T/F 3201 09-09-2020 02:40:00 13.8 C 10.96 g/m*3 13.8 C 0 km/h
3202 09-09-2020 02:45:00 13.8 C 10.96 g/m*3 13.8 C 0 km/h
3203 09-09-2020 02:50:00 13.7 C 10.89 g/m*3 13.7 C 0 km/h
3204 09-09-2020 02:55:00 13.7 C 10.89 g/m*3 13.7 C 0 km/h
3205 09-09-2020 03:00:00 13.7 C 11.01 g/m*3 13.7 C 0 km/h
3206 09-09-2020 03:05:00 13.6 C 10.95 g/m*3 13.6 C 0 km/h
3207 09-09-2020 03:10:00 13.6 C 10.95 g/m*3 13.6 C 0 km/h
3208 09-09-2020 03:15:00 13.4 C 10.69 g/m*3 13.4 C 0 km/h
3209 09-09-2020 03:20:00 13.4 C 10.69 g/m*3 13.4 C 0 km/h
3210 09-09-2020 03:25:00 13.4 C 10.81 g/m*3 13.4 C 0 km/h
3211 09-09-2020 03:30:00 13.3 C 10.74 g/m*3 13.3 C 0 km/h
3212 09-09-2020 03:35:00 13.2 C 10.68 g/m*3 13.2 C 0 km/h
3213 09-09-2020 03:40:00 13.2 C 10.68 g/m*3 13.2 C 0 km/h
3214 09-09-2020 03:45:00 13.2 C 10.68 g/m*3